     2              OBSERVATION DATA    GPS                 RINEX VERSION / TYPE
ASHTORIN MIT 08 - JUN - 97 15:02                            PGM / RUN BY / DATE
                                                            COMMENT
China Lake 97 #1 Ashtech Z12                                COMMENT
Original Marker Name: GS25                                  COMMENT
Campaign Name: China Lake May 1997                          COMMENT
4-Character Station Name: GS25                              COMMENT
6-Character Antenna Code: ASHGD3                            COMMENT
Vertical Measurement Point: TGP                             COMMENT
Vertical Offset to Rinex Ref. Point: 0.0640                 COMMENT
Radial Measurement Point: RRP                               COMMENT
Radial Offset to Rinex Ref. Point: 0.0000                   COMMENT
Antenna Height from Field Measurement: 0.2110 m             COMMENT
Additional Antenna Identification Info.:                    COMMENT
The Whopper (700718AB)                                      COMMENT
Original XYZ: -2436022.0700 -4555382.7800 3731070.3800      COMMENT
New XYZ position is based on association with SCEC monument COMMENT
E1F4O4V6+0011. Position of that monument is believed to be  COMMENT
valid to within 1 m horizontally; vertical accuracy         COMMENT
should be no worse than 3-times this value.                 COMMENT
                                                            COMMENT
Revised Rinex header created by UCSD GPS archive for        COMMENT
GSAC on 01-Aug-2000 (2000:214) 21:55:05 GMT                 COMMENT
For assistance contact dagnew@ucsd.edu                      COMMENT
or anderson@python.ucsd.edu                                 COMMENT
                                                            COMMENT
BLM CA 065-94-66 GO25                                       MARKER NAME
gs25                                                        MARKER NUMBER
KEA US DEFENSE MAPPING AGENCY                               OBSERVER / AGENCY
448 ASHTECH Z-XII3 1G001C7                                  REC # / TYPE / VERS
812 ASHTECH GEODETIC III                                    ANT # / TYPE
 -2371482.7420 -4596804.5788  3720997.6559                  APPROX POSITION XYZ
        0.1470        0.0000        0.0000                  ANTENNA: DELTA H/E/N
     1     1     0                                          WAVELENGTH FACT L1/2
     7    L1    L2    C1    P1    P2    D1    D2            # / TYPES OF OBSERV
    30                                                      INTERVAL
  1997     5    14    15    26    0.000000                  TIME OF FIRST OBS
  1997     5    14    21    30    0.000000                  TIME OF LAST OBS
                                                            END OF HEADER
 97  5 14 15 26  0.0000000  0  6 19  2 27 26  7 15                   0.000847904
     52243.45019     29412.13954  19053497.724           0.0005          0.0005
     -2618.194       -2040.151
     -9274.45419     -5382.00258  17563619.231           0.0005   17563626.7825
       345.202         268.988
      9856.01019      5223.15654  16642464.194           0.0005          0.0005
      -473.155        -368.692
    -37467.45219    -21011.06757  19672942.476           0.0005   19672951.1035
      1877.030        1462.621
    -33840.19719    -16418.97458  17928784.564           0.0005   17928792.6185
      2528.924        1970.590
    -28048.96419    -14163.36352  20262099.309           0.0005          0.0005
      1264.518         985.339
 97  5 14 15 26 30.0000000  0  7 19  2 31 27 26  7 15                0.000847569
    130928.630 9     91232.66954  19068469.033           0.0004          0.0005
     -2627.739       -2047.589
    -19528.699 9    -13372.32348  17561667.950    17561668.2895   17561675.4394
       338.157         263.499
     84485.72718     40802.48252  21495451.102           0.0005          0.0005
     -3661.295       -2852.957
     24282.468 9     16323.35355  16645207.568           0.0004          0.0005
      -488.830        -380.906
    -93531.171 9    -64697.07547  19662274.391    19662275.1975   19662282.4934
      1860.381        1449.648
   -109517.652 9    -75388.40248  17914384.110    17914383.8645   17914391.6064
      2515.923        1960.459
    -65745.382 9    -43537.67756  20254923.472           0.0005   20254932.4865
      1248.290         972.694
 97  5 14 15 27  0.0000000  0  6 19  2 27 26  7 15                   0.000264418
    209918.380 9    153301.12855  22681011.082           0.0004          0.0005
     -2640.242       -2057.331
    -29510.521 9    -21150.36348  21157278.319    21157278.3184   21157285.4444
       327.755         255.394
     39216.820 9     27742.69854  20245561.562           0.0004          0.0005
      -507.009        -395.072
   -149032.692 9   -107945.01147  23249224.052    23249223.1324   23249230.3284
      1841.633        1435.039
   -184726.844 9   -133992.95048  21497579.830    21497581.5604   21497589.2744
      2500.295        1948.282
   -102891.591 9    -72482.77347  23845364.159    23845365.3885   23845373.3744
      1229.287         957.886
 97  5 14 15 27 30.0000000  0  6 19  2 27 26  7 15                   0.000264236
    289343.035 9     25414.46657  22696125.936           0.0005   22696133.3475
     -2654.573       -2068.498
    -39168.103 9    -28675.75058  21155439.201    21155440.6025   21155447.6715
       316.196         246.386
     54709.414 9      5005.60058  20248508.710           0.0005   20248515.5685
      -525.831        -409.738
   -203993.402 9   -150771.52457  23238763.972    23238764.5075   23238771.6685
      1822.427        1420.073
   -259481.712 9   -192243.47558  21483356.618    21483356.1885   21483363.9005
      2483.408        1935.123
   -139466.872 9   -100982.99957  23838404.860    23838405.3015   23838413.2895
      1209.082         942.142
 97  5 14 15 28  0.0000000  0  6 19  2 27 26  7 15                   0.000264127
    369211.057 9     87649.24647  22711324.263    22711324.3955   22711332.0474
     -2670.021       -2080.536
    -48460.970 9    -35916.94648  21153671.372    21153672.2794   21153679.3194
       303.237         236.288
     70785.045 9     17532.05248  20251567.854    20251568.4795   20251574.8824
      -546.153        -425.574
   -258357.071 9   -193132.81647  23228419.335    23228419.4714   23228426.6464
      1801.510        1403.774
   -333709.355 9   -250083.18048  21469231.488    21469231.0804   21469238.8014
      2464.807        1920.629
   -175418.707 9   -128997.41247  23831563.543    23831563.8284   23831571.8544
      1187.463         925.296
 97  5 14 15 28 30.0000000  0  6 19  2 27 26  7 15                   0.000264135
    449533.189 9    150237.88947  22726608.926    22726609.5644   22726616.7954
     -2684.787       -2092.042
    -57373.394 9    -42861.68948  21151975.870    21151976.3324   21151983.3664
       291.030         226.777
     87471.792 9     30534.70148  20254743.271    20254743.9404   20254750.2694
      -566.482        -441.415
   -312099.464 9   -235010.00047  23218192.326    23218192.6174   23218199.7994
      1781.392        1388.098
   -407376.844 9   -307486.39448  21455212.372    21455212.6234   21455220.3334
      2446.381        1906.271
   -210725.335 9   -156509.06647  23824844.862    23824845.2034   23824853.2194
      1166.264         908.777
 97  5 14 15 29  0.0000000  0  6 19  2 27 26  7 15                   0.000264231
    530293.392 9    213167.89147  22741977.027    22741977.7864   22741984.9234
     -2699.026       -2103.137
    -65930.604 9    -49529.65148  21150347.432    21150347.9424   21150354.9974
       279.782         218.012
    104778.940 9     44020.77848  20258036.706    20258037.4254   20258043.7364
      -587.091        -457.474
   -365249.568 9   -276425.66647  23208077.854    23208078.5024   23208085.6804
      1762.063        1373.036
   -480493.323 9   -364460.26348  21441298.718    21441299.0514   21441306.7474
      2428.167        1892.078
   -245396.503 9   -183525.55847  23818247.176    23818247.5134   23818255.5564
      1145.282         892.428
 97  5 14 15 29 30.0000000  0  6 19  2 27 26  7 15                   0.000264410
    611461.988 9    276416.09647  22757422.914    22757423.7544   22757430.9234
     -2711.195       -2112.619
    -74183.299 9    -55960.32948  21148777.022    21148777.5134   21148784.5844
       271.389         211.472
    122683.947 9     57972.71648  20261443.975    20261444.6574   20261450.9864
      -605.654        -471.938
   -417830.172 9   -317397.55347  23198072.363    23198072.7674   23198079.9034
      1744.126        1359.059
   -553076.954 9   -421018.92948  21427486.371    21427486.8634   21427494.5484
      2411.770        1879.301
   -279454.959 9   -210064.61447  23811766.136    23811766.4594   23811774.4394
      1126.193         877.553
 97  5 14 15 30  0.0000000  0  6 19  2 27 26  7 15                   0.000264651
    693000.630 9    339952.68447  22772939.182    22772940.0464   22772947.1894
     -2723.845       -2122.477
    -82171.678 9    -62185.04348  21147256.814    21147257.3894   21147264.4714
       261.959         204.124
    141158.978 9     72368.83248  20264959.705    20264960.3614   20264966.6994
      -625.170        -487.145
   -469853.828 9   -357935.45947  23188172.302    23188173.0124   23188180.1174
      1724.840        1344.031
   -625162.859 9   -477189.74948  21413768.923    21413769.4144   21413777.0904
      2394.721        1866.016
   -312929.078 9   -236148.32747  23805396.278    23805396.5984   23805404.5814
      1106.233         862.000
 97  5 14 15 30 30.0000000  0  6 19  2 27 26  7 15                   0.000264931
    774858.826 9    403738.22647  22788516.356    22788517.1954   22788524.4024
     -2733.919       -2130.326
    -89932.592 9    -68232.51548  21145780.057    21145780.5624   21145787.6584
       254.841         198.577
    160162.443 9     87176.71548  20268575.966    20268576.6264   20268582.9774
      -642.198        -500.414
   -521350.202 9   -398062.50247  23178372.903    23178373.5804   23178380.6844
      1707.791        1330.746
   -696794.954 9   -533006.95348  21400137.692    21400138.3294   21400145.9824
      2380.248        1854.739
   -345860.357 9   -261809.06547  23799129.711    23799130.0244   23799137.9674
      1088.655         848.303
 97  5 14 15 31  0.0000000  0  6 19  2 27 26  7 15                   0.000265240
    857018.367 9    467758.62847  22804150.695    22804151.6584   22804158.8444
     -2743.411       -2137.723
    -97478.891 9    -74112.75148  21144344.147    21144344.5704   21144351.6954
       248.103         193.327
    179668.250 9    102376.02948  20272287.826    20272288.4954   20272294.8404
      -658.124        -512.824
   -572334.123 9   -437790.23647  23168670.897    23168671.6654   23168678.7314
      1691.001        1317.663
   -767991.762 9   -588484.97148  21386589.463    21386590.0714   21386597.6964
      2366.142        1843.747
   -378267.052 9   -287061.03447  23792962.981    23792963.2634   23792971.1934
      1071.784         835.156
 97  5 14 15 31 30.0000000  0  6 19  2 27 26  7 15                   0.000265583
    939470.544 9    532007.02747  22819840.850    22819841.7944   22819849.0724
     -2753.235       -2145.378
   -104805.858 9    -79822.08648  21142949.878    21142950.3284   21142957.4454
       240.270         187.223
    199653.222 9    117948.72148  20276090.894    20276091.5424   20276097.8724
      -674.178        -525.334
   -622799.900 9   -477114.22147  23159067.334    23159068.4034   23159075.4454
      1673.451        1303.988
   -838760.599 9   -643629.51648  21373122.505    21373123.2394   21373130.8694
      2351.991        1832.720
   -410159.705 9   -311912.45347  23786893.978    23786894.3654   23786902.2324
      1054.428         821.632
 97  5 14 15 32  0.0000000  0  6 19  2 27 26  7 15                   0.000265960
   1022224.995 9    596490.97647  22835588.626    22835589.5234   22835596.8164
     -2763.612       -2153.464
   -111879.931 9    -85334.35348  21141603.858    21141604.2254   21141611.3114
       231.390         180.304
    220132.086 9    133906.26348  20279987.953    20279988.5614   20279994.9144
      -691.197        -538.595
   -672730.215 9   -516020.95447  23149566.063    23149567.0184   23149574.0644
      1655.214        1289.777
   -909102.233 9   -698441.16648  21359737.062    21359737.7124   21359745.3214
      2337.305        1821.277
   -441525.155 9   -336353.05047  23780925.336    23780925.6984   23780933.6124
      1036.498         807.661
 97  5 14 15 32 30.0000000  0  6 19  2 27 26  7 15                   0.000266367
   1105283.352 9    661211.74747  22851394.125    22851395.1394   22851402.3334
     -2773.584       -2161.234
   -118699.467 9    -90648.28448  21140306.142    21140306.5624   21140313.6024
       223.470         174.132
    241121.729 9    150261.82148  20283982.154    20283982.7724   20283989.1284
      -708.039        -551.719
   -722119.198 9   -554505.87347  23140167.415    23140168.6174   23140175.6504
      1637.618        1276.066
   -979006.518 9   -752912.02148  21346434.585    21346435.3624   21346442.9724
      2323.140        1810.239
   -472355.840 9   -360376.95747  23775058.432    23775058.8344   23775066.7264
      1018.935         793.975
 97  5 14 15 33  0.0000000  0  6 19  2 27 26  7 15                   0.000266808
   1188653.884 9    726175.75947  22867259.016    22867260.0384   22867267.3604
     -2784.367       -2169.637
   -125276.738 9    -95773.43848  21139054.550    21139054.9964   21139062.0084
       215.134         167.637
    262625.744 9    167018.18448  20288074.238    20288074.8584   20288081.2194
      -725.558        -565.370
   -770969.069 9   -592570.71347  23130871.493    23130872.7954   23130879.8324
      1619.084        1261.624
  -1048472.824 9   -807041.58948  21333215.584    21333216.3624   21333223.9844
      2307.985        1798.430
   -502648.871 9   -383981.91547  23769293.861    23769294.2864   23769302.1814
      1000.611         779.697
 97  5 14 15 33 30.0000000  0  6 19  2 27 26  7 15                   0.000267279
   1272328.579 9    791376.79947  22883181.704    22883182.8414   22883190.1464
     -2794.012       -2177.152
   -131627.350 9   -100721.96948  21137846.189    21137846.5374   21137853.5714
       208.138         162.185
    284649.145 9    184179.26148  20292265.153    20292265.7964   20292272.1374
      -742.793        -578.800
   -819279.257 9   -630215.01047  23121678.444    23121679.7204   23121686.7334
      1601.581        1247.985
  -1117506.205 9   -860833.81148  21320079.051    21320079.7514   21320087.3494
      2294.015        1787.544
   -532405.500 9   -407168.89147  23763631.430    23763631.7874   23763639.7244
       982.982         765.960
 97  5 14 15 34  0.0000000  0  6 19  2 27 26  7 15                   0.000267764
   1356279.656 9    856793.18247  22899157.148    22899158.2314   22899165.5554
     -2802.866       -2184.051
   -137784.169 9   -105519.49948  21136674.661    21136674.9604   21136681.9714
       202.373         157.693
    307180.760 9    201736.35348  20296552.864    20296553.4784   20296559.8114
      -759.432        -591.765
   -867076.649 9   -667459.73547  23112583.178    23112584.2164   23112591.2404
      1584.917        1235.000
  -1186119.555 9   -914298.73048  21307022.244    21307023.0484   21307030.6474
      2280.003        1776.626
   -561642.920 9   -429951.30547  23758067.841    23758068.0644   23758076.0764
       966.049         752.765
 97  5 14 15 34 30.0000000  0  6 19  2 27 26  7 15                   0.000268267
   1440510.965 9    922427.92747  22915185.847    22915186.8824   22915194.3134
     -2812.606       -2191.641
   -143758.195 9   -110174.58748  21135537.917    21135538.2054   21135545.1824
       195.883         152.636
    330216.159 9    219686.00348  20300936.359    20300936.9964   20300943.3394
      -776.072        -604.731
   -914365.245 9   -704307.99347  23103584.597    23103585.5584   23103592.5634
      1567.802        1221.664
  -1254293.809 9   -967421.49948  21294049.079    21294049.8934   21294057.4724
      2265.016        1764.947
   -590356.147 9   -452325.24447  23752603.855    23752604.1204   23752612.1314
       948.267         738.909
 97  5 14 15 35  0.0000000  0  6 19  2 27 26  7 15                   0.000268803
   1525034.729 9    988290.56647  22931270.287    22931271.2464   22931278.6234
     -2822.243       -2199.150
   -149532.935 9   -114674.39048  21134439.067    21134439.3444   21134446.3264
       189.122         147.368
    353744.503 9    238019.76548  20305413.675    20305414.3224   20305420.6634
      -792.451        -617.494
   -961141.595 9   -740757.11047  23094683.384    23094684.3984   23094691.3534
      1550.727        1208.359
  -1322010.372 9  -1020187.63048  21281163.064    21281163.8604   21281171.4424
      2249.403        1752.782
   -618536.297 9   -474283.80147  23747241.363    23747241.6234   23747249.6474
       930.461         725.034
 97  5 14 15 35 30.0000000  0  6 19  2 27 26  7 15                   0.000269362
   1609844.402 9   1054375.99347  22947409.171    22947410.0814   22947417.4494
     -2831.762       -2206.568
   -155113.113 9   -119022.58848  21133377.146    21133377.5114   21133384.4754
       182.636         142.314
    377761.372 9    256734.19448  20309983.942    20309984.6104   20309990.9604
      -808.748        -630.193
  -1007421.687 9   -776819.51047  23085876.574    23085877.6254   23085884.5624
      1534.438        1195.666
  -1389263.711 9  -1072592.81248  21268365.173    21268365.9534   21268373.5174
      2234.008        1740.785
   -646186.760 9   -495829.61847  23741979.638    23741979.9624   23741987.9574
       912.729         711.217
 97  5 14 15 36  0.0000000  0  6 19  2 27 26  7 15                   0.000269935
   1694923.181 9   1120671.09447  22963599.072    22963600.0444   22963607.4324
     -2840.488       -2213.367
   -160512.055 9   -123229.56348  21132349.839    21132350.1804   21132357.1154
       177.073         137.979
    402241.481 9    275809.58948  20314642.431    20314643.0604   20314649.4204
      -823.507        -641.694
  -1053225.667 9   -812510.93147  23077160.362    23077161.3834   23077168.3364
      1518.901        1183.559
  -1456067.078 9  -1124647.36048  21255652.881    21255653.7214   21255661.2784
      2219.468        1729.456
   -673320.265 9   -516972.60147  23736816.321    23736816.6034   23736824.6464
       895.908         698.110
 97  5 14 15 36 30.0000000  0  6 19  2 27 26  7 15                   0.000270508
   1780238.283 9   1187150.35447  22979834.131    22979835.0824   22979842.3854
     -2847.667       -2218.961
   -165762.684 9   -127320.96848  21131350.591    21131351.0324   21131357.9594
       172.319         134.275
    427134.950 9    295207.07848  20319379.588    20319380.1964   20319386.5364
      -836.742        -652.007
  -1098581.407 9   -847853.06147  23068529.472    23068530.4764   23068537.4514
      1504.287        1172.172
  -1522467.815 9  -1176388.16848  21243017.317    21243018.0934   21243025.6544
      2206.688        1719.497
   -699970.738 9   -537739.21147  23731744.896    23731745.2274   23731753.2074
       880.262         685.918
 97  5 14 15 37  0.0000000  0  6 19  2 27 26  7 15                   0.000271074
   1865787.129 9   1253811.76147  22996113.597    22996114.6214   22996121.9444
     -2855.399       -2224.986
   -170854.072 9   -131288.28648  21130381.741    21130382.2194   21130389.1354
       167.107         130.213
    452462.114 9    314942.51448  20324199.204    20324199.8294   20324206.1774
      -851.876        -663.799
  -1143480.377 9   -882839.26447  23059985.521    23059986.4834   23059993.4684
      1488.962        1160.230
  -1588466.399 9  -1227815.61348  21230458.174    21230458.9904   21230466.5464
      2193.329        1709.088
   -726129.230 9   -558122.45347  23726767.028    23726767.4334   23726775.4274
       863.609         672.942
 97  5 14 15 37 30.0000000  0  6 19  2 27 26  7 15                   0.000271616
   1951553.761 9   1320642.85347  23012434.430    23012435.4294   23012442.7504
     -2862.431       -2230.466
   -175800.956 9   -135143.00348  21129440.317    21129440.8594   21129447.8034
       162.524         126.642
    478232.910 9    335023.63748  20329103.258    20329103.8634   20329110.2174
      -866.298        -675.037
  -1187926.244 9   -917472.41447  23051527.592    23051528.7594   23051535.7264
      1473.859        1148.462
  -1654090.850 9  -1278951.52348  21217970.264    21217971.0944   21217978.6284
      2181.605        1699.952
   -751798.416 9   -578124.41947  23721882.408    23721882.7994   23721890.7354
       847.512         660.399
 97  5 14 15 38  0.0000000  0  6 19  2 27 26  7 15                   0.000272138
   2037532.707 9   1387639.39647  23028795.678    23028796.6484   23028804.0774
     -2870.429       -2236.698
   -180610.046 9   -138890.35148  21128525.170    21128525.7314   21128532.6904
       157.146         122.451
    504429.647 9    355436.67048  20334088.364    20334088.9784   20334095.3374
      -881.098        -686.570
  -1231913.809 9   -951748.43947  23043157.147    23043158.2434   23043165.2074
      1457.708        1135.876
  -1719369.744 9  -1329818.18048  21205548.029    21205548.9064   21205556.4174
      2169.397        1690.439
   -776986.369 9   -597751.39547  23717089.363    23717089.7124   23717097.6304
       830.790         647.369
 97  5 14 15 38 30.0000000  0  6 19  2 27 26  7 15                   0.000272650
   2123748.468 9   1454820.47747  23045202.044    23045202.9914   23045210.3634
     -2877.530       -2242.231
   -185252.578 9   -142507.91448  21127641.770    21127642.2884   21127649.2394
       152.226         118.618
    531077.238 9    376201.00348  20339159.243    20339159.8904   20339166.2394
      -895.781        -698.011
  -1275418.936 9   -985648.52747  23034878.284    23034879.5074   23034886.4644
      1442.464        1123.998
  -1784280.065 9  -1380397.62748  21193196.058    21193196.8904   21193204.3764
      2157.558        1681.214
   -801673.758 9   -616988.32247  23712391.439    23712391.8444   23712399.8094
       814.774         634.889
 97  5 14 15 39  0.0000000  0  6 19  2 27 26  7 15                   0.000273142
   2210199.609 9   1522184.95447  23061653.178    23061654.1934   23061661.6304
     -2885.789       -2248.667
   -189735.851 9   -146001.38148  21126788.665    21126789.1924   21126796.1004
       146.704         114.315
    558191.180 9    397328.73248  20344318.870    20344319.5184   20344325.8984
      -911.626        -710.358
  -1318450.226 9  -1019179.39547  23026689.739    23026690.9514   23026697.8904
      1426.122        1111.264
  -1848818.624 9  -1430687.39348  21180914.735    21180915.6214   21180923.0914
      2144.924        1671.369
   -825863.818 9   -635837.72547  23707788.202    23707788.6584   23707796.5644
       797.842         621.695
 97  5 14 15 39 30.0000000  0  6 19  2 27 26  7 15                   0.000273637
   2296894.477 9   1589739.33347  23078150.673    23078151.6884   23078159.1834
     -2893.650       -2254.792
   -194058.938 9   -149370.03448  21125966.009    21125966.5774   21125973.4514
       141.595         110.334
    585760.100 9    418810.99448  20349565.067    20349565.7484   20349572.1174
      -926.148        -721.674
  -1360983.221 9  -1052321.98947  23018596.141    23018597.2424   23018604.1354
      1409.721        1098.484
  -1912975.596 9  -1480679.81448  21168706.146    21168707.0084   21168714.4544
      2132.234        1661.481
   -849551.172 9   -654295.40447  23703280.747    23703281.1604   23703289.0244
       781.487         608.951
 97  5 14 15 40  0.0000000  0  6 19  2 27 26  7 15                   0.000274137
   2383841.459 9   1657490.19547  23094696.186    23094697.1804   23094704.6364
     -2902.423       -2261.628
   -198202.126 9   -152598.49548  21125177.652    21125178.1824   21125185.0564
       134.833         105.065
    613788.563 9    440651.34548  20354898.698    20354899.4014   20354905.7724
      -942.271        -734.237
  -1403014.768 9  -1085073.84547  23010597.755    23010598.9424   23010605.8134
      1392.560        1085.112
  -1976721.580 9  -1530351.98848  21156575.669    21156576.5444   21156584.0274
      2117.530        1650.023
   -872729.124 9   -672356.15147  23698870.085    23698870.6014   23698878.4184
       763.899         595.246
 97  5 14 15 40 30.0000000  0  6 19  2 27 26  7 15                   0.000274637
   2471029.186 9   1725428.64447  23111287.698    23111288.5944   23111296.0314
     -2910.679       -2268.062
   -202157.760 9   -155680.81348  21124424.967    21124425.4764   21124432.3514
       128.211          99.905
    642296.515 9    462865.31848  20360323.593    20360324.2964   20360330.6884
      -958.877        -747.177
  -1444540.550 9  -1117431.60547  23002695.767    23002696.8894   23002703.7654
      1375.175        1071.565
  -2040032.487 9  -1579685.14348  21144527.965    21144528.8344   21144536.3344
      2102.567        1638.364
   -895390.439 9   -690014.32047  23694557.873    23694558.3384   23694566.1194
       746.161         581.424
 97  5 14 15 41  0.0000000  0  6 19  2 27 26  7 15                   0.000275142
   2558456.993 9   1793554.13247  23127924.489    23127925.4644   23127933.0594
     -2918.053       -2273.807
   -205925.778 9   -158616.93848  21123707.943    21123708.4594   21123715.3704
       122.679          95.594
    671283.335 9    485452.44148  20365839.627    20365840.3464   20365846.7254
      -973.862        -758.854
  -1485548.830 9  -1149386.10047  22994892.321    22994893.2734   22994900.1864
      1358.320        1058.431
  -2102910.100 9  -1628680.66048  21132562.739    21132563.6084   21132571.1194
      2088.859        1627.682
   -917525.488 9   -707262.41747  23690345.697    23690346.1994   23690353.9574
       729.220         568.223
 97  5 14 15 41 30.0000000  0  6 19  2 27 26  7 15                   0.000275657
   2646118.263 9   1861861.57846  23144606.117    23144607.0124   23144614.5294
     -2925.825       -2279.864
   -209513.158 9   -161412.30148  21123025.313    21123025.8124   21123032.7234
       116.692          90.929
    700728.688 9    508396.85848  20371442.931    20371443.6474   20371450.0284
      -989.020        -770.665
  -1526044.802 9  -1180941.40447  22987186.125    22987187.1824   22987194.1064
      1341.808        1045.565
  -2165353.674 9  -1677337.97148  21120680.095    21120681.0104   21120688.5024
      2074.421        1616.432
   -939140.100 9   -724104.96647  23686232.628    23686233.1044   23686240.8784
       712.042         554.838
 97  5 14 15 42  0.0000000  0  6 19  2 27 26  7 15                   0.000276166
   2734014.470 9   1930352.08247  23161332.041    23161333.2174   23161340.6394
     -2933.968       -2286.209
   -212917.758 9   -164065.24148  21122377.371    21122377.9254   21122384.8564
       110.487          86.094
    730635.343 9    531700.72948  20377133.967    20377134.7024   20377141.0874
     -1004.656        -782.849
  -1566047.102 9  -1212112.02447  22979573.935    22979574.9834   22979581.9104
      1324.853        1032.353
  -2227369.885 9  -1725662.26448  21108878.764    21108879.7164   21108887.2054
      2059.996        1605.192
   -960236.423 9   -740543.65447  23682218.126    23682218.6174   23682226.3934
       694.330         541.036
 97  5 14 15 42 30.0000000  0  6 19  2 27 26  7 15                   0.000276698
   2822167.339 9   1999042.56547  23178106.904    23178108.1604   23178115.6574
     -2943.189       -2293.394
   -216144.098 9   -166579.27848  21121763.280    21121763.9414   21121770.8964
       104.273          81.252
    761009.764 9    555369.09048  20382914.018    20382914.7904   20382921.1794
     -1020.671        -795.328
  -1605528.232 9  -1242876.54047  22972060.871    22972061.9794   22972068.8844
      1307.040        1018.473
  -2288950.978 9  -1773647.50748  21097160.394    21097161.2334   21097168.7294
      2045.196        1593.659
   -980795.782 9   -756563.94147  23678305.858    23678306.3544   23678314.0924
       675.950         526.714
 97  5 14 15 43  0.0000000  0  6 19  2 27 26  7 15                   0.000277255
   2910594.760 9   2067947.02647  23194934.308    23194935.5114   23194942.8754
     -2952.089       -2300.329
   -219192.170 9   -168954.40548  21121183.251    21121183.9044   21121190.8554
        98.777          76.969
    791861.545 9    579409.42148  20388784.966    20388785.7134   20388792.1174
     -1036.515        -807.674
  -1644490.062 9  -1273236.40647  22964646.619    22964647.7914   22964654.7224
      1290.355        1005.471
  -2350093.081 9  -1821290.67848  21085525.361    21085526.2964   21085533.7874
      2030.660        1582.332
  -1000807.603 9   -772157.56647  23674497.704    23674498.2504   23674505.9544
       658.010         512.735
 97  5 14 15 43 30.0000000  0  6 19  2 27 26  7 15                   0.000277819
   2999286.242 9   2137057.22147  23211811.707    23211812.8644   23211820.3804
     -2960.721       -2307.055
   -222071.568 9   -171198.09548  21120635.383    21120635.9814   21120642.9104
        92.832          72.337
    823199.932 9    603828.92648  20394748.427    20394749.2354   20394755.6404
     -1052.965        -820.492
  -1682956.479 9  -1303210.24147  22957326.611    22957327.8264   22957334.8154
      1273.984         992.715
  -2410787.860 9  -1868585.28848  21073975.606    21073976.4764   21073983.9664
      2015.614        1570.608
  -1020279.500 9   -787330.46147  23670792.389    23670792.9344   23670800.5424
       639.924         498.642
 97  5 14 15 44  0.0000000  0  6 19  2 27 26  7 15                   0.000278380
   3088241.853 9   2206373.22347  23228739.592    23228740.8184   23228748.2544
     -2969.371       -2313.796
   -224757.308 9   -173290.88748  21120124.310    21120124.9044   21120131.8084
        86.522          67.420
    855050.451 9    628647.49048  20400809.426    20400810.1914   20400816.6284
     -1070.078        -833.827
  -1720921.528 9  -1332793.41147  22950102.096    22950103.3034   22950110.3204
      1257.240         979.668
  -2471027.243 9  -1915525.03948  21062512.383    21062513.2964   21062520.8094
      2000.558        1558.876
  -1039196.600 9   -802071.05147  23667192.591    23667193.1204   23667200.7494
       621.405         484.212
 97  5 14 15 44 30.0000000  0  6 19  2 27 26  7 15                   0.000278932
   3177449.914 9   2275885.94347  23245715.191    23245716.4224   23245723.8914
     -2977.703       -2320.288
   -227261.497 9   -175242.20448  21119647.723    21119648.3884   21119655.2964
        80.368          62.624
    887406.257 9    653859.78548  20406966.519    20406967.2834   20406973.7324
     -1087.022        -847.030
  -1758392.908 9  -1361991.89647  22942971.396    22942972.7324   22942979.7514
      1240.951         966.975
  -2530816.480 9  -1962114.02848  21051134.867    21051135.7854   21051143.2614
      1985.496        1547.140
  -1057564.951 9   -816384.05147  23663697.167    23663697.6874   23663705.3934
       603.224         470.045
 97  5 14 15 45  0.0000000  0  6 19  2 27 26  7 15                   0.000279465
   3266904.827 9   2345591.00447  23262738.154    23262739.3454   23262746.8414
     -2985.975       -2326.734
   -229573.269 9   -177043.59348  21119207.863    21119208.5134   21119215.4154
        73.859          57.552
    920270.806 9    679468.50048  20413220.460    20413221.2324   20413227.7114
     -1103.802        -860.105
  -1795376.290 9  -1390810.12747  22935933.939    22935935.0374   22935942.0834
      1224.578         954.217
  -2590153.320 9  -2008350.50048  21039843.400    21039844.3594   21039851.8124
      1970.345        1535.334
  -1075388.945 9   -830272.87247  23660305.376    23660305.8994   23660313.6064
       585.069         455.898
 97  5 14 15 45 30.0000000  0  6 19  2 27 26  7 15                   0.000279993
   3356618.698 9   2415497.87646  23279809.958    23279811.1714   23279818.5234
     -2994.987       -2333.756
   -231679.000 9   -178684.43048  21118807.107    21118807.8074   21118814.7284
        66.507          51.824
    953640.718 9    705471.00048  20419570.556    20419571.3434   20419577.8334
     -1120.929        -873.451
  -1831851.086 9  -1419232.06647  22928993.056    22928994.1224   22929001.2404
      1206.837         940.392
  -2649032.879 9  -2054230.65448  21028639.039    21028639.9084   21028647.3324
      1955.006        1523.381
  -1092658.184 9   -843729.42747  23657019.198    23657019.6874   23657027.3794
       566.102         441.118
 97  5 14 15 46  0.0000000  0  6 19  2 27 26  7 15                   0.000280534
   3446596.449 9   2485610.36147  23296932.456    23296933.5774   23296941.0144
     -3003.326       -2340.254
   -233581.935 9   -180167.24248  21118445.049    21118445.6854   21118452.6024
        60.709          47.306
    987512.870 9    731864.86148  20426016.263    20426017.0444   20426023.5324
     -1136.864        -885.868
  -1867791.180 9  -1447237.35247  22922153.884    22922154.9294   22922162.0634
      1189.171         926.627
  -2707468.548 9  -2099764.91348  21017518.930    21017519.9374   21017527.3684
      1940.901        1512.390
  -1109365.164 9   -856747.86047  23653839.987    23653840.4764   23653848.1284
       547.893         426.930
 97  5 14 15 46 30.0000000  0  6 19  2 27 26  7 15                   0.000281111
   3536836.802 9   2555927.42246  23314104.445    23314105.7424   23314113.1344
     -3012.476       -2347.384
   -235306.040 9   -181510.70348  21118116.954    21118117.6314   21118124.5614
        54.212          42.243
   1021866.752 9    758634.09448  20432553.651    20432554.3914   20432560.8954
     -1153.460        -898.800
  -1903179.553 9  -1474812.72247  22915419.789    22915420.8084   22915427.9344
      1170.218         911.858
  -2765465.807 9  -2144957.55948  21006482.529    21006483.4434   21006490.8544
      1925.596        1500.464
  -1125514.934 9   -869332.09447  23650766.793    23650767.2914   23650774.9594
       528.826         412.072
 97  5 14 15 47  0.0000000  0  6 19  2 27 26  7 15                   0.000281719
   3627330.337 9   2626441.85246  23331324.962    23331326.0924   23331333.5294
     -3020.429       -2353.581
   -236849.471 9   -182713.37848  21117823.375    21117823.9484   21117830.8734
        48.515          37.804
   1056709.185 9    785784.01848  20439183.950    20439184.7284   20439191.2554
     -1169.415        -911.232
  -1938014.192 9  -1501956.60447  22908791.008    22908792.0504   22908799.1574
      1152.116         897.753
  -2823020.543 9  -2189805.37848  20995530.199    20995531.1274   20995538.5364
      1911.186        1489.236
  -1141105.677 9   -881480.72347  23647799.949    23647800.4604   23647808.1734
       510.380         397.699
 97  5 14 15 47 30.0000000  0  6 19  2 27 26  7 15                   0.000282346
   3718057.797 9   2697138.45147  23348589.774    23348591.1044   23348598.6324
     -3028.027       -2359.502
   -238224.761 9   -183785.03648  21117561.611    21117562.1964   21117569.1814
        42.917          33.442
   1092026.079 9    813303.64748  20445904.545    20445905.3444   20445911.8634
     -1185.183        -923.519
  -1972310.569 9  -1528681.07247  22902264.579    22902265.6944   22902272.7974
      1134.148         883.752
  -2880143.189 9  -2234316.50548  20984660.084    20984661.0334   20984668.4164
      1896.720        1477.964
  -1156144.834 9   -893199.55147  23644938.074    23644938.5774   23644946.2844
       492.100         383.454
 97  5 14 15 48  0.0000000  0  6 19  2 27 26  7 15                   0.000282999
   3809020.516 9   2768018.55846  23365899.702    23365900.8394   23365908.0794
     -3036.373       -2366.005
   -239413.055 9   -184710.98648  21117335.493    21117336.0884   21117343.0644
        36.035          28.079
   1127820.718 9    841195.54948  20452716.051    20452716.8594   20452723.3784
     -1201.329        -936.101
  -2006055.441 9  -1554975.78947  22895843.218    22895844.2924   22895851.3804
      1115.382         869.129
  -2936812.575 9  -2278474.44548  20973876.209    20973877.2064   20973884.5844
      1880.939        1465.667
  -1170622.759 9   -904481.04747  23642183.008    23642183.4954   23642191.2184
       472.894         368.489
 97  5 14 15 48 30.0000000  0  6 19  2 27 26  7 15                   0.000283671
   3900230.325 9   2839090.95747  23383256.045    23383257.4504   23383265.0914
     -3044.303       -2372.184
   -240402.639 9   -185482.09748  21117147.162    21117147.8054   21117154.7674
        29.702          23.144
   1164088.948 9    869456.48048  20459617.726    20459618.5304   20459625.0234
     -1216.916        -948.246
  -2039261.161 9  -1580850.39347  22889524.391    22889525.4924   22889532.5704
      1098.239         855.771
  -2993012.235 9  -2322266.36448  20963181.825    20963182.7964   20963190.1524
      1865.578        1453.697
  -1184538.213 9   -915324.25747  23639535.003    23639535.5184   23639543.1474
       454.596         354.231
 97  5 14 15 49  0.0000000  0  6 19  2 27 26  7 15                   0.000284357
   3991694.211 9   2910361.52546  23400661.444    23400662.6334   23400669.9584
     -3052.982       -2378.947
   -241183.960 9   -186090.92748  21116998.553    21116999.1534   21117006.1214
        22.718          17.702
   1200844.626 9    898097.24348  20466612.127    20466612.9174   20466619.4204
     -1233.120        -960.873
  -2071935.067 9  -1606310.58747  22883306.574    22883307.8774   22883314.9214
      1080.272         841.770
  -3048743.600 9  -2365693.37748  20952576.553    20952577.4744   20952584.8374
      1850.083        1441.623
  -1197886.141 9   -925725.24347  23636994.954    23636995.4904   23637003.1434
       435.554         339.393
 97  5 14 15 49 30.0000000  0  6 19  2 27 26  7 15                   0.000285063
   4083420.587 9   2981836.55947  23418116.138    23418117.4734   23418124.9724
     -3062.321       -2386.224
   -241757.098 9   -186537.53548  21116889.426    21116890.1004   21116897.0724
        15.182          11.830
   1238078.697 9    927110.77848  20473697.549    20473698.3584   20473704.8654
     -1249.711        -973.801
  -2104069.306 9  -1631350.26647  22877191.492    22877192.9534   22877199.9574
      1061.563         827.192
  -3104013.862 9  -2408761.09048  20942059.021    20942059.8914   20942067.2374
      1834.247        1429.283
  -1210665.600 9   -935683.25847  23634563.100    23634563.6204   23634571.2924
       416.028         324.178
 97  5 14 15 50  0.0000000  0  6 19  2 27 26  7 15                   0.000285792
   4175408.748 9   3053515.57246  23435621.158    23435622.3524   23435630.0084
     -3070.576       -2392.657
   -242123.915 9   -186823.37548  21116819.714    21116820.3224   21116827.2884
         9.109           7.098
   1275805.383 9    956508.17348  20480876.727    20480877.5144   20480884.0424
     -1265.943        -986.449
  -2135654.180 9  -1655961.86847  22871181.143    22871182.5464   22871189.5264
      1043.814         813.362
  -3158826.524 9  -2451472.23548  20931628.488    20931629.4124   20931636.7564
      1819.590        1417.862
  -1222874.168 9   -945196.43247  23632239.946    23632240.3874   23632248.0774
       397.473         309.719
 97  5 14 15 50 30.0000000  0  6 19  2 27 26  7 15                   0.000286540
   4267659.408 9   3125399.18147  23453175.699    23453177.1314   23453184.4854
     -3079.360       -2399.501
   -242297.959 9   -186959.00248  21116786.540    21116787.2134   21116794.2154
         2.506           1.953
   1314048.546 9    986308.01548  20488154.139    20488154.9644   20488161.4904
     -1283.481       -1000.115
  -2166689.121 9  -1680144.95948  22865275.284    22865276.8324   22865283.7884
      1025.245         798.892
  -3213182.874 9  -2493827.81148  20921284.716    20921285.7244   20921293.0734
      1804.163        1405.841
  -1234507.533 9   -954261.38947  23630026.155    23630026.6324   23630034.3334
       378.042         294.578
 97  5 14 15 51  0.0000000  0  6 19  2 27 26  7 15                   0.000287300
   4360149.429 9   3197469.26846  23470776.275    23470777.4924   23470785.0804
     -3087.294       -2405.684
   -242285.719 9   -186949.47048  21116788.796    21116789.5484   21116796.5644
        -4.006          -3.122
   1352799.942 9   1016503.88348  20495528.274    20495529.1104   20495535.6744
     -1300.568       -1013.430
  -2197180.683 9  -1703904.63548  22859473.087    22859474.5374   22859481.4644
      1006.924         784.616
  -3267089.410 9  -2535832.88848  20911026.715    20911027.6604   20911034.9804
      1788.776        1393.851
  -1245569.451 9   -962881.05947  23627921.072    23627921.6244   23627929.3634
       358.727         279.528
 97  5 14 15 51 30.0000000  0  6 19  2 27 26  7 15                   0.000288070
   4452882.923 9   3269729.02946  23488422.587    23488424.0374   23488431.6074
     -3094.729       -2411.477
   -242063.247 9   -186776.12348  21116831.278    21116831.8944   21116838.9214
       -10.566          -8.233
   1392077.668 9   1047109.88048  20503002.584    20503003.4414   20503010.0154
     -1317.713       -1026.789
  -2227118.505 9  -1727232.83048  22853776.273    22853777.6084   22853784.5014
       989.197         770.803
  -3320510.005 9  -2577459.31048  20900861.128    20900862.0024   20900869.3434
      1772.817        1381.416
  -1256039.910 9   -971039.87747  23625928.643    23625929.1974   23625936.9004
       339.494         264.541
 97  5 14 15 52  0.0000000  0  6 19  2 27 26  7 15                   0.000288842
   4545839.796 9   3342163.00546  23506112.165    23506113.3894   23506120.7324
     -3102.752       -2417.729
   -241651.526 9   -186455.30948  21116909.597    21116910.2314   21116917.2514
       -17.175         -13.383
   1431863.164 9   1078111.54648  20510573.543    20510574.3764   20510580.9844
     -1334.755       -1040.069
  -2256526.051 9  -1750147.81248  22848180.210    22848181.5754   22848188.4514
       971.039         756.654
  -3373442.947 9  -2618705.73748  20890788.240    20890789.1904   20890796.5264
      1755.757        1368.122
  -1265934.124 9   -978749.65247  23624045.765    23624046.4194   23624054.0834
       319.862         249.243
 97  5 14 15 52 30.0000000  0  6 19  2 27 26  7 15                   0.000289632
   4639044.462 9   3414789.84647  23523848.225    23523849.5184   23523857.2254
     -3111.416       -2424.480
   -241036.274 9   -185975.90048  21117026.645    21117027.3404   21117034.3524
       -24.405         -19.017
   1472152.668 9   1109505.94248  20518240.403    20518241.2224   20518247.8494
     -1351.623       -1053.213
  -2285388.559 9  -1772638.09848  22842687.765    22842689.2014   22842696.0934
       952.747         742.400
  -3425863.646 9  -2659553.01648  20880812.787    20880813.8584   20880821.2074
      1738.418        1354.611
  -1275234.167 9   -985996.43947  23622276.098    23622276.7434   23622284.3654
       299.661         233.502
 97  5 14 15 53  0.0000000  0  6 19  2 27 26  7 15                   0.000290437
   4732494.356 9   3487607.95446  23541631.327    23541632.6344   23541640.0674
     -3118.852       -2430.274
   -240218.483 9   -185338.66648  21117182.328    21117182.9864   21117189.9774
       -30.383         -23.675
   1512931.308 9   1141281.48748  20526000.403    20526001.2024   20526007.8114
     -1367.330       -1065.452
  -2313719.220 9  -1794713.96448  22837296.658    22837298.0564   22837304.9694
       935.510         728.969
  -3477776.732 9  -2700004.75248  20870933.989    20870935.1134   20870942.4514
      1722.151        1341.936
  -1283942.849 9   -992782.44247  23620618.913    23620619.5424   23620627.1914
       280.584         218.637
 97  5 14 15 53 30.0000000  0  6 19  2 27 26  7 15                   0.000291264
   4826195.025 9   3560621.38546  23559461.826    23559463.1064   23559470.6804
     -3128.058       -2437.448
   -239209.404 9   -184552.37748  21117374.322    21117375.0354   21117382.0004
       -36.970         -28.808
   1554200.337 9   1173439.15348  20533853.663    20533854.4664   20533861.0484
     -1384.075       -1078.500
  -2341510.018 9  -1816369.15048  22832008.321    22832009.6824   22832016.5854
       916.993         714.540
  -3529183.269 9  -2740061.77448  20861151.795    20861152.7814   20861160.1254
      1704.935        1328.521
  -1292061.706 9   -999108.83347  23619073.976    23619074.5834   23619082.2064
       260.466         202.960
 97  5 14 15 54  0.0000000  0  6 19  2 27 26  7 15                   0.000292130
   4920163.883 9   3633843.81347  23577343.651    23577344.9744   23577352.6114
     -3136.716       -2444.194
   -238020.400 9   -183625.89248  21117600.665    21117601.3304   21117608.2524
       -42.608         -33.201
   1595960.048 9   1205979.17148  20541800.263    20541801.1184   20541807.6834
     -1400.291       -1091.136
  -2368752.391 9  -1837596.99548  22826824.315    22826825.6554   22826832.5494
       898.794         700.359
  -3580091.874 9  -2779730.79748  20851464.299    20851465.1894   20851472.5494
      1688.844        1315.982
  -1299585.697 9  -1004971.69447  23617642.218    23617642.8434   23617650.4594
       240.903         187.717
 97  5 14 15 54 30.0000000  0  6 19  2 27 26  7 15                   0.000293035
   5014405.009 9   3707278.37646  23595277.233    23595278.3594   23595286.0564
     -3145.769       -2451.249
   -236642.812 9   -182552.45348  21117862.820    21117863.4954   21117870.3954
       -49.120         -38.275
   1638232.741 9   1238918.91548  20549844.536    20549845.3704   20549851.9374
     -1417.824       -1104.798
  -2395431.115 9  -1858385.63048  22821747.595    22821748.8954   22821755.7434
       880.072         685.770
  -3630516.023 9  -2819022.32348  20841868.906    20841869.7984   20841877.1594
      1672.837        1303.509
  -1306506.468 9  -1010364.53047  23616325.247    23616325.8824   23616333.4974
       220.650         171.935
 97  5 14 15 55  0.0000000  0  6 19  2 27 26  7 15                   0.000293968
   5108913.483 9   3780921.37947  23613261.465    23613262.7254   23613270.3344
     -3154.704       -2458.211
   -235067.075 9   -181324.61148  21118162.729    21118163.3614   21118170.2244
       -56.020         -43.652
   1681035.788 9   1272271.92148  20557989.715    20557990.5424   20557997.1124
     -1435.729       -1118.750
  -2421548.350 9  -1878736.74448  22816777.652    22816778.9724   22816785.8354
       860.934         670.858
  -3680460.911 9  -2857940.39748  20832364.677    20832365.5934   20832372.9954
      1656.786        1291.002
  -1312823.464 9  -1015286.88347  23615123.290    23615123.8214   23615131.4334
       200.441         156.188
 97  5 14 15 55 30.0000000  0  6 19  2 27 26  7 15                   0.000294932
   5203687.735 9   3854771.35346  23631296.607    23631297.7744   23631305.6604
     -3163.724       -2465.239
   -233292.351 9   -179941.71548  21118500.490    21118501.1054   21118507.9444
       -62.672         -48.835
   1724372.229 9   1306040.55948  20566236.413    20566237.2314   20566243.7954
     -1453.677       -1132.735
  -2447093.410 9  -1898642.00348  22811916.420    22811917.9034   22811924.8074
       841.802         655.950
  -3729935.170 9  -2896491.74348  20822949.967    20822950.9474   20822958.3484
      1641.327        1278.956
  -1318541.381 9  -1019742.42647  23614035.259    23614035.7764   23614043.4024
       180.429         140.594
 97  5 14 15 56  0.0000000  0  6 19  2 27 26  7 15                   0.000295927
   5298731.517 9   3928831.35446  23649382.608    23649383.9854   23649391.8864
     -3172.331       -2471.946
   -231298.014 9   -178387.69348  21118880.109    21118880.6114   21118887.4454
       -70.285         -54.768
   1768257.825 9   1340237.11248  20574587.597    20574588.4114   20574594.9774
     -1472.029       -1147.035
  -2472052.387 9  -1918090.57748  22807166.927    22807168.3754   22807175.2954
       822.198         640.674
  -3778947.402 9  -2934683.07048  20813623.129    20813624.1944   20813631.6044
      1626.103        1267.093
  -1323650.814 9  -1023723.82447  23613062.971    23613063.4564   23613071.0744
       160.198         124.830
 97  5 14 15 56 30.0000000  0  6 19  2 27 26  7 15                   0.000296939
   5394016.419 9   4003079.39146  23667515.075    23667516.2814   23667524.0254
     -3180.368       -2478.209
   -229081.254 9   -176660.35448  21119302.007    21119302.4584   21119309.2804
       -77.786         -60.612
   1812682.015 9   1374853.35048  20583041.247    20583042.0914   20583048.6454
     -1489.872       -1160.939
  -2496431.062 9  -1937086.96248  22802527.924    22802529.3264   22802536.2184
       802.806         625.563
  -3827507.426 9  -2972522.02848  20804382.489    20804383.5234   20804390.9424
      1610.652        1255.053
  -1328165.309 9  -1027241.63247  23612203.909    23612204.3474   23612211.9684
       140.274         109.304
 97  5 14 15 57  0.0000000  0  6 19  2 27 26  7 15                   0.000297986
   5489560.609 9   4077529.22046  23685696.396    23685697.5924   23685705.7354
     -3188.685       -2484.690
   -226625.397 9   -174746.70148  21119769.264    21119769.8404   21119776.6364
       -85.230         -66.413
   1857649.589 9   1409893.00848  20591598.286    20591599.1574   20591605.7004
     -1507.343       -1174.553
  -2520208.468 9  -1955614.83348  22798003.403    22798004.6874   22798011.5634
       782.752         609.937
  -3875579.736 9  -3009980.94448  20795234.639    20795235.6414   20795243.0594
      1594.562        1242.516
  -1332062.809 9  -1030278.66647  23611462.184    23611462.6684   23611470.3554
       120.005          93.510
 97  5 14 15 57 30.0000000  0  6 19  2 27 26  7 15                   0.000299077
   5585346.232 9   4152167.39446  23703924.044    23703925.2664   23703932.9454
     -3196.951       -2491.131
   -223957.065 9   -172667.48748  21120277.058    21120277.6104   21120284.4074
       -92.751         -72.273
   1903133.880 9   1445335.30648  20600253.682    20600254.5474   20600261.0674
     -1524.944       -1188.268
  -2543382.375 9  -1973672.43348  22793593.676    22793594.8844   22793601.7644
       762.311         594.009
  -3923159.439 9  -3047056.01748  20786180.542    20786181.4804   20786188.8804
      1577.404        1229.146
  -1335351.028 9  -1032840.93347  23610836.439    23610836.9554   23610844.6774
        99.123          77.239
 97  5 14 15 58  0.0000000  0  6 19  2 27 26  7 15                   0.000300205
   5681359.502 8   4226982.87146  23722194.787    23722195.8974   23722203.7904
     -3204.136       -2496.729
   -221071.604 9   -170419.07648  21120826.116    21120826.7274   21120833.5044
       -99.611         -77.619
   1949125.176 9   1481172.67848  20609005.517    20609006.4154   20609012.9234
     -1541.284       -1201.001
  -2565960.629 9  -1991265.88248  22789297.431    22789298.3834   22789305.2954
       742.913         578.893
  -3970227.914 9  -3083732.72648  20777223.831    20777224.6624   20777232.0534
      1560.183        1215.727
  -1338024.873 9  -1034924.46847  23610327.551    23610328.1124   23610335.8664
        78.997          61.556
 97  5 14 15 58 30.0000000  0  6 19  2 27 26  7 15                   0.000301367
   5777598.817 9   4301974.43947  23740508.558    23740509.7894   23740517.7624
     -3211.954       -2502.821
   -217981.123 9   -168010.91648  21121414.353    21121414.8694   21121421.6184
      -106.439         -82.939
   1995607.421 9   1517392.60048  20617850.845    20617851.7274   20617858.2174
     -1557.511       -1213.645
  -2587956.718 9  -2008405.70448  22785111.765    22785112.6844   22785119.6084
       723.460         563.735
  -4016759.879 9  -3119991.37748  20768368.976    20768369.9184   20768377.2844
      1542.056        1201.602
  -1340086.933 9  -1036531.28947  23609935.185    23609935.7264   23609943.4854
        58.419          45.521
 97  5 14 15 59  0.0000000  0  6 19  2 27 26  7 15                   0.000302568
   5874075.940 9   4377151.38046  23758867.727    23758868.8814   23758876.6394
     -3219.689       -2508.849
   -214682.683 9   -165440.70948  21122041.985    21122042.5844   21122049.3114
      -113.300         -88.286
   2042573.285 9   1553989.36948  20626788.223    20626789.0694   20626795.5614
     -1573.431       -1226.050
  -2609372.442 9  -2025093.28048  22781036.499    22781037.4594   22781044.3454
       704.479         548.945
  -4062759.015 9  -3155834.83748  20759615.503    20759616.5664   20759623.9294
      1524.793        1188.150
  -1341535.417 9  -1037659.99547  23609659.560    23609660.1674   23609667.8564
        38.350          29.883
 97  5 14 15 59 30.0000000  0  6 19  2 27 26  7 15                   0.000303784
   5970782.009 9   4452506.74946  23777270.359    23777271.4884   23777279.0254
     -3227.587       -2515.003
   -211177.742 9   -162709.59248  21122708.941    21122709.5804   21122716.2804
      -120.733         -94.078
   2090016.232 9   1590957.89548  20635816.366    20635817.1884   20635823.6774
     -1589.649       -1238.688
  -2630235.030 9  -2041349.82348  22777066.454    22777067.4594   22777074.3494
       686.262         534.750
  -4108248.584 9  -3191281.23448  20750959.116    20750960.1934   20750967.5374
      1507.898        1174.985
  -1342386.891 9  -1038323.49547  23609497.615    23609498.1634   23609505.8684
        18.247          14.218
 97  5 14 16  0  0.0000000  0  6 19  2 27 26  7 15                   0.000305012
   6067740.303 9   4528058.56546  23795720.963    23795722.0374   23795729.7384
     -3236.524       -2521.967
   -207434.508 9   -159792.79148  21123421.254    21123421.9094   21123428.5924
      -128.777        -100.346
   2137953.959 9   1628311.96348  20644938.643    20644939.4794   20644945.9474
     -1606.286       -1251.651
  -2650543.844 9  -2057174.86648  22773201.741    22773202.7814   22773209.6944
       667.590         520.200
  -4153235.329 9  -3226335.81948  20742398.386    20742399.5134   20742406.8254
      1491.152        1161.937
  -1342627.129 9  -1038510.70847  23609451.920    23609452.4744   23609460.1414
        -2.284          -1.780
 97  5 14 16  0 30.0000000  0  6 19  2 27 26  7 15                   0.000306261
   6164968.277 9   4603820.56546  23814222.815    23814223.9594   23814231.6164
     -3245.347       -2528.842
   -203452.408 9   -156689.85848  21124179.018    21124179.7004   21124186.3734
      -136.526        -106.384
   2186386.840 9   1666051.86248  20654155.117    20654155.9624   20654162.4304
     -1622.601       -1264.364
  -2670294.190 9  -2072564.73148  22769443.294    22769444.4384   22769451.3444
       649.104         505.795
  -4197732.780 9  -3261009.13948  20733930.838    20733931.9144   20733939.2334
      1475.528        1149.762
  -1342255.803 9  -1038221.37347  23609522.564    23609523.1784   23609530.8644
       -22.411         -17.463
 97  5 14 16  1  0.0000000  0  6 19  2 27 26  7 15                   0.000307531
   6262466.054 9   4679792.86146  23832775.949    23832777.1624   23832784.6704
     -3254.013       -2535.595
   -199238.232 9   -153406.09048  21124980.967    21124981.6394   21124988.3094
      -143.827        -112.073
   2235320.626 9   1704182.07348  20663466.900    20663467.7704   20663474.2364
     -1639.334       -1277.403
  -2689488.533 9  -2087521.38848  22765790.597    22765791.8834   22765798.7944
       630.964         491.660
  -4241760.301 9  -3295316.27748  20725552.588    20725553.7364   20725561.0424
      1459.905        1137.588
  -1341277.580 9  -1037459.13247  23609708.739    23609709.2974   23609717.0124
       -42.456         -33.083
 97  5 14 16  1 30.0000000  0  6 19  2 27 26  7 15                   0.000308813
   6360214.023 9   4755960.05446  23851376.938    23851378.1264   23851385.6844
     -3262.531       -2542.232
   -194821.780 9   -149964.69848  21125821.510    21125822.0744   21125828.7464
      -150.774        -117.486
   2284752.492 9   1742700.40248  20672873.493    20672874.3574   20672880.8264
     -1656.371       -1290.679
  -2708144.409 9  -2102058.47248  22762240.586    22762241.7634   22762248.6804
       612.423         477.213
  -4285314.092 9  -3329254.27748  20717264.595    20717265.7424   20717273.0254
      1443.478        1124.788
  -1339701.708 9  -1036231.18447  23610008.501    23610009.1274   23610016.8674
       -62.822         -48.952
 97  5 14 16  2  0.0000000  0  6 19  2 27 26  7 15                   0.000310118
   6458200.135 9   4832312.76446  23870023.071    23870024.2734   23870031.9724
     -3270.158       -2548.175
   -190212.815 9   -146373.29648  21126698.432    21126699.1394   21126705.7924
      -156.559        -121.994
   2334696.709 9   1781617.95848  20682377.548    20682378.4254   20682384.9224
     -1673.550       -1304.065
  -2726239.203 9  -2116158.33348  22758797.028    22758798.4564   22758805.3644
       593.648         462.583
  -4328375.474 9  -3362808.57848  20709070.271    20709071.4384   20709078.7174
      1426.896        1111.867
  -1337519.907 9  -1034531.07847  23610423.694    23610424.3484   23610432.0824
       -82.863         -64.569
 97  5 14 16  2 30.0000000  0  6 19  2 27 26  7 15                   0.000311447
   6556408.315 9   4908838.56546  23888711.498    23888712.7014   23888720.2884
     -3277.153       -2553.626
   -185447.865 9   -142660.35148  21127605.124    21127605.8884   21127612.5314
      -161.360        -125.735
   2385151.623 9   1820933.46748  20691978.806    20691979.6854   20691986.2044
     -1690.494       -1317.268
  -2743777.683 9  -2129824.71148  22755459.769    22755461.0474   22755467.9374
       575.271         448.263
  -4370940.427 9  -3395976.06048  20700970.436    20700971.5864   20700978.8874
      1410.473        1099.070
  -1334747.078 9  -1032370.44547  23610951.343    23610952.0064   23610959.8074
      -102.358         -79.759
 97  5 14 16  3  0.0000000  0  6 19  2 27 26  7 15                   0.000312799
   6654826.785 9   4985528.30346  23907440.039    23907441.4094   23907448.7454
     -3283.265       -2558.388
   -180528.255 9   -138826.88748  21128541.429    21128542.0644   21128548.7144
      -165.947        -129.309
   2436133.748 9   1860659.78548  20701680.402    20701681.2624   20701687.7954
     -1707.541       -1330.551
  -2760753.697 9  -2143052.78848  22752229.692    22752230.6734   22752237.5544
       557.180         434.166
  -4412997.127 9  -3428747.49648  20692967.338    20692968.4734   20692975.7734
      1394.070        1086.288
  -1331375.746 9  -1029743.43247  23611592.920    23611593.5894   23611601.3884
      -121.738         -94.861
 97  5 14 16  3 30.0000000  0  6 19  2 27 26  7 15                   0.000314166
   6753433.259 8   5062364.44946  23926204.286    23926205.5944   23926213.0894
     -3290.058       -2563.682
   -175459.979 9   -134877.58448  21129505.895    21129506.5394   21129513.1634
      -171.678        -133.775
   2487626.592 9   1900784.06348  20711479.143    20711480.0234   20711486.5614
     -1724.831       -1344.024
  -2777168.976 9  -2155843.93148  22749105.908    22749106.9454   22749113.8664
       537.613         418.919
  -4454562.113 9  -3461135.78048  20685057.768    20685058.8824   20685066.2024
      1377.419        1073.313
  -1327414.026 9  -1026656.38647  23612346.863    23612347.4724   23612355.2874
      -141.950        -110.610
 97  5 14 16  4  0.0000000  0  6 19  2 27 26  7 15                   0.000315559
   6852236.765 9   5139354.09446  23945005.933    23945007.3164   23945014.8244
     -3297.632       -2569.583
   -170229.108 9   -130801.58548  21130501.248    21130501.9184   21130508.5524
      -177.605        -138.394
   2539619.625 9   1941298.10048  20721373.092    20721373.9764   20721380.5314
     -1741.888       -1357.315
  -2793009.186 9  -2168186.95848  22746091.227    22746092.6744   22746099.6084
       517.818         403.495
  -4495648.115 9  -3493150.83448  20677239.434    20677240.4284   20677247.7614
      1361.065        1060.570
  -1322861.177 9  -1023108.71647  23613213.249    23613213.8774   23613221.6514
      -162.189        -126.381
 97  5 14 16  4 30.0000000  0  6 19  2 27 26  7 15                   0.000316996
   6951268.668 9   5216521.85746  23963851.272    23963852.6504   23963860.0084
     -3304.668       -2575.066
   -164818.622 9   -126585.62848  21131530.800    21131531.5214   21131538.1394
      -183.661        -143.112
   2592106.011 9   1982196.56748  20731360.880    20731361.7974   20731368.3924
     -1757.594       -1369.554
  -2808261.467 9  -2180071.85548  22743188.892    22743190.2584   22743197.2294
       498.673         388.576
  -4536254.861 9  -3524792.43748  20669512.192    20669513.2124   20669520.5654
      1345.698        1048.596
  -1317707.133 9  -1019092.58147  23614194.063    23614194.6914   23614202.4564
      -181.887        -141.730
 97  5 14 16  5  0.0000000  0  6 19  2 27 26  7 15                   0.000318459
   7050505.718 8   5293849.36146  23982735.377    23982736.6964   23982744.2404
     -3311.315       -2580.245
   -159213.821 9   -122218.25948  21132597.494    21132598.0954   21132604.7214
      -190.160        -148.177
   2645061.350 9   2023460.44948  20741437.948    20741438.8544   20741445.4724
     -1772.938       -1381.510
  -2822938.547 9  -2191508.55548  22740396.126    22740397.3214   22740404.2984
       479.662         373.763
  -4576403.196 9  -3556076.84048  20661872.136    20661873.2454   20661880.6104
      1330.583        1036.818
  -1311958.428 9  -1014613.07947  23615287.942    23615288.6034   23615296.4214
      -201.497        -157.011
 97  5 14 16  5 30.0000000  0  6 19  2 27 26  7 15                   0.000319946
   7149949.893 9   5371338.25846  24001658.974    24001660.3254   24001667.8674
     -3318.476       -2585.825
   -153408.374 9   -117694.53948  21133702.187    21133702.8384   21133709.4594
      -197.180        -153.647
   2698473.128 9   2065079.99648  20751601.899    20751602.7724   20751609.4044
     -1788.205       -1393.406
  -2837040.472 9  -2202497.09148  22737712.604    22737713.8364   22737720.7844
       460.315         358.687
  -4616088.196 9  -3587000.20348  20654320.338    20654321.4414   20654328.8094
      1314.655        1024.406
  -1305617.097 9  -1009671.79747  23616494.713    23616495.3744   23616503.1654
      -221.524        -172.616
 97  5 14 16  6  0.0000000  0  6 19  2 27 26  7 15                   0.000321448
   7249597.776 9   5448985.97146  24020621.563    24020622.9084   24020630.2904
     -3325.024       -2590.928
   -147399.131 9   -113012.02348  21134845.588    21134846.3604   21134852.9714
      -203.683        -158.714
   2752342.049 9   2107055.75748  20761852.833    20761853.7224   20761860.3524
     -1803.358       -1405.214
  -2850580.848 9  -2213048.05348  22735136.054    22735137.2004   22735144.1564
       442.271         344.627
  -4655294.185 9  -3617550.30948  20646859.629    20646860.7564   20646868.1194
      1298.797        1012.050
  -1298681.944 9  -1004267.78847  23617814.426    23617815.1174   23617822.8824
      -241.075        -187.851
 97  5 14 16  6 30.0000000  0  6 19  2 27 26  7 15                   0.000322948
   7349445.668 8   5526789.45046  24039622.028    24039623.3144   24039630.7764
     -3331.078       -2595.645
   -141177.765 9   -108164.21548  21136029.600    21136030.2514   21136036.8624
      -210.789        -164.251
   2806679.962 9   2149396.96548  20772192.981    20772193.8854   20772200.5234
     -1818.865       -1417.297
  -2863574.982 9  -2223173.35948  22732663.032    22732664.5134   22732671.4894
       424.514         330.790
  -4694012.367 9  -3647720.30748  20639491.800    20639492.9284   20639500.3024
      1282.733         999.532
  -1291147.628 9   -998396.90747  23619248.231    23619248.8594   23619256.5914
      -260.887        -203.288
 97  5 14 16  7  0.0000000  0  6 19  2 27 26  7 15                   0.000324425
   7449470.967 9   5604731.21346  24058656.130    24058657.5204   24058664.7894
     -3337.105       -2600.341
   -134745.210 9   -103151.84848  21137253.683    21137254.3464   21137260.9354
      -217.553        -169.522
   2861487.784 9   2192104.33348  20782622.616    20782623.5054   20782630.1264
     -1834.754       -1429.678
  -2876045.863 9  -2232890.94648  22730289.948    22730291.4304   22730298.3974
       407.174         317.278
  -4732245.081 9  -3677512.01848  20632216.380    20632217.5034   20632224.8964
      1266.332         986.752
  -1283020.184 9   -992063.84047  23620794.841    23620795.4444   23620803.1774
      -280.632        -218.674
 97  5 14 16  7 30.0000000  0  6 19  2 27 26  7 15                   0.000325883
   7549682.071 9   5682817.83446  24077725.899    24077727.2074   24077734.3544
     -3343.561       -2605.372
   -128124.787 9    -97993.08448  21138513.490    21138514.2124   21138520.7674
      -223.704        -174.315
   2916767.739 9   2235179.60048  20793142.053    20793142.9444   20793149.5654
     -1850.644       -1442.060
  -2888004.633 9  -2242209.47548  22728014.539    22728015.7764   22728022.7604
       390.067         303.948
  -4769987.492 9  -3706921.67548  20625034.324    20625035.3644   20625042.7704
      1249.935         973.975
  -1274304.569 9   -985272.46647  23622453.397    23622453.9564   23622461.6804
      -300.380        -234.062
 97  5 14 16  8  0.0000000  0  6 19  2 27 26  7 15                   0.000327326
   7650088.324 8   5761056.40846  24096832.624    24096833.9074   24096841.1854
     -3350.120       -2610.483
   -121328.930 9    -92697.62248  21139806.792    21139807.4594   21139813.9794
      -229.238        -178.627
   2972531.244 9   2278631.65248  20803753.467    20803754.4054   20803761.0154
     -1866.932       -1454.752
  -2899453.674 9  -2251130.81848  22725835.877    22725837.1094   22725844.1044
       373.128         290.749
  -4807245.069 9  -3735953.53848  20617944.507    20617945.4884   20617952.8844
      1233.974         961.538
  -1264998.485 9   -978020.98047  23624224.292    23624224.9084   23624232.5944
      -319.962        -249.321
 97  5 14 16  8 30.0000000  0  6 19  2 27 26  7 15                   0.000328774
   7750703.124 9   5839457.40246  24115978.506    24115980.0654   24115987.6324
     -3356.949       -2615.804
   -114356.475 9    -87264.55348  21141133.720    21141134.2924   21141140.7944
      -235.085        -183.183
   3028795.151 9   2322473.63048  20814460.167    20814461.0954   20814467.7014
     -1883.565       -1467.713
  -2910368.470 9  -2259635.87048  22723758.972    22723760.1114   22723767.1074
       354.961         276.593
  -4844014.796 9  -3764605.25548  20610947.532    20610948.4324   20610955.8524
      1217.787         948.925
  -1255093.407 9   -970302.73947  23626109.201    23626109.7844   23626117.5154
      -339.918        -264.871
 97  5 14 16  9  0.0000000  0  6 19  2 27 26  7 15                   0.000330233
   7851512.710 9   5918010.43146  24135162.222    24135163.6305   24135170.7834
     -3363.501       -2620.910
   -107217.621 9    -81701.81848  21142492.207    21142492.7834   21142499.3014
      -240.456        -187.368
   3085557.446 9   2366703.96448  20825261.736    20825262.6344   20825269.2414
     -1900.342       -1480.786
  -2920738.840 9  -2267716.66948  22721785.600    22721786.6994   22721793.6864
       336.573         262.265
  -4880298.943 9  -3792878.60148  20604042.841    20604043.7804   20604051.1964
      1201.468         936.209
  -1244592.765 9   -962120.43147  23628107.423    23628108.0414   23628115.7094
      -359.761        -280.333
 97  5 14 16  9 30.0000000  0  6 19  2 27 26  7 15                   0.000331709
   7952511.008 9   5996710.41746  24154381.634    24154382.9704   24154390.3854
     -3369.949       -2625.934
    -99930.123 9    -76023.25648  21143878.962    21143879.5514   21143886.0864
      -245.801        -191.533
   3142819.223 9   2411323.50448  20836158.308    20836159.1974   20836165.8044
     -1917.362       -1494.048
  -2930556.941 9  -2275367.14148  22719917.212    22719918.4194   22719925.3904
       317.607         247.486
  -4916105.304 9  -3820779.64648  20597229.091    20597230.0744   20597237.4694
      1185.400         923.688
  -1233505.226 9   -953480.79247  23630217.380    23630217.9484   23630225.6274
      -379.650        -295.831
 97  5 14 16 10  0.0000000  0  6 19  2 27 26  7 15                   0.000333207
   8053694.390 9   6075554.39146  24173635.924    24173637.2804   24173645.1764
     -3376.015       -2630.661
    -92480.864 9    -70218.64748  21145296.465    21145297.1154   21145303.6504
      -251.381        -195.881
   3200586.177 9   2456336.68848  20847150.979    20847151.9094   20847158.5244
     -1934.056       -1507.057
  -2939805.519 9  -2282573.86048  22718157.277    22718158.4824   22718165.4764
       298.602         232.677
  -4951436.327 9  -3848310.30248  20590505.801    20590506.7984   20590514.2154
      1169.531         911.323
  -1221828.967 9   -944382.41747  23632439.249    23632439.8494   23632447.5734
      -399.213        -311.075
 97  5 14 16 10 30.0000000  0  6 19  2 27 26  7 15                   0.000334727
   8155065.139 9   6154544.55646  24192926.378    24192927.7554   24192935.4164
     -3381.983       -2635.311
    -84845.822 9    -64269.27148  21146749.222    21146749.9954   21146756.5434
      -257.618        -200.741
   3258853.519 9   2501739.78048  20858238.932    20858239.8444   20858246.4794
     -1950.258       -1519.682
  -2948478.779 9  -2289332.28848  22716506.787    22716507.9944   22716515.0084
       279.799         218.025
  -4986281.492 9  -3875462.36548  20583874.946    20583875.9974   20583883.4164
      1153.475         898.812
  -1209558.623 9   -934821.11547  23634774.271    23634774.8174   23634782.5514
      -418.822        -326.355
 97  5 14 16 11  0.0000000  0  6 19  2 27 26  7 15                   0.000336260
   8256627.967 9   6233684.51846  24212253.397    24212254.6134   24212262.0534
     -3389.009       -2640.786
    -77015.791 9    -58167.95248  21148239.213    21148239.9964   21148246.5624
      -264.350        -205.987
   3317614.087 9   2547527.20548  20869420.730    20869421.6404   20869428.2934
     -1967.078       -1532.788
  -2956585.550 9  -2295649.29448  22714963.981    22714965.3084   22714972.3324
       260.519         203.002
  -5020632.643 9  -3902229.48148  20577338.107    20577339.1794   20577346.5914
      1136.628         885.684
  -1196691.076 9   -924794.47047  23637222.863    23637223.4004   23637231.2304
      -439.080        -342.140
 97  5 14 16 11 30.0000000  0  6 19  2 27 26  7 15                   0.000337809
   8358391.575 8   6312980.74545  24231618.242    24231619.2814   24231627.0704
     -3394.938       -2645.406
    -68999.989 9    -51921.87848  21149764.557    21149765.3244   21149771.8964
      -269.942        -210.344
   3376854.192 9   2593688.29248  20880693.740    20880694.6904   20880701.3444
     -1981.918       -1544.352
  -2964134.296 9  -2301531.46948  22713527.444    22713528.8414   22713535.8844
       243.033         189.376
  -5054499.600 9  -3928619.30448  20570893.333    20570894.5144   20570901.9134
      1121.411         873.827
  -1183232.775 9   -914307.48647  23639783.872    23639784.4604   23639792.2114
      -457.982        -356.869
 97  5 14 16 12  0.0000000  0  6 19  2 27 26  7 15                   0.000339364
   8460355.625 9   6392433.13846  24251021.148    24251022.3874   24251030.3514
     -3402.332       -2651.168
    -60784.622 9    -45520.29848  21151327.902    21151328.6724   21151335.2674
      -277.432        -216.181
   3436558.285 9   2640210.93448  20892055.134    20892056.0234   20892062.7134
     -1998.195       -1557.035
  -2971140.926 9  -2306991.19648  22712194.356    22712195.5404   22712202.6484
       224.370         174.834
  -5087887.123 9  -3954635.54148  20564539.820    20564541.0494   20564548.4094
      1104.621         860.744
  -1169182.920 9   -903359.56147  23642457.489    23642458.1184   23642465.7894
      -478.532        -372.882
 97  5 14 16 12 30.0000000  0  6 19  2 27 26  7 15                   0.000340914
   8562502.547 9   6472028.10446  24270459.302    24270460.4174   24270468.3444
     -3408.107       -2655.668
    -52379.115 9    -38970.56048  21152927.420    21152928.1894   21152934.8004
      -283.472        -220.887
   3496721.817 9   2687091.58148  20903503.875    20903504.7934   20903511.4854
     -2013.393       -1568.878
  -2977617.624 9  -2312037.99248  22710961.886    22710963.0604   22710970.2214
       206.604         160.990
  -5120802.497 9  -3980283.87048  20558276.274    20558277.4264   20558284.7954
      1088.993         848.566
  -1154546.260 9   -891954.38147  23645242.806    23645243.3984   23645251.0774
      -498.038        -388.082
 97  5 14 16 13  0.0000000  0  6 19  2 27 26  7 15                   0.000342478
   8664827.241 8   6551761.64045  24289931.178    24289932.2944   24289940.0124
     -3413.564       -2659.920
    -43795.660 9    -32282.16148  21154560.737    21154561.5754   21154568.1874
      -288.820        -225.055
   3557350.055 9   2734334.32848  20915041.050    20915041.9874   20915048.6864
     -2028.677       -1580.787
  -2983543.483 9  -2316655.55848  22709834.213    22709835.4524   22709842.6374
       188.326         146.748
  -5153247.921 9  -4005566.01148  20552102.177    20552103.2464   20552110.6054
      1073.868         836.780
  -1139314.248 9   -880085.29047  23648141.413    23648141.9764   23648149.6444
      -517.509        -403.254
 97  5 14 16 13 30.0000000  0  6 19  2 27 26  7 15                   0.000344050
   8767309.938 8   6631618.22945  24309432.672    24309433.9824   24309441.6804
     -3418.355       -2663.653
    -35048.972 9    -25466.56648  21156225.242    21156226.0234   21156232.6414
      -294.117        -229.182
   3618440.118 9   2781936.94348  20926666.109    20926667.0394   20926673.7664
     -2044.008       -1592.734
  -2988921.065 9  -2320845.89148  22708811.004    22708812.1794   22708819.3734
       170.289         132.693
  -5185232.615 9  -4030489.13648  20546015.697    20546016.7134   20546024.0814
      1058.427         824.748
  -1123497.642 9   -867760.68246  23651151.183    23651151.7924   23651159.4524
      -536.871        -418.341
 97  5 14 16 14  0.0000000  0  6 19  2 27 26  7 15                   0.000345637
   8869944.470 9   6711593.13746  24328963.540    24328964.8694   24328972.5574
     -3423.402       -2667.586
    -26142.410 9    -18526.39348  21157920.143    21157920.9484   21157927.5114
      -299.098        -233.063
   3680005.609 9   2829910.02448  20938381.642    20938382.6074   20938389.3144
     -2059.826       -1605.059
  -2993738.792 9  -2324599.98748  22707894.291    22707895.4424   22707902.6364
       151.248         117.856
  -5216734.355 9  -4055035.93748  20540021.184    20540022.1564   20540029.4934
      1042.113         812.036
  -1107089.359 9   -854975.01146  23654273.531    23654274.1944   23654281.8704
      -556.581        -433.699
 97  5 14 16 14 30.0000000  0  6 19  2 27 26  7 15                   0.000347251
   8972734.542 9   6791689.25246  24348524.027    24348525.3224   24348533.0124
     -3429.128       -2672.048
    -17096.218 9    -11477.42248  21159641.661    21159642.4224   21159648.9604
      -303.809        -236.734
   3742035.515 9   2878244.98448  20950185.592    20950186.5384   20950193.2404
     -2075.237       -1617.068
  -2997980.721 9  -2327905.40848  22707086.865    22707088.2254   22707095.4154
       131.886         102.768
  -5247738.940 9  -4079195.34248  20534121.143    20534122.2114   20534129.5194
      1025.057         798.746
  -1090090.557 9   -841729.21346  23657508.217    23657508.9524   23657516.6584
      -576.485        -449.209
 97  5 14 16 15  0.0000000  0  6 19  2 27 26  7 15                   0.000348888
   9075692.887 8   6871916.45145  24368116.359    24368117.5264   24368125.4044
     -3434.865       -2676.518
     -7912.012 9     -4320.90848  21161389.352    21161390.1404   21161396.6584
      -308.697        -240.543
   3804519.812 9   2926934.01248  20962075.978    20962076.9274   20962083.6544
     -2090.615       -1629.051
  -3001658.826 9  -2330771.48248  22706386.995    22706388.3334   22706395.4784
       113.413          88.374
  -5278238.510 9  -4102961.22948  20528317.412    20528318.3234   20528325.6294
      1008.093         785.527
  -1072503.813 9   -828025.27046  23660854.885    23660855.6034   23660863.3074
      -596.082        -464.479
 97  5 14 16 15 30.0000000  0  6 19  2 27 26  7 15                   0.000350524
   9178814.162 8   6952270.52445  24387739.327    24387740.4964   24387748.7294
     -3440.145       -2680.632
      1415.883 9      2947.57348  21163164.378    21163165.2124   21163171.7214
      -313.485        -244.274
   3867450.931 9   2975971.22348  20974051.442    20974052.3604   20974059.0674
     -2104.964       -1640.232
  -3004808.070 9  -2333225.46248  22705787.749    22705789.1104   22705796.2414
        96.248          74.998
  -5308238.241 9  -4126337.63248  20522608.684    20522609.5974   20522616.8784
       991.751         772.793
  -1054337.573 9   -813869.76746  23664311.885    23664312.5164   23664320.2024
      -615.250        -479.416
 97  5 14 16 16  0.0000000  0  6 19  2 27 26  7 15                   0.000352159
   9282106.219 9   7032757.93145  24407395.303    24407396.6944   24407404.3374
     -3446.080       -2685.257
     10907.417 9     10343.56048  21164970.656    21164971.4034   21164977.9164
      -319.413        -248.893
   3930815.102 9   3025345.86848  20986109.270    20986110.1804   20986116.9044
     -2119.278       -1651.385
  -3007426.463 9  -2335265.80548  22705289.526    22705290.8804   22705298.0034
        78.376          61.072
  -5337748.973 9  -4149333.00048  20516993.061    20516993.8994   20517001.1954
       975.763         760.335
  -1035583.747 9   -799256.40746  23667880.662    23667881.2544   23667888.9784
      -635.053        -494.846
 97  5 14 16 16 30.0000000  0  6 19  2 27 26  7 15                   0.000353790
   9385567.842 8   7113377.33546  24427083.649    24427084.8864   24427092.7244
     -3451.139       -2689.199
     20584.413 9     17884.06648  21166812.144    21166812.8844   21166819.4194
      -325.595        -253.710
   3994607.762 9   3075054.40448  20998248.649    20998249.5554   20998256.2874
     -2133.501       -1662.468
  -3009522.008 9  -2336898.72948  22704890.932    22704892.1444   22704899.2484
        61.556          47.966
  -5366795.009 9  -4171966.26848  20511465.616    20511466.6204   20511473.9064
       960.890         748.745
  -1016240.885 9   -784184.05546  23671561.441    23671562.0474   23671569.7904
      -654.356        -509.888
 97  5 14 16 17  0.0000000  0  6 19  2 27 26  7 15                   0.000355395
   9489172.965 8   7194108.52645  24446798.999    24446800.3424   24446808.2094
     -3455.753       -2692.794
     30457.163 9     25577.10448  21168690.823    21168691.6034   21168698.1784
      -332.428        -259.035
   4058832.939 9   3125099.96748  21010470.322    21010471.2274   21010477.9554
     -2148.202       -1673.924
  -3011114.819 9  -2338139.92148  22704587.870    22704589.0754   22704596.1884
        44.549          34.714
  -5395404.706 9  -4194259.52748  20506021.356    20506022.3864   20506029.6534
       946.484         737.520
   -996317.699 9   -768659.51446  23675352.638    23675353.3054   23675361.0564
      -673.850        -525.078
 97  5 14 16 17 30.0000000  0  6 19  2 27 26  7 15                   0.000356988
   9592914.748 8   7274946.04745  24466539.953    24466541.3654   24466550.0024
     -3460.773       -2696.706
     40537.270 9     33431.71948  21170608.998    21170609.7454   21170616.3494
      -339.802        -264.781
   4123506.038 9   3175494.55848  21022777.268    21022778.1504   21022784.8674
     -2163.649       -1685.960
  -3012181.055 9  -2338970.79948  22704384.923    22704386.2204   22704393.3254
        26.045          20.295
  -5423578.104 9  -4216212.81548  20500660.153    20500661.1634   20500668.4554
       931.267         725.663
   -975804.398 9   -752675.13946  23679256.213    23679256.8754   23679264.6414
      -694.028        -540.801
 97  5 14 16 18  0.0000000  0  6 19  2 27 26  7 15                   0.000358589
   9696796.023 8   7355892.44145  24486308.178    24486309.4924   24486317.6504
     -3465.112       -2700.087
     50821.289 9     41445.22348  21172566.016    21172566.7244   21172573.3274
      -346.006        -269.615
   4188640.023 9   3226248.28448  21035171.881    21035172.7504   21035179.4914
     -2178.978       -1697.905
  -3012691.701 9  -2339368.74948  22704287.859    22704289.0904   22704296.2034
         7.844           6.112
  -5451299.293 9  -4237813.73248  20495384.929    20495385.9894   20495393.2614
       916.484         714.143
   -954697.785 9   -736228.45646  23683272.621    23683273.3644   23683281.1214
      -713.338        -555.848
 97  5 14 16 18 30.0000000  0  6 19  2 27 26  7 15                   0.000360201
   9800832.907 8   7436960.22045  24506105.958    24506107.4134   24506115.1964
     -3469.931       -2703.842
     61303.344 9     49613.04648  21174560.666    21174561.4264   21174568.0184
      -352.045        -274.321
   4254260.908 9   3277381.41548  21047659.139    21047660.0174   21047666.7794
     -2194.982       -1710.376
  -3012645.972 9  -2339333.15948  22704296.683    22704297.7724   22704304.9244
       -10.193          -7.943
  -5478549.613 9  -4259047.73848  20490199.415    20490200.4654   20490207.7084
       900.754         701.886
   -932996.545 9   -719318.41746  23687402.271    23687402.9644   23687410.7274
      -732.719        -570.950
 97  5 14 16 19  0.0000000  0  6 19  2 27 26  7 15                   0.000361810
   9905011.241 8   7518138.14545  24525930.491    24525931.8184   24525939.7824
     -3475.196       -2707.945
     71957.747 9     57915.17148  21176588.130    21176588.9324   21176595.5304
      -357.954        -278.925
   4320357.092 9   3328884.91648  21060236.857    21060237.7614   21060244.5084
     -2211.257       -1723.057
  -3012062.527 9  -2338878.56448  22704407.599    22704408.8414   22704416.0154
       -28.480         -22.192
  -5505324.224 9  -4279911.06048  20485104.516    20485105.4454   20485112.6594
       884.331         689.089
   -910717.968 9   -701958.51046  23691641.784    23691642.4684   23691650.1844
      -752.387        -586.276
 97  5 14 16 19 30.0000000  0  6 19  2 27 26  7 15                   0.000363431
  10009350.792 7   7599441.58645  24545785.512    24545786.8774   24545795.1794
     -3480.581       -2712.141
     82777.852 9     66346.40548  21178647.277    21178647.9464   21178654.5494
      -363.051        -282.897
   4386938.121 9   3380766.21448  21072906.831    21072907.7464   21072914.4904
     -2226.911       -1735.255
  -3010932.100 9  -2337997.74548  22704622.788    22704624.0134   22704631.1834
       -46.390         -36.148
  -5531603.336 9  -4300388.28148  20480103.779    20480104.6484   20480111.8834
       867.988         676.354
   -887854.050 9   -684142.50546  23695992.675    23695993.3254   23696001.0754
      -771.487        -601.159
 97  5 14 16 20  0.0000000  0  6 19  2 27 26  7 15                   0.000365057
  10113860.553 8   7680877.55245  24565673.010    24565674.0114   24565683.1854
     -3486.400       -2716.675
     93753.019 9     74898.47448  21180735.698    21180736.4604   21180743.0784
      -368.310        -286.995
   4453982.943 9   3433008.91248  21085665.057    21085665.9544   21085672.7504
     -2242.242       -1747.202
  -3009268.491 9  -2336701.45348  22704939.238    22704940.6164   22704947.7954
       -63.985         -49.858
  -5557388.527 9  -4320480.62948  20475196.981    20475197.8974   20475205.1064
       851.556         663.550
   -864412.581 9   -665876.44146  23700453.362    23700454.0934   23700461.9054
      -790.852        -616.248
 97  5 14 16 20 30.0000000  0  6 19  2 27 26  7 15                   0.000366687
  10218540.956 9   7762446.58246  24585593.258    24585594.2964   24585603.0434
     -3491.984       -2721.026
    104888.860 9     83575.74348  21182854.736    21182855.5394   21182862.1834
      -373.806        -291.277
   4521481.100 9   3485604.85748  21098509.560    21098510.4524   21098517.2634
     -2257.343       -1758.969
  -3007079.180 9  -2334995.53548  22705355.934    22705357.2504   22705364.4514
       -81.839         -63.771
  -5582684.015 9  -4340191.38848  20470383.335    20470384.3414   20470391.5364
       834.977         650.631
   -840390.555 9   -647158.01446  23705024.660    23705025.3824   23705033.2344
      -810.455        -631.523
 97  5 14 16 21  0.0000000  0  6 19  2 27 26  7 15                   0.000368323
  10323372.611 9   7844133.55946  24605542.282    24605543.4344   24605551.7614
     -3496.968       -2724.910
    116174.938 9     92370.07348  21185002.355    21185003.1994   21185009.8604
      -378.753        -295.132
   4589416.424 9   3538541.45048  21111437.238    21111438.1104   21111444.9324
     -2271.796       -1770.231
  -3004351.669 9  -2332870.23548  22705874.879    22705876.2974   22705883.4964
      -100.172         -78.056
  -5607491.246 9  -4359521.68948  20465662.745    20465663.6614   20465670.8624
       818.811         638.034
   -815787.439 9   -627986.78646  23709706.630    23709707.1874   23709715.0464
      -829.831        -646.622
 97  5 14 16 21 30.0000000  0  6 19  2 27 26  7 15                   0.000369978
  10428355.793 8   7925938.66245  24625520.018    24625521.1574   24625529.3264
     -3501.916       -2728.766
    127613.480 9    101283.20748  21187179.064    21187179.8854   21187186.5834
      -384.034        -299.247
   4657776.158 9   3591808.75548  21124445.694    21124446.5724   21124453.3894
     -2285.683       -1781.052
  -3001065.703 9  -2330309.78848  22706500.329    22706501.6134   22706508.8074
      -118.974         -92.707
  -5631817.464 9  -4378477.17448  20461033.526    20461034.5244   20461041.6964
       802.815         625.570
   -790606.103 9   -608364.99246  23714498.393    23714498.9904   23714506.8834
      -849.073        -661.615
 97  5 14 16 22  0.0000000  0  6 19  2 27 26  7 15                   0.000371649
  10533487.173 7   8007859.29945  24645525.561    24645526.5844   24645535.0384
     -3506.608       -2732.422
    139211.614 9    110320.70248  21189386.147    21189386.9324   21189393.6744
      -389.163        -303.244
   4726554.423 9   3645402.18948  21137533.742    21137534.6584   21137541.4564
     -2299.667       -1791.948
  -2997217.243 9  -2327311.03048  22707232.636    22707233.9464   22707241.1604
      -137.451        -107.105
  -5655665.151 9  -4397059.77648  20456495.474    20456496.4574   20456503.6024
       787.156         613.368
   -764844.374 9   -588290.93946  23719400.582    23719401.2624   23719409.2204
      -868.292        -676.591
 97  5 14 16 22 30.0000000  0  6 19  2 27 26  7 15                   0.000373342
  10638765.65318   8089894.19255  24665558.356    24665559.9105   24665569.3375
     -3511.448       -2736.193
    150984.986 9    119494.74748  21191626.651    21191627.3584   21191634.1124
      -395.051        -307.832
   4795780.279 9   3699344.39448  21150707.038    21150707.9394   21150714.7214
     -2314.818       -1803.754
  -2992798.513 9  -2323867.89848  22708073.452    22708074.8474   22708082.0544
      -156.453        -121.911
  -5679029.763 9  -4415265.96248  20452049.300    20452050.3204   20452057.4714
       771.013         600.789
   -738491.949 9   -567756.60846  23724415.272    23724415.9664   23724423.9674
      -887.934        -691.897
 97  5 14 16 23  0.0000000  0  6 19  2 27 26  7 15                   0.000375038
  10744184.955 8   8172038.98046  24685619.625    24685620.9944   24685630.0134
     -3516.477       -2740.112
    162928.454 9    128801.33648  21193899.377    21193900.1184   21193906.8894
      -401.338        -312.731
   4865452.765 9   3753634.61848  21163965.285    21163966.1984   21163972.9554
     -2330.050       -1815.623
  -2987821.602 9  -2319989.80048  22709020.499    22709021.9884   22709029.1644
      -175.204        -136.523
  -5701921.310 9  -4433103.52248  20447693.201    20447694.1884   20447701.3584
       755.133         588.415
   -711561.648 9   -546771.98346  23729540.000    23729540.6374   23729548.6244
      -907.437        -707.094
 97  5 14 16 23 30.0000000  0  6 19  2 27 26  7 15                   0.000376745
  10849745.586 8   8254293.95946  24705707.632    24705708.8884   24705717.6604
     -3521.480       -2744.010
    175056.386 9    138251.66648  21196207.287    21196207.9914   21196214.7664
      -407.731        -317.712
   4935572.217 9   3808273.12448  21177308.554    21177309.4904   21177316.2634
     -2345.280       -1827.491
  -2982312.919 9  -2315697.35048  22710068.842    22710070.2764   22710077.4574
      -192.501        -150.001
  -5724355.702 9  -4450584.85848  20443424.042    20443425.0834   20443432.2454
       739.826         576.488
   -684057.098 9   -525339.89046  23734773.919    23734774.5934   23734782.6424
      -926.822        -722.199
 97  5 14 16 24  0.0000000  0  6 19  2 27 26  7 15                   0.000378441
  10955449.994 8   8336660.94646  24725822.646    24725823.9204   24725832.6714
     -3525.951       -2747.494
    187369.672 9    147846.42748  21198550.492    21198551.1604   21198557.9064
      -413.773        -322.421
   5006149.077 9   3863268.06348  21190738.939    21190739.8714   21190746.6404
     -2360.361       -1839.242
  -2976297.886 9  -2311010.32348  22711213.605    22711214.9314   22711222.1274
      -209.057        -162.901
  -5746334.656 9  -4467711.30548  20439241.529    20439242.6324   20439249.8104
       724.923         564.875
   -655978.200 9   -503460.24646  23740117.220    23740117.8664   23740125.8714
      -945.620        -736.847
 97  5 14 16 24 30.0000000  0  6 19  2 27 26  7 15                   0.000380124
  11061303.140 8   8419143.82245  24745965.886    24745967.2414   24745975.8834
     -3531.084       -2751.494
    199888.839 9    157601.60948  21200932.817    21200933.5124   21200940.2244
      -420.921        -327.990
   5077191.551 9   3918625.81148  21204257.934    21204258.8534   21204265.5914
     -2375.897       -1851.348
  -2969766.488 9  -2305920.95448  22712456.575    22712457.8514   22712465.0264
      -226.592        -176.565
  -5767849.536 9  -4484476.14448  20435147.550    20435148.4914   20435155.6664
       708.987         552.457
   -627319.831 9   -481129.06746  23745570.785    23745571.3914   23745579.4444
      -965.203        -752.106
 97  5 14 16 25  0.0000000  0  7 19  2 27 26  9  7 15                0.000381792
  11167297.900 8   8501737.01545  24766136.067    24766137.3934   24766146.1764
     -3535.140       -2754.655
    212608.790 9    167513.25048  21203353.328    21203354.0634   21203360.7734
      -427.080        -332.790
   5148681.660 9   3974332.36748  21217862.025    21217862.9674   21217869.7284
     -2390.045       -1862.373
  -2962714.763 9  -2300426.12848  22713798.418    22713799.7304   22713806.9214
      -243.470        -189.717
  -1779607.59419  -1367730.90256  25248790.984    25248792.3705   25248801.6535
      3272.274        2549.824
  -5788890.308 9  -4500871.54448  20431143.628    20431144.5584   20431151.7314
       693.797         540.621
   -598081.691 9   -458346.11146  23751134.663    23751135.2674   23751143.3274
      -984.121        -766.848
 97  5 14 16 25 30.0000000  0  7 19  2 27 26  9  7 15                0.000383439
  11273410.771 8   8584422.31045  24786328.873    24786330.2764   24786338.4124
     -3539.372       -2757.952
    225508.644 9    177565.07648  21205808.100    21205808.8174   21205815.5514
      -433.053        -337.444
   5220595.227 9   4030368.89048  21231546.763    21231547.6724   21231554.4524
     -2404.516       -1873.649
  -2955156.501 9  -2294536.58548  22715236.780    22715238.0444   22715245.2174
      -260.857        -203.265
  -1877772.144 9  -1444222.77346  25230110.985    25230112.2304   25230121.6054
      3271.808        2549.461
  -5809476.549 9  -4516912.76848  20427226.190    20427227.1544   20427234.3224
       678.213         528.478
   -568273.924 9   -435119.29146  23756806.942    23756807.5524   23756815.5224
     -1003.364        -781.842
 97  5 14 16 26  0.0000000  0  7 19  2 27 26  9  7 15                0.000385091
  11379644.401 8   8667201.75745  24806544.640    24806545.9254   24806554.4814
     -3542.891       -2760.694
    238576.593 9    187747.88048  21208294.797    21208295.5864   21208302.3304
      -438.220        -341.470
   5292938.489 9   4086740.23248  21245313.219    21245314.1484   21245320.9264
     -2418.484       -1884.533
  -2947061.582 9  -2288228.86148  22716777.124    22716778.4774   22716785.6614
      -278.873        -217.304
  -1975926.065 9  -1520706.32946  25211433.152    25211434.0984   25211443.5874
      3271.679        2549.360
  -5829587.249 9  -4532583.43548  20423399.366    20423400.2344   20423407.3844
       662.449         516.194
   -537890.191 9   -411443.67146  23762588.780    23762589.4204   23762597.3624
     -1022.384        -796.663
 97  5 14 16 26 30.0000000  0  7 19  2 27 26  9  7 15                0.000386754
  11485979.984 8   8750060.58046  24826779.711    24826781.1344   24826789.5584
     -3546.027       -2763.138
    251789.104 9    198043.32648  21210809.088    21210809.8664   21210816.6024
      -442.258        -344.617
   5365700.396 9   4143437.79948  21259159.379    21259160.3054   21259167.0814
     -2432.135       -1895.170
  -2938430.826 9  -2281503.60548  22718419.373    22718420.8724   22718428.0734
      -296.161        -230.775
  -2074083.147 9  -1597192.35546  25192754.441    25192755.4054   25192764.9224
      3272.218        2549.780
  -5849230.428 9  -4547889.80448  20419661.342    20419662.2554   20419669.3724
       647.215         504.323
   -506935.654 9   -387323.26846  23768479.251    23768479.8474   23768487.8114
     -1041.113        -811.257
 97  5 14 16 27  0.0000000  0  7 19  2 27 26  9  7 15                0.000388440
  11592422.655 8   8833002.82146  24847035.305    24847036.6714   24847044.9714
     -3549.717       -2766.013
    265127.553 9    208436.91048  21213347.393    21213348.1044   21213354.8504
      -446.581        -347.985
   5438887.109 9   4200466.39148  21273086.347    21273087.3104   21273094.0914
     -2446.494       -1906.359
  -2929273.097 9  -2274367.71448  22720162.178    22720163.5504   22720170.7634
      -313.683        -244.428
  -2172244.792 9  -1673681.94246  25174074.858    25174075.9274   25174085.3734
      3272.354        2549.886
  -5868407.391 9  -4562832.88648  20416012.170    20416012.9914   20416020.0944
       631.924         492.408
   -475406.849 9   -362755.39446  23774478.966    23774479.6274   23774487.5384
     -1060.311        -826.216
 97  5 14 16 27 30.0000000  0  7 19  2 27 26  9  7 15                0.000390141
  11698979.157 8   8916033.74745  24867312.448    24867313.7494   24867322.1604
     -3554.208       -2769.513
    278595.319 9    218931.26748  21215910.306    21215910.9574   21215917.6974
      -451.509        -351.825
   5512506.473 9   4257832.09648  21287095.568    21287096.6114   21287103.4024
     -2461.726       -1918.228
  -2919605.410 9  -2266834.47048  22722001.872    22722003.2834   22722010.4774
      -331.160        -258.047
  -2270406.587 8  -1750171.63746  25155395.055    25155396.3684   25155405.8784
      3271.783        2549.441
  -5887132.957 9  -4577424.23048  20412448.802    20412449.6394   20412456.7424
       616.054         480.042
   -443308.657 9   -337743.82846  23780587.101    23780587.6854   23780595.6314
     -1079.746        -841.361
 97  5 14 16 28  0.0000000  0  7 19  2 27 26  9  7 15                0.000391862
  11805665.95517   8999166.23555  24887613.959    24887615.4925   24887624.1585
     -3558.537       -2772.886
    292209.086 9    229539.38648  21218500.875    21218501.5984   21218508.3364
      -456.649        -355.830
   5586577.826 9   4315550.01348  21301190.895    21301191.9424   21301198.7124
     -2476.637       -1929.847
  -2909413.860 9  -2258893.01748  22723941.296    22723942.7224   22723949.8914
      -348.435        -271.508
  -2368565.529 9  -1826659.09646  25136715.791    25136717.3134   25136726.6864
      3271.860        2549.501
  -5905380.356 9  -4591642.97548  20408976.328    20408977.2294   20408984.3234
       600.087         467.600
   -410633.655 9   -312282.81446  23786804.923    23786805.5704   23786813.5174
     -1098.979        -856.347
 97  5 14 16 28 30.0000000  0  7 19  2 27 26  9  7 15                0.000393576
  11912470.216 8   9082390.23645  24907938.049    24907939.5994   24907948.4214
     -3562.163       -2775.711
    305980.220 9    240270.12748  21221121.472    21221122.1664   21221128.8824
      -461.926        -359.942
   5661084.319 9   4373606.99048  21315369.070    21315370.0764   21315376.8614
     -2490.871       -1940.938
  -2898724.277 9  -2250563.49248  22725975.720    22725976.8904   22725984.0654
      -364.731        -284.206
  -2466739.430 8  -1903158.22846  25118034.316    25118035.4064   25118044.7504
      3272.566        2550.051
  -5923164.645 9  -4605500.86148  20405591.952    20405592.9754   20405600.0604
       584.981         455.829
   -377391.362 9   -286379.75446  23793130.815    23793131.4274   23793139.3334
     -1117.599        -870.856
 97  5 14 16 29  0.0000000  0  7 19  2 27 26  9  7 15                0.000395272
  12019389.224 8   9165703.62545  24928284.488    24928285.7954   24928294.4604
     -3566.377       -2778.995
    319927.005 9    251137.73748  21223775.453    21223776.1844   21223782.8914
      -468.622        -365.160
   5736023.862 9   4432001.41048  21329629.661    21329630.6434   21329637.4044
     -2505.813       -1952.582
  -2887533.107 9  -2241843.11648  22728105.452    22728106.5024   22728113.6854
      -382.160        -297.787
  -2564914.697 9  -1979658.40046  25099352.511    25099353.3224   25099362.6424
      3271.681        2549.362
  -5940482.218 9  -4618995.06848  20402296.538    20402297.5814   20402304.6464
       568.817         443.234
   -343585.393 9   -260037.46746  23799563.878    23799564.5564   23799572.4034
     -1136.856        -885.862
 97  5 14 16 29 30.0000000  0  7 19  2 27 26  9  7 15                0.000396952
  12126423.593 8   9249106.96145  24948652.701    24948653.9194   24948662.1834
     -3569.312       -2781.282
    334069.444 9    262157.80748  21226466.760    21226467.4424   21226474.1164
      -474.331        -369.608
   5811400.366 9   4490736.31748  21343973.364    21343974.3274   21343981.1174
     -2519.520       -1963.262
  -2875820.324 9  -2232716.28848  22730334.099    22730335.3664   22730342.5334
      -399.167        -311.039
  -2663068.984 8  -2056142.20646  25080675.048    25080675.1664   25080684.5324
      3271.797        2549.452
  -5957314.414 9  -4632111.06148  20399093.511    20399094.5384   20399101.5754
       553.049         430.947
   -309206.492 9   -233248.74246  23806106.029    23806106.6774   23806114.4864
     -1155.276        -900.215
 97  5 14 16 30  0.0000000  0  7 19  2 27 26  9  7 15                0.000398628
  12233556.781 8   9332587.41745  24969039.357    24969040.5834   24969048.8434
     -3572.450       -2783.727
    348398.718 9    273323.46148  21229193.571    21229194.2294   21229200.9014
      -480.598        -374.492
   5887198.997 9   4549800.16048  21358397.457    21358398.3414   21358405.1584
     -2533.265       -1973.973
  -2863566.067 9  -2223167.53448  22732666.078    22732667.2984   22732674.4554
      -417.085        -325.001
  -2761203.296 8  -2132610.46546  25062000.693    25062000.8224   25062010.2794
      3270.861        2548.723
  -5973655.724 9  -4644844.54448  20395983.958    20395984.9184   20395991.9214
       536.968         418.417
   -274252.691 9   -206012.05046  23812757.537    23812758.2444   23812766.0604
     -1174.535        -915.222
 97  5 14 16 30 30.0000000  0  7 19  2 27 26  9  7 15                0.000400294
  12340774.431 8   9416133.70245  24989442.199    24989443.5414   24989452.1254
     -3575.056       -2785.758
    362911.285 9    284631.93548  21231955.247    21231955.8934   21231962.5694
      -486.205        -378.861
   5963408.328 9   4609184.02748  21372899.617    21372900.5274   21372907.3284
     -2546.952       -1984.638
  -2850786.388 9  -2213209.38048  22735097.830    22735099.2174   22735106.3954
      -434.395        -338.490
  -2859303.496 8  -2209052.13445  25043332.574    25043332.9374   25043342.3034
      3269.777        2547.878
  -5989527.207 9  -4657211.93148  20392963.635    20392964.6984   20392971.6914
       521.636         406.470
   -238727.951 9   -178330.47446  23819517.755    23819518.3994   23819526.2064
     -1193.253        -929.808
 97  5 14 16 31  0.0000000  0  7 19  2 27 26  9  7 15                0.000401956
  12448073.232 8   9499743.07245  25009860.474    25009861.9964   25009870.6014
     -3577.774       -2787.876
    377588.195 9    296068.47048  21234748.192    21234748.8324   21234755.5134
      -491.890        -383.291
   6040033.189 9   4668891.68448  21387480.860    21387481.7764   21387488.5914
     -2560.950       -1995.545
  -2837488.543 9  -2202847.44948  22737628.360    22737629.7084   22737636.9184
      -451.648        -351.934
  -2957372.762 8  -2285469.68645  25024671.062    25024671.0064   25024680.3594
      3268.836        2547.145
  -6004934.209 9  -4669217.38248  20390031.853    20390032.8264   20390039.8244
       505.952         394.248
   -202644.427 9   -150213.48146  23826384.283    23826384.8604   23826392.6944
     -1211.992        -944.409
 97  5 14 16 31 30.0000000  0  7 19  2 27 26  9  7 15                0.000403605
  12555453.924 8   9583416.23045  25030294.622    25030296.1844   25030304.6254
     -3581.394       -2790.697
    392430.836 9    307634.14948  21237572.607    21237573.2964   21237580.0174
      -498.121        -388.146
   6117063.987 9   4728915.65048  21402139.356    21402140.2594   21402147.1084
     -2575.094       -2006.567
  -2823684.251 9  -2192090.86948  22740255.247    22740256.6124   22740263.8604
      -469.198        -365.609
  -3055429.170 8  -2361877.22345  25006011.190    25006011.4434   25006020.8364
      3267.778        2546.321
  -6019882.643 9  -4680865.50948  20387187.171    20387188.2004   20387195.2084
       490.078         381.879
   -166003.320 9   -121662.01446  23833356.867    23833357.4594   23833365.2624
     -1231.297        -959.452
 97  5 14 16 32  0.0000000  0  7 19  2 27 26  9  7 15                0.000405245
  12662939.62218   9667171.22355  25050748.360    25050749.8085   25050758.4085
     -3584.963       -2793.478
    407452.788 9    319339.55548  21240431.330    21240431.9384   21240438.6514
      -503.773        -392.550
   6194512.371 9   4789265.01248  21416877.348    21416878.2294   21416885.0864
     -2588.607       -2017.096
  -2809373.327 9  -2180939.46148  22742978.574    22742979.8974   22742987.1414
      -485.189        -378.069
  -3153466.454 8  -2438269.86745  24987354.641    24987355.5714   24987364.8394
      3267.507        2546.109
  -6034373.171 9  -4692156.82448  20384429.797    20384430.6994   20384437.7114
       475.455         370.484
   -128797.485 9    -92670.50346  23840436.858    23840437.5084   23840445.3364
     -1249.485        -973.625
 97  5 14 16 32 30.0000000  0  7 19  2 27 26  9  7 15                0.000406879
  12770558.204 8   9751029.76845  25071227.535    25071228.9174   25071237.6974
     -3589.360       -2796.904
    422661.519 9    331190.50348  21243325.417    21243326.0634   21243332.7814
      -509.722        -397.186
   6272395.993 9   4849953.51348  21431698.101    21431699.0044   21431705.8684
     -2603.368       -2028.598
  -2794561.655 9  -2169397.86248  22745797.103    22745798.4894   22745805.7354
      -502.119        -391.262
  -3251476.938 8  -2514641.61345  24968703.951    24968704.7574   24968714.0434
      3266.817        2545.572
  -6048399.659 9  -4703086.55448  20381760.519    20381761.5324   20381768.5514
       459.924         358.382
    -91027.812 9    -63239.63247  23847624.241    23847624.8334   23847632.6974
     -1268.171        -988.185
 97  5 14 16 33  0.0000000  0  7 19  2 27 26  9  7 15                0.000408517
  12878319.832 8   9834999.76046  25091734.006    25091735.3984   25091744.0934
     -3594.614       -2800.998
    438053.090 9    343183.92348  21246254.328    21246254.9794   21246261.7184
      -516.523        -402.485
   6350719.384 9   4910984.69248  21446602.545    21446603.5074   21446610.3614
     -2618.264       -2040.206
  -2779233.011 9  -2157453.44348  22748713.847    22748715.4034   22748722.6764
      -519.982        -405.181
  -3349463.860 8  -2590995.00345  24950057.536    24950058.4394   24950067.7544
      3265.264        2544.361
  -6061955.627 9  -4713649.63848  20379180.843    20379181.9184   20379188.9774
       443.675         345.721
    -52695.906 9    -33370.65646  23854918.667    23854919.2234   23854927.1274
     -1287.502       -1003.248
 97  5 14 16 33 30.0000000  0  7 19  2 27 26  9  7 15                0.000410164
  12986231.822 8   9919086.95146  25112269.237    25112270.5164   25112279.1874
     -3599.251       -2804.611
    453628.917 9    355320.91948  21249218.238    21249218.9764   21249225.7174
      -521.682        -406.505
   6429468.239 9   4972347.39748  21461587.987    21461588.9584   21461595.8004
     -2631.639       -2050.628
  -2763376.299 9  -2145097.57048  22751731.308    22751732.8194   22751740.0844
      -537.129        -418.542
  -3447403.856 8  -2667311.83345  24931420.005    24931420.8644   24931430.4184
      3263.957        2543.343
  -6075042.637 9  -4723847.30448  20376690.520    20376691.5664   20376698.6174
       428.853         334.171
    -13794.353 9     -3057.81146  23862321.410    23862322.0024   23862329.9114
     -1305.800       -1017.506
 97  5 14 16 34  0.0000000  0  7 19  2 27 26  9  7 15                0.000411836
  13094290.035 8  10003288.08546  25132831.960    25132833.4034   25132841.9844
     -3604.259       -2808.514
    469367.387 9    367584.65448  21252213.114    21252213.9404   21252220.6774
      -527.564        -411.089
   6508635.626 9   5034036.22848  21476653.129    21476654.0444   21476660.8814
     -2646.082       -2061.882
  -2746978.940 9  -2132320.40548  22754851.653    22754853.1524   22754860.4054
      -555.951        -433.209
  -3545285.452 8  -2743583.15345  24912793.959    24912794.7704   24912804.2254
      3261.683        2541.571
  -6087672.393 9  -4733688.66748  20374287.077    20374288.2184   20374295.2594
       413.033         321.844
     25667.466 9     27691.61546  23869830.800    23869831.3894   23869839.2674
     -1325.004       -1032.471
 97  5 14 16 34 30.0000000  0  7 19  2 27 26  9  7 15                0.000413527
  13202463.236 8  10087578.83646  25153416.575    25153418.1784   25153426.7374
     -3606.276       -2810.085
    485258.706 9    379967.49348  21255237.217    21255237.9934   21255244.7344
      -531.110        -413.852
   6588210.018 9   5096042.20948  21491795.635    21491796.5844   21491803.4234
     -2658.037       -2071.198
  -2730040.953 9  -2119121.99548  22758074.985    22758076.3334   22758083.5784
      -572.432        -446.051
  -3643118.600 8  -2819816.70645  24894176.708    24894177.5744   24894186.8484
      3261.509        2541.436
  -6099843.640 9  -4743172.74948  20371971.175    20371972.0824   20371979.1454
       399.224         311.084
     65683.549 9     58872.92046  23877445.606    23877446.2574   23877454.0984
     -1342.031       -1045.738
 97  5 14 16 35  0.0000000  0  7 19  2 27 26  9  7 15                0.000415215
  13310709.207 8  10171926.31046  25174015.317    25174016.7924   25174025.3414
     -3609.451       -2812.559
    501286.879 9    392456.97048  21258287.292    21258288.0734   21258294.7914
      -536.989        -418.433
   6668155.613 9   5158337.44248  21507008.872    21507009.7824   21507016.5914
     -2671.155       -2081.419
  -2712591.061 9  -2105524.68948  22761395.468    22761396.9324   22761404.1764
      -590.294        -459.969
  -3740926.856 8  -2896030.85145  24875564.534    24875565.1314   24875574.4654
      3259.658        2539.993
  -6111577.486 9  -4752315.99448  20369738.314    20369739.2044   20369746.2694
       383.564         298.881
    106238.291 9     90473.97846  23885162.899    23885163.5584   23885171.4214
     -1361.121       -1060.614
 97  5 14 16 35 30.0000000  0  7 19  2 27 26  9  7 15                0.000416895
  13419033.658 8  10256334.94046  25194628.974    25194630.2874   25194638.9144
     -3612.393       -2814.852
    517476.845 9    405072.51948  21261368.154    21261368.9624   21261375.6654
      -542.719        -422.898
   6748476.700 9   5220925.25348  21522293.473    21522294.4154   21522301.1884
     -2684.018       -2091.443
  -2694625.931 9  -2091525.90448  22764814.167    22764815.5804   22764822.7794
      -607.589        -473.446
  -3838706.188 8  -2972222.44745  24856957.943    24856958.2204   24856967.6744
      3258.919        2539.417
  -6122858.118 9  -4761106.09248  20367591.681    20367592.6034   20367599.6444
       368.112         286.841
    147347.437 9    122507.03746  23892985.734    23892986.4224   23892994.2654
     -1379.753       -1075.132
 97  5 14 16 36  0.0000000  0  7 19  2 27 26  9  7 15                0.000418563
  13527427.525 8  10340797.67346  25215255.779    25215256.8734   25215265.7104
     -3614.353       -2816.379
    533844.084 9    417826.19948  21264482.765    21264483.5644   21264490.2534
      -548.939        -427.745
   6829187.929 9   5283817.08948  21537652.309    21537653.2944   21537660.0664
     -2697.315       -2101.804
  -2676151.001 9  -2077129.88048  22768329.780    22768331.2684   22768338.4424
      -624.332        -486.492
  -3936475.852 8  -3048406.51645  24838353.066    24838353.2784   24838362.4804
      3258.659        2539.215
  -6133675.186 9  -4769534.96948  20365533.373    20365534.1994   20365541.2514
       352.401         274.598
    189012.046 9    154972.91946  23900914.357    23900914.9624   23900922.8114
     -1398.377       -1089.644
 97  5 14 16 36 30.0000000  0  6  2 27 26  9  7 15                   0.000420203
    550389.843 9    430718.99148  21267631.419    21267632.1434   21267638.8404
      -554.340        -431.953
   6910293.096 9   5347015.89448  21553086.156    21553087.1084   21553093.9014
     -2710.016       -2111.701
  -2657192.745 9  -2062357.23448  22771937.491    22771938.9184   22771946.0914
      -639.875        -498.604
  -4034249.084 8  -3124593.35445  24819747.583    24819747.4434   24819756.8014
      3258.970        2539.457
  -6144027.346 9  -4777601.58048  20363563.427    20363564.2524   20363571.3214
       337.555         263.030
    231224.422 9    187865.63646  23908947.079    23908947.7084   23908955.6064
     -1416.098       -1103.453
 97  5 14 16 37  0.0000000  0  7  2  4 27 26  9  7 15                0.000421825
    567116.038 9    443752.37648  21270814.304    21270815.0454   21270821.7474
      -560.889        -437.056
   -300741.59918   -213073.04455  24649872.047           0.0005   24649885.2755
      3408.815        2656.219
   6991799.000 9   5410526.96148  21568596.192    21568597.1804   21568603.9894
     -2723.942       -2122.552
  -2637747.150 9  -2047204.81948  22775637.922    22775639.3254   22775646.5044
      -656.763        -511.763
  -4132012.630 8  -3200772.66345  24801143.519    24801143.6274   24801153.0974
      3258.147        2538.816
  -6153921.296 9  -4785311.15148  20361680.720    20361681.5124   20361688.5684
       321.833         250.779
    273983.095 9    221184.03546  23917083.858    23917084.4204   23917092.3814
     -1434.631       -1117.894
 97  5 14 16 37 30.0000000  0  7  2  4 27 26  9  7 15                0.000423459
    584039.926 9    456939.81348  21274034.882    21274035.5454   21274042.2864
      -566.880        -441.725
   -403040.124 8   -292786.17145  24630402.217    24630406.2335   24630415.6924
      3411.450        2658.273
   7073734.334 9   5474372.64648  21584187.985    21584188.9294   21584195.7934
     -2738.145       -2133.619
  -2617782.059 9  -2031647.59148  22779437.028    22779438.5624   22779445.7564
      -673.823        -525.057
  -4229734.307 8  -3276919.35345  24782548.280    24782547.8674   24782557.2134
      3256.661        2537.658
  -6163338.605 9  -4792649.30948  20359888.629    20359889.4354   20359896.4864
       306.352         238.716
    317302.849 9    254939.64146  23925327.290    23925327.9654   23925335.9244
     -1452.984       -1132.195
 97  5 14 16 38  0.0000000  0  7  2  4 27 26  9  7 15                0.000425112
    601127.688 9    470254.94148  21277286.559    21277287.2434   21277293.9834
      -572.743        -446.293
   -505428.706 8   -372569.46555  24610920.356    24610923.8355   24610932.1565
      3413.739        2660.056
   7156094.965 9   5538549.72848  21599860.653    21599861.6414   21599868.5164
     -2752.925       -2145.136
  -2597313.462 9  -2015698.04048  22783332.202    22783333.6114   22783340.8294
      -691.219        -538.612
  -4327408.887 8  -3353029.34845  24763961.033    24763960.9404   24763970.3574
      3254.251        2535.780
  -6172301.804 9  -4799633.62048  20358182.841    20358183.7914   20358190.8174
       290.766         226.571
    361163.895 9    289117.03546  23933673.815    23933674.4784   23933682.4334
     -1471.616       -1146.714
 97  5 14 16 38 30.0000000  0  7  2  4 27 26  9  7 15                0.000426780
    618372.348 9    483692.32848  21280568.074    21280568.7894   21280575.5224
      -577.444        -449.956
   -607888.183 8   -452407.95345  24591423.749    24591426.8884   24591434.8014
      3416.261        2662.022
   7238880.577 9   5603057.96848  21615614.241    21615615.1894   21615622.1234
     -2766.454       -2155.678
  -2576332.655 9  -1999349.38748  22787324.660    22787326.0804   22787333.3394
      -708.051        -551.728
  -4425008.640 8  -3429081.02845  24745388.097    24745388.1514   24745397.7204
      3251.983        2534.013
  -6180812.638 9  -4806265.43848  20356563.257    20356564.2444   20356571.2764
       276.210         215.228
    405572.427 9    323721.02646  23942124.557    23942125.1514   23942133.1244
     -1489.479       -1160.633
 97  5 14 16 39  0.0000000  0  7  2  4 27 26  9  7 15                0.000428436
    635768.806 9    497248.00348  21283878.518    21283879.2524   21283885.9824
      -582.353        -453.781
   -710402.488 8   -532289.18945  24571916.060    24571918.6264   24571927.2854
      3417.974        2663.356
   7322071.830 9   5667882.28448  21631445.016    21631445.9764   21631452.9334
     -2779.609       -2165.929
  -2554842.243 9  -1982603.65848  22791414.138    22791415.5714   22791422.8504
      -724.504        -564.548
  -4522541.582 8  -3505080.65645  24726827.491    24726828.2874   24726837.6654
      3250.108        2532.552
  -6188882.411 9  -4812553.57148  20355027.641    20355028.6654   20355035.6614
       261.739         203.952
    450525.347 9    358749.23046  23950678.806    23950679.4344   23950687.4264
     -1507.465       -1174.648
 97  5 14 16 39 30.0000000  0  7  2  4 27 26  9  7 15                0.000430101
    653315.376 9    510920.64948  21287217.541    21287218.2844   21287224.9914
      -587.309        -457.643
   -812954.259 8   -612199.67645  24552401.821    24552404.0014   24552412.4204
      3418.785        2663.988
   7405661.140 9   5733016.77548  21647351.549    21647352.5164   21647359.4724
     -2792.811       -2176.216
  -2532863.590 9  -1965477.48848  22795596.662    22795597.9844   22795605.2724
      -740.505        -577.017
  -4620008.870 9  -3581029.12245  24708280.431    24708280.9224   24708290.2394
      3247.857        2530.798
  -6196519.906 9  -4818504.86548  20353574.318    20353575.3074   20353582.2994
       247.562         192.905
    496023.260 9    394202.09546  23959336.866    23959337.4654   23959345.4444
     -1525.583       -1188.766
 97  5 14 16 40  0.0000000  0  7  2  4 27 26  9  7 15                0.000431776
    671012.176 9    524710.35548  21290585.073    21290585.8794   21290592.5774
      -592.411        -461.619
   -915524.352 8   -692124.36345  24532883.165    24532885.4134   24532893.7974
      3419.380        2664.452
   7489639.696 9   5798454.56948  21663332.220    21663333.1424   21663340.0914
     -2805.496       -2186.101
  -2510409.395 9  -1947980.76048  22799869.467    22799870.9214   22799878.1734
      -756.266        -589.298
  -4717413.262 9  -3656928.59645  24689744.963    24689745.3204   24689754.6634
      3246.060        2529.397
  -6203732.983 9  -4824125.44648  20352201.632    20352202.7204   20352209.7194
       233.515         181.960
    542065.350 9    430078.99046  23968098.470    23968099.0294   23968106.9434
     -1543.711       -1202.892
 97  5 14 16 40 30.0000000  0  7  2  4 27 26  9  7 15                0.000433453
    688873.965 9    538628.61948  21293984.128    21293984.8764   21293991.5674
      -598.428        -466.308
  -1018113.450 9   -772063.90545  24513361.237    24513363.3044   24513371.6624
      3420.131        2665.037
   7573994.415 9   5864185.47648  21679384.430    21679385.3624   21679392.3174
     -2818.188       -2195.991
  -2487486.559 9  -1930118.84048  22804231.534    22804232.9804   22804240.2864
      -771.978        -601.541
  -4814772.255 9  -3732792.69045  24671217.226    24671218.3824   24671227.6644
      3244.668        2528.313
  -6210522.984 9  -4829416.35448  20350909.529    20350910.6044   20350917.6184
       219.078         170.710
    588647.022 9    466376.34946  23976962.610    23976963.2424   23976971.1754
     -1561.759       -1216.955
 97  5 14 16 41  0.0000000  0  7  2  4 27 26  9  7 15                0.000435125
    706918.711 9    552689.45648  21297418.004    21297418.6824   21297425.3934
      -604.685        -471.183
  -1120741.447 9   -852033.72345  24493832.107    24493833.8994   24493841.9854
      3421.581        2666.167
   7658729.814 9   5930213.01348  21695509.132    21695510.0004   21695516.9724
     -2831.073       -2206.031
  -2464096.130 9  -1911892.56848  22808682.602    22808684.0714   22808691.3934
      -787.577        -613.696
  -4912091.927 9  -3808626.14145  24652698.404    24652699.0854   24652708.2844
      3243.007        2527.018
  -6216883.645 9  -4834372.71548  20349699.086    20349700.1944   20349707.2264
       204.736         159.535
    635765.537 9    503092.01446  23985928.957    23985929.5784   23985937.6074
     -1579.656       -1230.901
 97  5 14 16 41 30.0000000  0  7  2  4 27 26  9  7 15                0.000436802
    725160.132 9    566903.54148  21300889.187    21300889.9204   21300896.6294
      -611.644        -476.606
  -1223401.207 9   -932028.27445  24474296.696    24474298.4784   24474306.6504
      3422.269        2666.703
   7743861.793 9   5996549.57148  21711709.280    21711710.1164   21711717.0724
     -2844.502       -2216.495
  -2440220.716 9  -1893288.37048  22813226.045    22813227.4664   22813234.7774
      -804.408        -626.811
  -5009343.378 9  -3884406.42145  24634191.898    24634192.7124   24634201.8164
      3240.364        2524.959
  -6222802.544 9  -4838984.84348  20348572.702    20348573.8774   20348580.9024
       189.539         147.693
    683428.375 9    540231.82046  23994998.983    23994999.5374   23995007.6534
     -1598.049       -1245.233
 97  5 14 16 42  0.0000000  0  7  2  4 27 26  9  7 15                0.000438477
    743603.162 9    581274.72148  21304398.709    21304399.5074   21304406.2364
      -618.101        -481.637
  -1326097.826 9  -1012051.61145  24454754.376    24454755.8614   24454764.2014
      3424.017        2668.065
   7829387.408 9   6063192.86648  21727984.217    21727985.1444   21727992.0964
     -2857.508       -2226.630
  -2415844.601 9  -1874294.02548  22817864.771    22817866.0794   22817873.4144
      -820.925        -639.682
  -5106532.557 9  -3960138.18445  24615697.454    24615698.1054   24615707.2444
      3238.736        2523.690
  -6228261.462 9  -4843238.54848  20347533.890    20347535.0694   20347542.0904
       174.067         135.637
    731633.571 9    577794.25246  24004172.104    24004172.7314   24004180.8574
     -1615.936       -1259.171
 97  5 14 16 42 30.0000000  0  7  2  4 27 26  9  7 15                0.000440136
    762235.324 9    595793.28048  21307944.296    21307945.0964   21307951.8304
      -624.089        -486.303
  -1428855.359 8  -1092122.35345  24435200.125    24435201.7374   24435210.1384
      3426.182        2669.752
   7915299.472 9   6130137.29548  21744332.770    21744333.7164   21744340.6404
     -2870.145       -2236.477
  -2390973.966 9  -1854914.34648  22822597.622    22822598.8114   22822606.1644
      -837.445        -652.555
  -5203672.907 9  -4035831.88046  24597212.167    24597212.8084   24597221.9434
      3236.938        2522.289
  -6233256.662 9  -4847130.91048  20346583.473    20346584.5164   20346591.5774
       158.635         123.612
    780369.833 9    615770.50546  24013446.224    24013446.9954   24013455.1124
     -1633.481       -1272.842
 97  5 14 16 43  0.0000000  0  7  2  4 27 26  9  7 15                0.000441789
    781043.549 9    610449.03248  21311523.409    21311524.1654   21311530.9344
      -629.390        -490.434
  -1531657.287 9  -1172227.71045  24415637.204    24415639.1244   24415647.6044
      3427.435        2670.729
   8001598.514 9   6197383.25848  21760754.964    21760755.9124   21760762.8444
     -2882.845       -2246.373
  -2365593.498 9  -1835137.38248  22827427.362    22827428.5814   22827435.9494
      -854.220        -665.626
  -5300735.747 9  -4111465.18846  24578741.326    24578742.3144   24578751.3514
      3234.173        2520.135
  -6237776.695 9  -4850653.01448  20345723.337    20345724.3974   20345731.4604
       143.030         111.452
    829646.146 9    654167.57446  24022823.274    24022824.0014   24022832.1424
     -1651.365       -1286.778
 97  5 14 16 43 30.0000000  0  7  2  4 27 26  9  7 15                0.000443435
    800001.086 9    625221.13148  21315130.924    21315131.6794   21315138.4594
      -634.312        -494.269
  -1634501.575 9  -1252366.11346  24396066.741    24396068.5634   24396076.8654
      3428.995        2671.944
   8088269.571 9   6264919.09948  21777247.950    21777248.8864   21777255.8344
     -2895.114       -2255.933
  -2339715.567 9  -1814972.78448  22832351.734    22832353.0364   22832360.4104
      -870.881        -678.609
  -5397724.270 9  -4187040.57546  24560284.673    24560285.9384   24560295.0264
      3231.911        2518.372
  -6241834.902 9  -4853815.25148  20344951.071    20344952.1204   20344959.2044
       127.559          99.397
    879454.965 9    692979.58246  24032301.581    24032302.3134   24032310.5104
     -1669.125       -1300.617
 97  5 14 16 44  0.0000000  0  7  2  4 27 26  9  7 15                0.000445066
    819100.397 9    640103.70648  21318765.357    21318766.1734   21318772.9384
      -638.694        -497.684
  -1737392.630 9  -1332540.91646  24376487.470    24376488.9974   24376497.2034
      3430.671        2673.250
   8175311.089 9   6332743.60648  21793811.386    21793812.3394   21793819.3684
     -2907.419       -2265.521
  -2313344.499 9  -1794423.93848  22837370.088    22837371.3114   22837378.6894
      -886.925        -691.110
  -5494646.781 9  -4262564.53446  24541840.619    24541842.1444   24541851.2014
      3229.746        2516.685
  -6245426.050 9  -4856613.54848  20344267.707    20344268.7504   20344275.8324
       112.280          87.491
    929794.947 9    732205.48346  24041881.039    24041881.6854   24041890.0044
     -1686.653       -1314.275
 97  5 14 16 44 30.0000000  0  7  2  4 27 26  9  7 15                0.000446687
    838328.409 9    655086.56648  21322424.340    21322425.1134   21322431.8904
      -643.495        -501.425
  -1840332.805 8  -1412753.98646  24356898.684    24356900.1894   24356908.3374
      3431.553        2673.937
   8262713.504 9   6400849.33248  21810443.494    21810444.4954   21810451.5524
     -2919.718       -2275.105
  -2286489.726 9  -1773498.18548  22842480.359    22842481.6464   22842489.0254
      -903.520        -704.042
  -5591498.645 9  -4338033.43046  24523410.799    24523411.8364   24523420.8374
      3226.680        2514.296
  -6248578.232 9  -4859069.79148  20343667.840    20343668.9064   20343676.0024
        97.518          75.988
    980655.501 9    771837.02246  24051559.464    24051560.1944   24051568.4884
     -1704.450       -1328.143
 97  5 14 16 45  0.0000000  0  7  2  4 27 26  9  7 15                0.000448325
    857726.892 9    670202.26048  21326115.711    21326116.5234   21326123.2884
      -649.654        -506.224
  -1943269.386 9  -1492964.21446  24337310.288    24337311.9924   24337320.2374
      3431.169        2673.638
   8350509.190 9   6469261.51448  21827150.451    21827151.4944   21827158.5604
     -2933.135       -2285.560
  -2259120.516 9  -1752171.52748  22847688.683    22847689.8584   22847697.2574
      -920.620        -717.366
  -5688240.030 9  -4413416.24046  24505001.534    24505002.6424   24505011.5334
      3223.166        2511.558
  -6251264.270 9  -4861162.80448  20343156.648    20343157.7834   20343164.8934
        81.838          63.770
   1032072.984 9    811902.53046  24061343.932    24061344.6144   24061352.9794
     -1723.165       -1342.726
 97  5 14 16 45 30.0000000  0  7  2  4 27 26  9  7 15                0.000449968
    877305.228 9    685458.09348  21329841.418    21329842.1714   21329848.9084
      -655.339        -510.654
  -2046213.873 9  -1573180.74845  24317720.739    24317722.2334   24317730.2174
      3431.852        2674.170
   8438683.511 9   6537968.73148  21843929.535    21843930.5594   21843937.6424
     -2945.059       -2294.851
  -2231263.964 9  -1730465.13748  22852989.425    22852990.7834   22852998.1424
      -936.341        -729.616
  -5784903.663 9  -4488738.46946  24486607.071    24486608.0934   24486616.9644
      3221.273        2510.083
  -6253506.137 9  -4862909.71248  20342730.096    20342731.1794   20342738.2944
        67.626          52.696
   1084028.573 9    852387.33746  24071230.752    24071231.4674   24071239.8774
     -1740.453       -1356.197
 97  5 14 16 46  0.0000000  0  7  2  4 27 26  9  7 15                0.000451607
    897057.787 9    700849.68748  21333600.240    21333600.9784   21333607.7074
      -661.006        -515.070
  -2149163.788 9  -1653401.34946  24298129.978    24298131.4674   24298139.5684
      3431.953        2674.249
   8527222.545 9   6606960.13948  21860777.993    21860778.9994   21860786.1054
     -2957.073       -2304.213
  -2202937.025 9  -1708392.21948  22858379.988    22858381.2464   22858388.6194
      -951.628        -741.528
  -5881503.989 9  -4564011.37546  24468224.641    24468225.5884   24468234.5224
      3219.186        2508.457
  -6255316.340 9  -4864320.26348  20342385.614    20342386.7084   20342393.8384
        53.585          41.755
   1136506.231 9    893278.95346  24081216.938    24081217.6004   24081226.0884
     -1757.651       -1369.598
 97  5 14 16 46 30.0000000  0  7  2  4 27 26  9  7 15                0.000453243
    916986.956 9    716378.89948  21337392.600    21337393.3644   21337400.0844
      -667.232        -519.921
  -2252116.118 9  -1733623.91046  24278538.837    24278540.1714   24278548.1504
      3431.919        2674.223
   8616121.873 9   6676232.30048  21877695.001    21877696.0374   21877703.1504
     -2969.172       -2313.640
  -2174147.759 9  -1685959.05648  22863858.497    22863859.6914   22863867.0574
      -967.148        -753.622
  -5978039.241 9  -4639233.56246  24449854.418    24449855.4874   24449864.4194
      3217.001        2506.754
  -6256704.401 9  -4865401.86148  20342121.544    20342122.4934   20342129.6434
        39.231          30.570
   1189502.734 9    934574.85046  24091301.935    24091302.5794   24091311.0284
     -1775.007       -1383.122
 97  5 14 16 47  0.0000000  0  7  2  4 27 26  9  7 15                0.000454875
    937113.387 9    732061.82448  21341222.627    21341223.3014   21341230.0154
      -674.124        -525.291
  -2355063.370 9  -1813842.48646  24258948.540    24258949.8224   24258957.9314
      3431.785        2674.118
   8705397.185 9   6745797.42548  21894683.423    21894684.5914   21894691.7164
     -2981.954       -2323.601
  -2144890.513 9  -1663161.23148  22869425.977    22869427.1704   22869434.5704
      -982.849        -765.856
  -6074511.709 9  -4714406.83646  24431496.340    24431497.2794   24431506.2604
      3214.947        2505.153
  -6257651.568 9  -4866139.91848  20341941.310    20341942.2704   20341949.3934
        24.342          18.968
   1243022.738 9    976278.69646  24101486.465    24101487.1664   24101495.6414
     -1792.519       -1396.768
 97  5 14 16 47 30.0000000  0  7  2  4 27 26  9  7 15                0.000456505
    957448.927 9    747907.68948  21345092.370    21345093.0394   21345099.7514
      -681.291        -530.876
  -2458010.754 9  -1894061.19546  24239358.255    24239359.5464   24239367.6354
      3431.474        2673.876
   8795054.231 9   6815660.01448  21911744.682    21911745.7784   21911752.9154
     -2995.126       -2333.864
  -2115156.719 9  -1639992.06948  22875084.016    22875085.3554   22875092.7614
      -999.424        -778.772
  -6170916.345 9  -4789527.25346  24413151.336    24413151.9994   24413161.0004
      3212.042        2502.890
  -6258151.925 9  -4866529.80748  20341846.082    20341847.0924   20341854.2104
         8.946           6.971
   1297066.031 9   1018390.28146  24111770.619    24111771.3814   24111779.8394
     -1810.377       -1410.683
 97  5 14 16 48  0.0000000  0  7  2  4 27 26  9  7 15                0.000458127
    977980.784 9    763906.52648  21348999.417    21349000.1284   21349006.8364
      -687.621        -535.808
  -2560972.248 9  -1974290.86746  24219765.211    24219766.6014   24219774.6224
      3432.637        2674.782
   8885096.694 9   6885822.92148  21928879.328    21928880.3774   21928887.5104
     -3007.694       -2343.658
  -2084939.895 9  -1616446.51148  22880834.188    22880835.4464   22880842.8594
     -1015.117        -791.000
  -6267242.386 9  -4864586.43046  24394820.807    24394821.6854   24394830.6144
      3209.642        2501.020
  -6258193.979 9  -4866562.57548  20341838.053    20341839.1364   20341846.2204
        -6.030          -4.699
   1351632.251 9   1060909.35446  24122154.204    24122155.1194   24122163.4524
     -1827.505       -1424.030
 97  5 14 16 48 30.0000000  0  7  2  4 27 26  9  7 15                0.000459721
    998693.409 9    780046.22148  21352940.827    21352941.6044   21352948.3244
      -693.696        -540.542
  -2663990.810 9  -2054565.03646  24200161.223    24200162.7454   24200170.7494
      3434.635        2676.339
   8975493.792 9   6956262.18448  21946081.577    21946082.4794   21946089.5484
     -3019.327       -2352.722
  -2054267.055 9  -1592545.62948  22886671.032    22886672.3074   22886679.7434
     -1030.216        -802.766
  -6363519.084 9  -4939607.14446  24376500.224    24376500.8524   24376509.6674
      3208.189        2499.888
  -6257802.578 9  -4866257.58648  20341912.425    20341913.6254   20341920.6914
       -20.502         -15.976
   1406696.248 9   1103816.31146  24132632.560    24132633.5014   24132641.8474
     -1843.965       -1436.856
 97  5 14 16 49  0.0000000  0  7  2  4 27 26  9  7 15                0.000461294
   1019603.642 9    796339.89148  21356919.856    21356920.6654   21356927.4344
      -700.361        -545.736
  -2767039.835 9  -2134862.92746  24180551.730    24180553.2024   24180560.9694
      3435.097        2676.699
   9066251.035 9   7026982.06548  21963352.065    21963353.0674   21963360.1244
     -3031.217       -2361.987
  -2023127.259 9  -1568280.88548  22892596.806    22892598.0554   22892605.4994
     -1045.914        -814.998
  -6459728.128 9  -5014575.14846  24358191.964    24358192.8194   24358201.6414
      3205.458        2497.759
  -6256962.021 9  -4865602.61048  20342072.467    20342073.6004   20342080.6514
       -35.663         -27.789
   1462273.053 9   1147122.84546  24143208.599    24143209.4544   24143217.8324
     -1861.390       -1450.434
 97  5 14 16 49 30.0000000  0  7  2  4 27 26  9  7 15                0.000462853
   1040698.373 9    812777.33448  21360934.102    21360934.8654   21360941.6684
      -705.809        -549.981
  -2870107.538 9  -2215175.38246  24160938.559    24160940.0424   24160947.8084
      3435.951        2677.364
   9157356.136 9   7097973.01148  21980688.775    21980689.8024   21980696.9074
     -3042.394       -2370.697
  -1991531.146 9  -1543660.56248  22898609.287    22898610.5884   22898618.0724
     -1060.517        -826.377
  -6555851.764 9  -5089476.60046  24339900.070    24339901.0174   24339909.8394
      3202.681        2495.595
  -6255678.547 9  -4864602.50248  20342316.637    20342317.7904   20342324.8554
       -49.777         -38.787
   1518365.697 9   1190831.35046  24153882.803    24153883.6144   24153891.9014
     -1878.126       -1463.475
 97  5 14 16 50  0.0000000  0  7  2  4 27 26  9  7 15                0.000464405
   1061965.296 9    829348.94948  21364981.037    21364981.8324   21364988.6384
      -711.802        -554.651
  -2973185.169 9  -2295495.53346  24141323.407    24141325.0024   24141332.7074
      3435.895        2677.321
   9248807.188 9   7169233.53548  21998091.474    21998092.4104   21998099.5094
     -3054.140       -2379.849
  -1959484.701 9  -1518689.31948  22904707.702    22904708.8164   22904716.3414
     -1075.755        -838.251
  -6651884.457 9  -5164307.18546  24321626.019    24321626.5224   24321635.3614
      3199.611        2493.203
  -6253972.940 9  -4863273.46248  20342641.281    20342642.3624   20342649.4114
       -63.582         -49.544
   1574969.687 9   1234938.30546  24164654.264    24164655.0344   24164663.3254
     -1895.263       -1476.828
 97  5 14 16 50 30.0000000  0  7  2  4 27 26  9  7 15                0.000465962
   1083409.076 9    846058.37248  21369061.713    21369062.4784   21369069.3044
      -717.836        -559.353
  -3076244.067 9  -2375801.12146  24121711.838    24121713.4944   24121721.1434
      3434.438        2676.185
   9340608.399 9   7240766.90148  22015560.669    22015561.6134   22015568.7224
     -3066.156       -2389.212
  -1926981.224 9  -1493361.97848  22910892.685    22910893.9964   22910901.5034
     -1091.314        -850.375
  -6747829.782 9  -5239069.69946  24303367.797    24303368.6554   24303377.4544
      3196.521        2490.796
  -6251866.791 9  -4861632.30948  20343042.152    20343043.1624   20343050.2164
       -77.120         -60.094
   1632080.982 9   1279440.56846  24175522.236    24175523.0484   24175531.2984
     -1912.329       -1490.126
 97  5 14 16 51  0.0000000  0  7  2  4 27 26  9  7 15                0.000467540
   1105027.586 9    862903.95448  21373175.669    21373176.3854   21373183.2054
      -723.645        -563.879
  -3179250.783 9  -2456066.02746  24102110.454    24102112.0244   24102119.7974
      3432.722        2674.848
   9432776.370 9   7312586.06248  22033099.700    22033100.6294   22033107.8084
     -3078.708       -2398.993
  -1894006.081 9  -1467667.11748  22917167.692    22917168.9794   22917176.4754
     -1107.191        -862.746
  -6843673.927 9  -5313753.36546  24285129.241    24285130.1344   24285138.9044
      3192.882        2487.960
  -6249347.687 9  -4859669.37348  20343521.525    20343522.5044   20343529.5454
       -91.043         -70.943
   1689703.664 9   1324341.31846  24186487.519    24186488.3644   24186496.6044
     -1929.423       -1503.446
 97  5 14 16 51 30.0000000  0  7  2  4 27 26  9  7 15                0.000469133
   1126811.120 9    879878.12748  21377320.942    21377321.6894   21377328.4974
      -728.716        -567.831
  -3282225.422 9  -2536305.95646  24082514.982    24082516.5544   24082524.3354
      3432.121        2674.380
   9525327.191 9   7384703.55848  22050711.588    22050712.4914   22050719.6464
     -3091.408       -2408.889
  -1860558.582 9  -1441604.14348  22923532.540    22923533.8364   22923541.3534
     -1122.828        -874.931
  -6939416.209 9  -5388357.64646  24266910.543    24266910.9444   24266919.7134
      3189.794        2485.554
  -6246417.180 9  -4857385.86248  20344079.173    20344080.1764   20344087.1964
      -104.501         -81.429
   1747829.283 9   1369633.96146  24197548.484    24197549.2744   24197557.5974
     -1945.751       -1516.170
 97  5 14 16 52  0.0000000  0  7  2  4 27 26  9  7 15                0.000470736
   1148762.191 9    896982.84648  21381498.076    21381498.8354   21381505.6464
      -734.323        -572.200
  -3385169.438 9  -2616521.97046  24062925.347    24062926.9524   24062934.7154
      3431.095        2673.581
   9618264.040 9   7457121.83847  22068396.941    22068397.8294   22068405.0204
     -3104.068       -2418.754
  -1826626.409 9  -1415163.51348  22929989.527    22929990.9114   22929998.4364
     -1138.842        -887.409
  -7035062.992 9  -5462887.54346  24248709.178    24248709.9574   24248718.6544
      3187.041        2483.409
  -6243061.779 9  -4854771.26448  20344717.734    20344718.7024   20344725.7254
      -119.072         -92.783
   1806458.454 9   1415318.97346  24208705.345    24208706.1044   24208714.4824
     -1962.492       -1529.215
 97  5 14 16 52 30.0000000  0  7  2  4 27 26  9  7 15                0.000472331
   1170873.156 9    914212.15948  21385705.726    21385706.4304   21385713.2644
      -739.499        -576.233
  -3488081.071 9  -2696712.82246  24043341.919    24043343.4884   24043351.1654
      3429.988        2672.718
   9711574.233 9   7529831.03648  22086153.231    22086154.1704   22086161.3854
     -3116.273       -2428.265
  -1792230.856 9  -1388361.82648  22936534.782    22936536.1874   22936543.6894
     -1153.793        -899.059
  -7130628.844 9  -5537354.36346  24230523.316    24230524.3154   24230532.9584
      3184.203        2481.197
  -6239261.438 9  -4851809.96248  20345440.894    20345441.8954   20345448.9154
      -134.138        -104.523
   1865587.529 9   1461393.53946  24219957.167    24219958.0084   24219966.4444
     -1979.207       -1542.239
 97  5 14 16 53  0.0000000  0  7  2  4 27 26  9  7 15                0.000473908
   1193138.190 9    931561.52648  21389942.679    21389943.3674   21389950.1884
      -745.098        -580.596
  -3590974.185 9  -2776889.15746  24023761.922    24023763.4904   24023771.3634
      3429.437        2672.289
   9805241.807 9   7602818.71947  22103977.624    22103978.5374   22103985.7894
     -3128.225       -2437.578
  -1757395.191 9  -1361217.17448  22943163.852    22943165.2114   22943172.6884
     -1168.629        -910.620
  -7226102.602 9  -5611749.41946  24212355.561    24212356.2294   24212364.8434
      3180.579        2478.373
  -6235006.934 9  -4848494.75948  20346250.538    20346251.4914   20346258.4914
      -149.440        -116.447
   1925218.027 9   1507858.81646  24231304.498    24231305.3714   24231313.7284
     -1996.274       -1555.538
 97  5 14 16 53 30.0000000  0  7  2  4 27 26  9  7 15                0.000475463
   1215568.475 9    949039.66148  21394211.020    21394211.7274   21394218.5374
      -750.398        -584.726
  -3693857.571 9  -2857057.93346  24004183.678    24004185.3044   24004193.1674
      3429.142        2672.059
   9899246.842 9   7676069.36047  22121866.225    22121867.1484   22121874.3844
     -3138.651       -2445.702
  -1722128.116 9  -1333736.38748  22949874.887    22949876.3384   22949883.8044
     -1182.613        -921.517
  -7321480.907 9  -5686070.12046  24194205.348    24194206.2524   24194214.8534
      3177.905        2476.290
  -6230310.087 9  -4844834.87848  20347144.334    20347145.2624   20347152.2604
      -163.790        -127.629
   1985349.215 9   1554714.24946  24242747.116    24242747.9904   24242756.3334
     -2012.590       -1568.252
 97  5 14 16 54  0.0000000  0  7  2  4 27 26  9  7 15                0.000476992
   1238172.122 9    966652.88348  21398512.395    21398513.0484   21398519.8524
      -756.117        -589.182
  -3796715.331 9  -2937206.75346  23984610.419    23984612.0604   23984620.0394
      3428.322        2671.420
   9993557.913 9   7749558.47747  22139813.028    22139813.9974   22139821.2574
     -3148.526       -2453.397
  -1686441.349 9  -1305928.53748  22956665.998    22956667.3234   22956674.7994
     -1196.123        -932.044
  -7416775.232 9  -5760325.36046  24176071.060    24176072.3024   24176080.8934
      3175.336        2474.288
  -6225180.707 9  -4840837.95448  20348120.502    20348121.3584   20348128.3664
      -177.776        -138.527
   2045977.005 9   1601956.65446  24254284.317    24254285.1294   24254293.5124
     -2028.915       -1580.973
 97  5 14 16 54 30.0000000  0  7  2  4 27 26  9  7 15                0.000478507
   1260962.349 9    984411.49848  21402849.287    21402849.9004   21402856.6774
      -762.859        -594.436
  -3899533.679 9  -3017324.82246  23965044.594    23965046.1364   23965054.2714
      3426.823        2670.252
  10088181.057 9   7823290.77547  22157819.307    22157820.2204   22157827.4864
     -3159.180       -2461.699
  -1650339.652 9  -1277797.33748  22963535.889    22963537.2374   22963544.7544
     -1210.299        -943.090
  -7511971.013 9  -5834503.82546  24157955.585    24157957.0824   24157965.6734
      3171.371        2471.198
  -6219628.951 9  -4836511.90748  20349176.917    20349177.8404   20349184.8224
      -191.846        -149.490
   2107103.111 9   1649587.35346  24265916.271    24265917.0734   24265925.4734
     -2045.685       -1594.040
 97  5 14 16 55  0.0000000  0  7  2  4 27 26  9  7 15                0.000480016
   1283956.504 9   1002329.01248  21407224.907    21407225.5584   21407232.3084
      -770.149        -600.116
  -4002319.275 9  -3097417.43846  23945485.130    23945486.6664   23945494.7884
      3425.299        2669.064
  10183117.336 9   7897267.06447  22175885.093    22175885.9864   22175893.2964
     -3170.078       -2470.191
  -1613804.568 9  -1249328.45748  22970488.256    22970489.6284   22970497.1514
     -1225.588        -955.004
  -7607043.984 9  -5908586.59446  24139863.838    24139865.2504   24139873.8434
      3166.692        2467.552
  -6213657.098 9  -4831858.51148  20350313.310    20350314.2434   20350321.2064
      -206.332        -160.778
   2168725.626 9   1697604.86946  24277642.763    24277643.5224   24277651.8724
     -2062.490       -1607.135
 97  5 14 16 55 30.0000000  0  7  2  4 27 26  9  7 15                0.000481527
   1307153.933 9   1020404.91848  21411639.183    21411639.8974   21411646.6264
      -776.540        -605.096
  -4105057.678 9  -3177473.21346  23925934.584    23925936.0754   23925944.3634
      3423.493        2667.657
  10278379.102 9   7971496.97847  22194012.817    22194013.6814   22194021.0134
     -3181.133       -2478.805
  -1576807.025 9  -1220499.21548  22977528.729    22977530.0044   22977537.5674
     -1241.219        -967.184
  -7701983.735 9  -5982565.55246  24121797.329    24121798.6974   24121807.3314
      3162.299        2464.129
  -6207256.693 9  -4826871.17948  20351531.255    20351532.2014   20351539.1494
      -220.789        -172.043
   2230843.111 9   1746008.05946  24289463.330    24289464.0594   24289472.5344
     -2078.982       -1619.986
 97  5 14 16 56  0.0000000  0  7  2  4 27 26  9  7 15                0.000483042
   1330530.434 9   1038620.36548  21416087.627    21416088.2854   21416095.0374
      -782.137        -609.457
  -4207744.889 9  -3257489.14546  23906393.697    23906395.1884   23906403.5054
      3421.980        2666.478
  10373978.970 9   8045990.34447  22212204.944    22212205.7674   22212213.1064
     -3192.565       -2487.713
  -1539344.063 9  -1191307.34148  22984657.650    22984658.9794   22984666.5764
     -1256.561        -979.138
  -7796784.697 9  -6056436.34946  24103757.294    24103758.6134   24103767.2294
      3157.436        2460.340
  -6200425.673 9  -4821548.29848  20352831.145    20352832.1144   20352839.0254
      -234.942        -183.072
   2293451.394 9   1794793.70046  24301377.317    24301378.0574   24301386.4564
     -2095.139       -1632.576
 97  5 14 16 56 30.0000000  0  7  2  4 27 26  9  7 15                0.000484571
   1354083.596 9   1056973.47548  21420569.629    21420570.3054   21420577.0494
      -788.428        -614.359
  -4310374.865 9  -3337460.49346  23886863.891    23886865.4444   23886873.5414
      3419.749        2664.739
  10469938.036 9   8120763.60547  22230465.344    22230466.1984   22230473.5174
     -3204.944       -2497.359
  -1501400.526 9  -1161740.97448  22991878.003    22991879.3904   22991887.0344
     -1273.234        -992.130
  -7891421.729 9  -6130179.41346  24085748.379    24085749.7084   24085758.3294
      3151.384        2455.624
  -6193154.558 9  -4815882.48448  20354214.735    20354215.7724   20354222.6674
      -250.202        -194.963
   2356552.044 9   1843963.00546  24313384.924    24313385.6944   24313394.0904
     -2111.890       -1645.629
 97  5 14 16 57  0.0000000  0  7  2  4 27 26  9  7 15                0.000486111
   1377802.065 9   1075455.39448  21425083.075    21425083.7984   21425090.5514
      -793.239        -618.108
  -4412949.883 9  -3417388.97946  23867344.646    23867346.1104   23867354.1594
      3418.053        2663.418
  10566250.193 9   8195811.99547  22248792.971    22248793.7964   22248801.1414
     -3216.310       -2506.216
  -1462968.612 9  -1131794.01948  22999191.280    22999192.7434   22999200.4194
     -1289.230       -1004.595
  -7985895.294 9  -6203795.09846  24067770.677    24067771.9514   24067780.5394
      3146.572        2451.874
  -6185441.321 9  -4809872.16448  20355682.560    20355683.5064   20355690.4244
      -264.273        -205.927
   2420142.293 9   1893513.80046  24325485.801    24325486.5564   24325494.9854
     -2127.868       -1658.079
 97  5 14 16 57 30.0000000  0  7  2  4 27 26  9  7 15                0.000487661
   1401669.359 9   1094053.28348  21429624.834    21429625.5844   21429632.3284
      -798.297        -622.050
  -4515467.152 9  -3497272.52446  23847836.009    23847837.6344   23847845.6494
      3416.283        2662.039
  10662910.462 9   8271131.64747  22267186.785    22267187.6444   22267195.0004
     -3227.907       -2515.252
  -1424066.227 9  -1101480.47548  23006594.218    23006595.6694   23006603.3104
     -1304.278       -1016.321
  -8080229.076 9  -6277301.85646  24049820.031    24049820.7864   24049829.4124
      3142.352        2448.586
  -6177315.032 9  -4803539.98548  20357228.990    20357229.8934   20357236.7974
      -277.682        -216.376
   2484214.296 9   1943439.99446  24337678.438    24337679.0714   24337687.5154
     -2143.837       -1670.522
 97  5 14 16 58  0.0000000  0  7  2  4 27 26  9  7 15                0.000489218
   1425703.652 9   1112781.29548  21434198.390    21434199.1514   21434205.9064
      -803.817        -626.351
  -4617930.025 9  -3577113.63846  23828337.849    23828339.4654   23828347.5994
      3414.965        2661.012
  10759922.205 9   8346725.17847  22285647.483    22285648.4044   22285655.7864
     -3239.118       -2523.988
  -1384719.448 9  -1070820.67248  23014081.679    23014083.1174   23014090.7694
     -1318.390       -1027.317
  -8174433.094 9  -6350707.49746  24031893.185    24031894.3854   24031902.9514
      3138.351        2445.468
  -6168787.646 9  -4796895.26248  20358851.764    20358852.5994   20358859.4984
      -290.547        -226.400
   2548768.143 9   1993741.65646  24349962.680    24349963.2684   24349971.8904
     -2159.417       -1682.663
 97  5 14 16 58 30.0000000  0  7  2  4 27 26  9  7 15                0.000490783
   1449931.238 9   1131659.92848  21438808.761    21438809.5284   21438816.2944
      -810.737        -631.743
  -4720336.277 9  -3656910.66346  23808850.345    23808851.9744   23808860.2514
      3412.728        2659.269
  10857280.732 9   8422588.93347  22304174.221    22304175.1304   22304182.5194
     -3250.818       -2533.105
  -1344940.681 9  -1039824.25348  23021651.329    23021652.8004   23021660.4304
     -1332.870       -1038.600
  -8268507.094 9  -6424011.81646  24013991.238    24013992.6374   24014001.2304
      3134.088        2442.146
  -6159856.027 9  -4789935.55148  20360551.421    20360552.2504   20360559.1374
      -304.319        -237.132
   2613806.694 9   2044421.01646  24362339.108    24362339.6924   24362348.3784
     -2175.961       -1695.554
 97  5 14 16 59  0.0000000  0  7  2  4 27 26  9  7 15                0.000492348
   1474355.224 9   1150691.60048  21443456.473    21443457.2174   21443464.0084
      -817.878        -637.308
  -4822682.734 9  -3736661.09446  23789374.355    23789375.9814   23789384.1824
      3410.136        2657.249
  10954978.993 9   8498717.40147  22322765.597    22322766.5074   22322773.9174
     -3262.618       -2542.300
  -1304742.624 9  -1008501.09748  23029300.862    23029302.2324   23029309.8704
     -1347.242       -1049.799
  -8362479.283 9  -6497236.80946  23996108.986    23996110.3084   23996118.8844
      3130.561        2439.398
  -6150529.597 9  -4782668.20248  20362326.300    20362327.0284   20362333.9094
      -317.695        -247.555
   2679330.876 9   2095478.76646  24374807.982    24374808.6014   24374817.2094
     -2192.537       -1708.470
 97  5 14 16 59 30.0000000  0  7  2  4 27 26  9  7 15                0.000493914
   1498991.433 9   1169888.64048  21448144.585    21448145.3074   21448152.1344
      -824.931        -642.803
  -4924962.250 9  -3816359.34946  23769911.199    23769912.7394   23769920.9134
      3407.998        2655.583
  11053021.966 9   8575114.47747  22341422.557    22341423.5264   22341430.9054
     -3273.911       -2551.099
  -1264130.411 9   -976855.26248  23037029.105    23037030.5034   23037038.1464
     -1360.690       -1060.278
  -8456350.761 9  -6570383.33446  23978245.838    23978247.1044   23978255.6874
      3127.155        2436.744
  -6140802.711 9  -4775088.80448  20364177.239    20364177.9984   20364184.8764
      -331.347        -258.192
   2745341.418 9   2146915.51546  24387369.333    24387370.0144   24387378.7114
     -2208.528       -1720.931
 97  5 14 17  0  0.0000000  0  7  2  4 27 26  9  7 15                0.000495467
   1523832.303 9   1189245.15648  21452871.653    21452872.3514   21452879.1974
      -831.342        -647.799
  -5027178.567 9  -3896008.40446  23750459.928    23750461.4664   23750469.5614
      3406.125        2654.123
  11151387.681 9   8651763.04247  22360140.909    22360141.9154   22360149.3794
     -3283.982       -2558.947
  -1223109.243 9   -944890.74548  23044835.130    23044836.6024   23044844.2494
     -1374.315       -1070.895
  -8550114.189 9  -6643445.65746  23960403.049    23960404.3994   23960413.0494
      3123.507        2433.901
  -6130660.777 9  -4767185.99348  20366107.114    20366107.9404   20366114.8154
      -345.072        -268.887
   2811826.501 9   2198722.03846  24400021.169    24400021.7994   24400030.3754
     -2224.069       -1733.041
 97  5 14 17  0 30.0000000  0  7  2  4 27 26  9  7 15                0.000496999
   1548864.706 9   1208750.91348  21457635.131    21457635.8584   21457642.7224
      -837.530        -652.621
  -5129336.476 8  -3975611.94646  23731020.017    23731021.4924   23731029.5834
      3404.282        2652.687
  11250048.316 9   8728641.41247  22378915.537    22378916.4564   22378923.8944
     -3293.597       -2566.439
  -1181672.735 9   -912602.58748  23052720.318    23052721.7184   23052729.3674
     -1388.360       -1081.839
  -8643774.612 9  -6716427.71746  23942580.201    23942581.3834   23942589.9974
      3120.338        2431.432
  -6120105.148 9  -4758960.82748  20368115.901    20368116.5854   20368123.4654
      -358.672        -279.485
   2878778.461 9   2250892.34246  24412761.699    24412762.4614   24412771.0134
     -2239.478       -1745.048
 97  5 14 17  1  0.0000000  0  7  2  4 27 26  9  7 15                0.000498516
   1574082.418 9   1228401.07248  21462433.910    21462434.6314   21462441.5104
      -843.704        -657.432
  -5231434.582 9  -4055168.85746  23711591.384    23711592.9284   23711600.9754
      3402.150        2651.026
  11349000.029 9   8805746.58347  22397745.364    22397746.3564   22397753.8624
     -3303.189       -2573.914
  -1139800.638 9   -879974.98048  23060688.318    23060689.7774   23060697.3974
     -1402.978       -1093.230
  -8737320.912 9  -6789320.84446  23924778.912    23924780.0364   23924788.6724
      3115.795        2427.892
  -6109140.491 9  -4750416.93848  20370202.327    20370203.0224   20370209.9054
      -372.402        -290.183
   2946195.277 9   2303424.89346  24425590.698    24425591.3594   24425600.0204
     -2254.990       -1757.135
 97  5 14 17  1 30.0000000  0  7  2  4 27 26  9  7 15                0.000500023
   1599493.255 9   1248201.71548  21467269.470    21467270.1384   21467277.0024
      -850.198        -662.492
  -5333461.752 9  -4134670.49546  23692176.213    23692177.6424   23692185.8644
      3399.665        2649.090
  11448240.340 9   8883076.66047  22416630.247    22416631.1934   22416638.6954
     -3312.817       -2581.416
  -1097493.093 9   -847008.10548  23068739.254    23068740.6834   23068748.3024
     -1417.323       -1104.408
  -8830707.232 9  -6862089.32046  23907007.818    23907009.1404   23907017.7394
      3110.150        2423.494
  -6097748.344 9  -4741539.93648  20372370.076    20372370.8404   20372377.7374
      -386.998        -301.557
   3014083.095 9   2356324.45046  24438509.343    24438510.0694   24438518.8074
     -2270.767       -1769.429
 97  5 14 17  2  0.0000000  0  7  2  4 27 26  9  7 15                0.000501519
   1625095.067 9   1268151.16848  21472141.384    21472142.0384   21472148.8814
      -856.415        -667.336
  -5435419.676 9  -4214118.20646  23672774.014    23672775.6454   23672783.8554
      3397.607        2647.486
  11547766.014 9   8960629.08747  22435569.388    22435570.3434   22435577.8214
     -3322.305       -2588.809
  -1054759.400 9   -813709.16048  23076871.163    23076872.6834   23076880.2984
     -1431.411       -1115.385
  -8923933.727 9  -6934733.25746  23889267.363    23889268.6474   23889277.2454
      3105.122        2419.575
  -6085927.975 9  -4732329.25848  20374619.290    20374620.1354   20374627.0424
      -400.850        -312.351
   3082440.410 8   2409589.84246  24451517.436    24451518.0464   24451526.8604
     -2286.300       -1781.532
 97  5 14 17  2 30.0000000  0  7  2  4 27 26  9  7 15                0.000503003
   1650879.796 9   1288243.15748  21477048.038    21477048.7414   21477055.5764
      -862.412        -672.009
  -5537308.618 9  -4293512.12646  23653385.153    23653386.9174   23653395.1674
      3395.026        2645.475
  11647584.674 9   9038409.81147  22454564.352    22454565.2474   22454572.7174
     -3332.312       -2596.607
  -1011614.113 9   -780089.49248  23085081.507    23085083.0084   23085090.5814
     -1444.732       -1125.765
  -9017010.556 9  -7007260.56546  23871555.575    23871556.6244   23871565.2364
      3100.070        2415.639
  -6073695.061 9  -4722797.11648  20376947.234    20376947.9834   20376954.8724
      -414.564        -323.037
   3151263.578 8   2463218.26046  24464614.010    24464614.6194   24464623.3674
     -2301.741       -1793.564
 97  5 14 17  3  0.0000000  0  7  2  4 27 26  9  7 15                0.000504481
   1676852.504 9   1308481.62348  21481990.515    21481991.2094   21481998.0264
      -868.999        -677.142
  -5639104.086 9  -4372833.27346  23634014.174    23634015.9274   23634023.9704
      3391.236        2642.522
  11747719.157 9   9116436.62547  22473619.359    22473620.2794   22473627.7374
     -3343.307       -2605.174
   -968070.713 9   -746159.61748  23093367.656    23093369.0904   23093376.6344
     -1457.967       -1136.078
  -9109924.347 9  -7079660.84846  23853874.868    23853875.6164   23853884.2394
      3094.275        2411.123
  -6061039.599 9  -4712935.71448  20379355.713    20379356.2424   20379363.1564
      -429.177        -334.424
   3220555.180 8   2517211.66946  24477799.692    24477800.3294   24477809.2434
     -2317.699       -1805.999
 97  5 14 17  3 30.0000000  0  7  2  4 27 26  9  7 15                0.000505949
   1703014.158 9   1328867.32048  21486968.898    21486969.6194   21486976.4484
      -875.550        -682.247
  -5740792.215 9  -4452070.72546  23614663.578    23614665.2974   23614673.3084
      3387.454        2639.575
  11848178.034 9   9194716.20347  22492735.994    22492736.9534   22492744.4654
     -3354.535       -2613.923
   -924142.166 9   -711929.62547  23101727.120    23101728.4664   23101735.9914
     -1471.275       -1146.448
  -9202685.144 9  -7151941.90546  23836222.585    23836223.7344   23836232.3634
      3089.434        2407.351
  -6047950.344 9  -4702736.29548  20381846.449    20381847.0654   20381854.0124
      -443.826        -345.838
   3290314.172 8   2571569.28546  24491074.362    24491075.0044   24491084.0224
     -2333.457       -1818.278
 97  5 14 17  4  0.0000000  0  7  2  4 27 26  9  7 15                0.000507412
   1729363.584 9   1349399.33348  21491983.100    21491983.7744   21491990.6054
      -881.491        -686.876
  -5842371.662 9  -4531223.53746  23595333.841    23595335.4504   23595343.2354
      3383.985        2636.871
  11948967.877 9   9273253.67147  22511915.798    22511916.6834   22511924.1784
     -3365.111       -2622.164
   -879806.617 9   -677382.46847  23110163.958    23110165.2604   23110172.8134
     -1484.818       -1157.001
  -9295307.577 9  -7224115.16547  23818597.375    23818598.2164   23818606.8164
      3084.817        2403.754
  -6034441.576 9  -4692209.98048  20384417.045    20384417.6984   20384424.6364
      -457.122        -356.199
   3360536.560 8   2626287.98745  24504437.254    24504437.9244   24504446.9164
     -2348.558       -1830.045
 97  5 14 17  4 30.0000000  0  7  2  4 27 26  9  7 15                0.000508873
   1755887.844 9   1370067.57848  21497030.466    21497031.1994   21497038.0144
      -886.982        -691.155
  -5943844.788 9  -4610293.45246  23576024.052    23576025.7004   23576033.6084
      3380.698        2634.310
  12050068.160 9   9352033.05047  22531154.614    22531155.4204   22531162.9384
     -3374.976       -2629.851
   -835068.316 9   -642521.47148  23118677.462    23118678.7404   23118686.2534
     -1498.001       -1167.274
  -9387781.144 9  -7296172.41246  23801000.023    23801001.0024   23801009.5904
      3080.012        2400.009
  -6020539.435 9  -4681377.14548  20387062.521    20387063.2194   20387070.1304
      -469.883        -366.143
   3431209.249 8   2681357.56345  24517885.899    24517886.5604   24517895.4754
     -2363.106       -1841.381
 97  5 14 17  5  0.0000000  0  7  2  4 27 26  9  7 15                0.000510343
   1782597.971 9   1390880.65648  21502113.249    21502113.9684   21502120.7904
      -893.593        -696.306
  -6045199.300 9  -4689270.97946  23556736.904    23556738.5764   23556746.4224
      3376.349        2630.921
  12151478.428 9   9431053.97947  22550452.346    22550453.2594   22550460.6944
     -3385.538       -2638.082
   -789899.664 9   -607325.16047  23127272.727    23127274.0454   23127281.5424
     -1513.222       -1179.134
  -9480089.794 9  -7368101.16247  23783434.245    23783435.1714   23783443.7744
      3073.918        2395.261
  -6006238.652 9  -4670233.67848  20389783.790    20389784.5844   20389791.5034
      -483.367        -376.650
   3502337.036 8   2736781.77445  24531421.180    24531421.7924   24531430.7164
     -2378.683       -1853.519
 97  5 14 17  5 30.0000000  0  7  2  4 27 26  9  7 15                0.000511763
   1809494.425 9   1411838.92548  21507231.475    21507232.2054   21507239.0104
      -899.877        -701.203
  -6146443.577 9  -4768162.63746  23537470.768    23537472.4654   23537480.0904
      3372.996        2628.309
  12253187.227 9   9510307.52147  22569806.942    22569807.8314   22569815.3004
     -3395.309       -2645.695
   -744281.110 9   -571778.26847  23135953.649    23135954.9934   23135962.4664
     -1528.334       -1190.910
  -9572228.229 9  -7439897.26747  23765900.655    23765901.7454   23765910.3174
      3068.323        2390.901
  -5991558.576 9  -4658794.65748  20392577.317    20392578.0974   20392584.9904
      -495.544        -386.138
   3573917.490 8   2792558.71545  24545042.517    24545043.0904   24545052.1614
     -2393.586       -1865.132
 97  5 14 17  6  0.0000000  0  7  2  4 27 26  9  7 15                0.000513269
   1836585.421 9   1432948.78048  21512386.719    21512387.4944   21512394.2774
      -906.974        -706.733
  -6247577.320 9  -4846968.10846  23518225.755    23518227.3644   23518235.0244
      3368.547        2624.842
  12355187.432 9   9589788.11047  22589216.949    22589217.8694   22589225.2664
     -3405.573       -2653.693
   -698212.483 9   -535880.64547  23144720.281    23144721.6004   23144729.0864
     -1543.581       -1202.790
  -9664186.086 9  -7511552.67347  23748401.836    23748402.6854   23748411.3134
      3061.522        2385.602
  -5976511.200 9  -4647069.43148  20395440.776    20395441.4724   20395448.3914
      -508.575        -396.292
   3645951.518 8   2848689.08845  24558749.982    24558750.7244   24558759.9544
     -2409.352       -1877.417
 97  5 14 17  6 30.0000000  0  7  2  4 27 26  9  7 15                0.000514798
   1863882.117 9   1454218.92448  21517581.197    21517581.8984   21517588.6694
      -912.970        -711.405
  -6348582.504 9  -4925673.41146  23499005.247    23499006.7344   23499014.4314
      3364.899        2621.999
  12457497.911 9   9669510.46647  22608685.960    22608686.9434   22608694.3654
     -3415.480       -2661.413
   -651694.358 9   -499632.77647  23153572.358    23153573.7434   23153581.2524
     -1557.779       -1213.854
  -9755958.151 9  -7583063.30447  23730938.086    23730938.9254   23730947.5654
      3056.517        2381.702
  -5961066.548 9  -4635034.64048  20398379.717    20398380.4694   20398387.3754
      -521.362        -406.256
   3718450.151 8   2905181.47845  24572545.978    24572546.7934   24572556.0064
     -2424.044       -1888.865
 97  5 14 17  7  0.0000000  0  7  2  4 27 26  9  7 15                0.000516323
   1891369.037 9   1475637.29248  21522811.823    21522812.5334   21522819.2844
      -919.727        -716.670
  -6449471.647 9  -5004288.30446  23479806.455    23479808.1264   23479815.9454
      3360.873        2618.862
  12560117.523 9   9749473.72047  22628213.957    22628214.9064   22628222.2934
     -3425.956       -2669.576
   -604749.284 9   -463052.21248  23162505.679    23162507.0904   23162514.6504
     -1571.765       -1224.752
  -9847586.773 9  -7654462.16247  23713501.649    23713502.4964   23713511.1714
      3051.729        2377.971
  -5945232.116 9  -4622696.12348  20401392.810    20401393.6804   20401400.5804
      -534.396        -416.412
   3791394.040 8   2962020.82545  24586426.746    24586427.6504   24586436.9214
     -2439.014       -1900.530
 97  5 14 17  7 30.0000000  0  7  2  4 27 26  9  7 15                0.000517846
   1919064.079 9   1497217.84048  21528082.017    21528082.7574   21528089.5074
      -926.842        -722.215
  -6550245.306 9  -5082813.23046  23460629.782    23460631.5584   23460639.3934
      3357.042        2615.877
  12663051.886 9   9829682.22447  22647801.659    22647802.6764   22647810.1654
     -3436.505       -2677.796
   -557406.595 9   -426161.83847  23171514.753    23171516.1044   23171523.7334
     -1584.659       -1234.799
  -9939074.510 9  -7725751.23847  23696092.064    23696092.9064   23696101.5474
      3047.198        2374.440
  -5929005.886 9  -4610052.30948  20404480.533    20404481.4624   20404488.3694
      -547.689        -426.771
   3864784.427 8   3019208.12545  24600392.567    24600393.4034   24600402.6554
     -2453.932       -1912.155
 97  5 14 17  8  0.0000000  0  7  2  4 27 26  9  7 15                0.000519352
   1946967.262 9   1518960.57348  21533391.882    21533392.5834   21533399.3344
      -933.507        -727.408
  -6650900.701 9  -5161246.00246  23441475.747    23441477.4824   23441485.2864
      3353.147        2612.842
  12766299.833 9   9910135.10847  22667449.149    22667450.1694   22667457.7164
     -3446.818       -2685.832
   -509683.851 9   -388975.32847  23180596.161    23180597.4574   23180605.0964
     -1596.995       -1244.412
 -10030419.508 9  -7796929.09347  23678709.594    23678710.5084   23678719.1194
      3042.288        2370.614
  -5912371.336 9  -4597090.32248  20407646.182    20407646.9204   20407653.8164
      -561.440        -437.486
   3938621.645 8   3076743.57545  24614443.322    24614444.1674   24614453.3754
     -2468.731       -1923.686
 97  5 14 17  8 30.0000000  0  7  2  4 27 26  9  7 15                0.000520842
   1975071.183 9   1540859.71848  21538739.858    21538740.5794   21538747.3564
      -939.980        -732.452
  -6751446.749 9  -5239593.52146  23422342.381    23422344.1244   23422352.1124
      3349.995        2610.386
  12869849.593 9   9990823.17747  22687154.177    22687155.1244   22687162.6434
     -3456.191       -2693.136
   -461601.786 9   -351508.81947  23189745.874    23189747.2404   23189754.8514
     -1608.183       -1253.130
 -10121617.845 9  -7867992.66247  23661355.212    23661356.0144   23661364.5474
      3037.547        2366.920
  -5895337.325 9  -4583817.06548  20410887.667    20410888.4094   20410895.2704
      -573.783        -447.104
   4012895.431 8   3134619.21045  24628577.209    24628578.0714   24628587.1034
     -2482.732       -1934.596
 97  5 14 17  9  0.0000000  0  7  2  4 27 26  9  7 15                0.000522353
   2003403.109 9   1562936.53048  21544131.287    21544131.9964   21544138.7714
      -948.167        -738.831
  -6851874.319 9  -5317848.71146  23403231.424    23403233.2574   23403241.3934
      3345.807        2607.122
  12973692.333 9  10071739.53547  22706914.719    22706915.7864   22706923.3834
     -3465.886       -2700.690
   -413172.320 9   -313771.62647  23198961.733    23198963.1044   23198970.6984
     -1619.943       -1262.293
 -10212630.815 9  -7938911.79747  23644035.952    23644036.7624   23644045.3114
      3030.542        2361.461
  -5877919.338 9  -4570244.60748  20414202.159    20414202.9694   20414209.8134
      -586.849        -457.285
   4087613.487 8   3192841.03645  24642795.610    24642796.4414   24642805.4864
     -2497.800       -1946.338
 97  5 14 17  9 30.0000000  0  7  2  4 27 26  9  7 15                0.000523890
   2031966.261 9   1585193.52248  21549566.698    21549567.3714   21549574.1764
      -956.246        -745.127
  -6952186.652 9  -5396014.15047  23384142.733    23384144.5804   23384152.5824
      3341.132        2603.479
  13077814.703 9  10152873.81247  22726728.618    22726729.6834   22726737.2784
     -3476.023       -2708.589
   -364389.305 9   -275758.94347  23208244.844    23208246.2164   23208253.8294
     -1632.885       -1272.378
 -10303432.647 9  -8009666.40647  23626757.151    23626757.7254   23626766.2554
      3022.555        2355.238
  -5860112.422 9  -4556369.08248  20417590.692    20417591.4864   20417598.3484
      -600.720        -468.094
   4162777.502 8   3251410.35645  24657098.863    24657099.6204   24657108.7454
     -2513.520       -1958.587
 97  5 14 17 10  0.0000000  0  7  2  4 27 26  9  7 15                0.000525447
   2060744.275 9   1607617.93548  21555042.910    21555043.6404   21555050.4614
      -962.843        -750.267
  -7052371.970 9  -5474080.61647  23365078.265    23365080.0114   23365087.8174
      3337.396        2600.568
  13182221.889 9  10234230.01347  22746596.745    22746597.8374   22746605.4144
     -3485.069       -2715.638
   -315228.105 9   -237451.56547  23217600.050    23217601.3184   23217608.9064
     -1644.997       -1281.816
 -10394010.636 9  -8080246.58447  23609520.457    23609521.2664   23609529.7654
      3015.472        2349.718
  -5841904.401 9  -4542181.00948  20421055.420    20421056.3944   20421063.2394
      -613.642        -478.163
   4238392.802 8   3310331.34045  24671487.846    24671488.7434   24671497.8594
     -2528.025       -1969.890
 97  5 14 17 10 30.0000000  0  7  2  4 27 26  9  7 15                0.000527018
   2089726.414 9   1630201.40648  21560558.054    21560558.7624   21560565.6234
      -969.338        -755.328
  -7152445.729 9  -5552060.15847  23346034.914    23346036.6384   23346044.2664
      3333.788        2597.757
  13286908.333 9  10315803.80247  22766517.773    22766518.9604   22766526.6304
     -3494.300       -2722.831
   -265698.307 9   -198856.96747  23227025.254    23227026.5604   23227034.1474
     -1657.253       -1291.366
 -10484382.730 9  -8150666.33147  23592322.997    23592323.9404   23592332.4404
      3009.119        2344.768
  -5823315.666 9  -4527696.27748  20424592.957    20424593.7154   20424600.5804
      -626.028        -487.814
   4314440.010 8   3369588.86645  24685959.300    24685960.0024   24685969.1174
     -2541.985       -1980.768
 97  5 14 17 11  0.0000000  0  7  2  4 27 26  9  7 15                0.000528583
   2118901.498 9   1652935.22448  21566109.836    21566110.5964   21566117.4824
      -975.464        -760.102
  -7252392.131 9  -5629940.45747  23327015.771    23327017.5234   23327025.0804
      3329.300        2594.260
  13391885.658 9  10397604.28047  22786494.472    22786495.5884   22786503.1844
     -3504.173       -2730.524
   -215775.555 9   -159956.16247  23236525.173    23236526.5424   23236534.1524
     -1670.994       -1302.073
 -10574561.781 9  -8220935.64947  23575162.283    23575163.3664   23575171.8424
      3003.033        2340.026
  -5804325.982 9  -4512899.11648  20428206.528    20428207.3264   20428214.1454
      -640.038        -498.731
   4390916.451 8   3429180.87145  24700512.186    24700512.9064   24700522.1194
     -2556.324       -1991.941
 97  5 14 17 11 30.0000000  0  7  2  4 27 26  9  7 15                0.000530109
   2148241.882 9   1675797.84748  21571693.204    21571693.8924   21571700.7994
      -980.941        -764.370
  -7352198.960 9  -5707711.95547  23308023.167    23308024.8554   23308032.5074
      3324.098        2590.206
  13497160.092 9  10479636.24047  22806527.570    22806528.6624   22806536.3274
     -3514.268       -2738.391
   -165438.528 9   -120732.55847  23246104.002    23246105.3914   23246113.0194
     -1684.889       -1312.900
 -10664571.808 9  -8291073.25947  23558033.890    23558034.9064   23558043.4034
      2997.388        2335.627
  -5784921.734 9  -4497778.91348  20431899.143    20431899.8204   20431906.6344
      -653.670        -509.353
   4467816.634 8   3489103.04245  24715146.014    24715146.4874   24715155.8474
     -2570.623       -2003.083
 97  5 14 17 12  0.0000000  0  7  2  4 27 26  9  7 15                0.000531610
   2177762.606 9   1698800.99548  21577310.821    21577311.4994   21577318.4244
      -987.381        -769.388
  -7451843.751 9  -5785357.23847  23289061.503    23289063.1744   23289070.7814
      3318.715        2586.012
  13602735.594 9  10561902.82647  22826617.936    22826619.0124   22826626.6804
     -3524.141       -2746.084
   -114685.379 9    -81184.68447  23255761.998    23255763.3784   23255771.0244
     -1698.682       -1323.648
 -10754407.200 9  -8361074.79747  23540938.581    23540939.7504   23540948.2414
      2991.374        2330.941
  -5765106.746 9  -4482338.65648  20435669.700    20435670.4994   20435677.2754
      -667.402        -520.053
   4545144.678 8   3549358.61845  24729861.186    24729861.6614   24729870.8194
     -2584.779       -2014.114
 97  5 14 17 12 30.0000000  0  7  2  4 27 26  9  7 15                0.000533093
   2207477.533 9   1721955.46948  21582965.340    21582966.0714   21582973.0034
      -993.643        -774.267
  -7551321.489 9  -5862872.32247  23270131.448    23270133.2164   23270140.6824
      3312.899        2581.480
  13708592.948 9  10644389.03547  22846761.938    22846762.9994   22846770.6784
     -3532.933       -2752.935
    -63517.862 9    -41313.91847  23265498.745    23265500.2504   23265507.9064
     -1712.387       -1334.328
 -10844060.598 9  -8430934.51947  23523878.135    23523879.1964   23523887.6714
      2985.398        2326.284
  -5744889.322 9  -4466584.80848  20439516.925    20439517.7564   20439524.4954
      -680.553        -530.301
   4622893.153 8   3609941.80345  24744656.205    24744656.7044   24744665.8584
     -2598.542       -2024.838
 97  5 14 17 13  0.0000000  0  7  2  4 27 26  9  7 15                0.000534556
   2237378.038 9   1745254.55248  21588655.278    21588655.9624   21588662.8914
      -999.897        -779.141
  -7650621.694 9  -5940249.07947  23251235.126    23251236.9964   23251244.3754
      3307.127        2576.982
  13814702.257 9  10727071.55747  22866953.965    22866954.9694   22866962.6974
     -3541.042       -2759.254
    -11944.924 9     -1127.24247  23275312.912    23275314.2774   23275321.9434
     -1725.635       -1344.651
 -10933528.749 9  -8500649.88247  23506852.767    23506853.9214   23506862.3664
      2979.078        2321.359
  -5724281.262 9  -4450526.57148  20443438.535    20443439.3594   20443446.0854
      -693.180        -540.140
   4701059.170 8   3670850.34445  24759530.784    24759531.3054   24759540.4184
     -2612.562       -2035.763
 97  5 14 17 13 30.0000000  0  7  2  4 27 26  9  7 15                0.000536016
   2267473.362 9   1768705.44048  21594382.270    21594382.9594   21594389.8394
     -1006.288        -784.120
  -7749759.198 9  -6017499.04847  23232369.922    23232371.7224   23232379.0204
      3302.360        2573.267
  13921045.139 9  10809936.08247  22887190.388    22887191.4064   22887199.1074
     -3548.177       -2764.813
     40013.162 9     39359.54147  23285200.235    23285201.6304   23285209.3064
     -1737.776       -1354.111
 -11022807.231 9  -8570217.46747  23489863.577    23489864.7224   23489873.0784
      2972.985        2316.612
  -5703309.472 9  -4434184.90548  20447429.360    20447430.1954   20447436.9004
      -704.654        -549.081
   4779641.492 8   3732083.27545  24774484.479    24774485.1304   24774494.2054
     -2625.949       -2046.194
 97  5 14 17 14  0.0000000  0  7  2  4 27 26  9  7 15                0.000537477
   2297780.751 9   1792321.57548  21600149.589    21600150.2914   21600157.1694
     -1013.462        -789.711
  -7848748.514 9  -6094633.57447  23213532.831    23213534.5874   23213541.9414
      3297.532        2569.505
  14027614.615 9  10892977.17847  22907469.975    22907470.9914   22907478.6124
     -3555.951       -2770.871
     92342.917 9     80135.93347  23295158.163    23295159.6734   23295167.4154
     -1750.253       -1363.833
 -11111885.552 9  -8639629.08547  23472912.591    23472913.6684   23472921.9584
      2966.179        2311.308
  -5681970.997 9  -4417557.51448  20451489.958    20451490.8014   20451497.4794
      -717.284        -558.923
   4858637.946 8   3793638.91345  24789516.913    24789517.6544   24789526.8194
     -2639.938       -2057.095
 97  5 14 17 14 30.0000000  0  7  2  4 27 26  9  7 15                0.000538930
   2328296.411 9   1816100.00148  21605956.611    21605957.2764   21605964.1304
     -1020.747        -795.387
  -7947590.947 9  -6171653.60647  23194723.738    23194725.4134   23194732.8934
      3292.142        2565.305
  14134422.780 9  10976204.22947  22927794.924    22927795.8864   22927803.6454
     -3564.551       -2777.572
    145043.854 9    121201.56347  23305186.921    23305188.3194   23305196.0644
     -1762.831       -1373.635
 -11200763.680 9  -8708884.69647  23455999.599    23456000.7074   23456008.9604
      2959.323        2305.966
  -5660255.507 9  -4400636.34048  20455622.335    20455623.1074   20455629.7784
      -730.262        -569.035
   4938050.725 8   3855518.95745  24804628.626    24804629.5144   24804638.6634
     -2654.241       -2068.240
 97  5 14 17 15  0.0000000  0  7  2  4 27 26  9  7 15                0.000540370
   2359020.252 9   1840040.64648  21611803.133    21611803.8404   21611810.6924
     -1027.565        -800.700
  -8046284.223 9  -6248557.43147  23175943.238    23175944.8084   23175952.1824
      3287.405        2561.614
  14241488.483 9  11059632.02947  22948168.928    22948169.9124   22948177.5414
     -3573.192       -2784.305
    198103.968 9    162547.09047  23315283.930    23315285.3644   23315293.1294
     -1774.485       -1382.716
 -11289453.291 9  -8777993.40647  23439122.427    23439123.6484   23439131.8134
      2953.203        2301.197
  -5638161.504 9  -4383420.23048  20459826.512    20459827.4354   20459834.1214
      -742.668        -578.702
   5017882.582 8   3917725.53845  24819820.077    24819821.0074   24819830.0824
     -2667.880       -2078.868
 97  5 14 17 15 30.0000000  0  7  2  4 27 26  9  7 15                0.000541793
   2389953.090 9   1864144.14448  21617689.450    21617690.1784   21617697.0284
     -1034.613        -806.192
  -8144836.951 9  -6325351.74147  23157189.250    23157190.7624   23157198.1984
      3282.565        2557.843
  14348810.750 9  11143259.72447  22968591.626    22968592.6234   22968600.3534
     -3581.680       -2790.919
    251503.467 9    204157.04347  23325445.676    23325446.9894   23325454.7834
     -1785.469       -1391.274
 -11377959.399 9  -8846959.12847  23422280.239    23422281.4824   23422289.5724
      2946.940        2296.317
  -5615693.952 9  -4365913.04148  20464101.886    20464102.8314   20464109.5184
      -755.271        -588.523
   5098117.546 8   3980246.23545  24835088.465    24835089.1954   24835098.4104
     -2681.275       -2089.305
 97  5 14 17 16  0.0000000  0  7  2  4 27 26  9  7 15                0.000543212
   2421099.209 9   1888413.83848  21623616.373    21623617.0994   21623623.9444
     -1041.568        -811.611
  -8243228.613 9  -6402020.52947  23138465.934    23138467.4214   23138474.9664
      3277.103        2553.587
  14456397.789 9  11227093.73347  22989064.796    22989065.8314   22989073.5264
     -3590.617       -2797.883
    305234.028 9    246024.96247  23335670.314    23335671.6084   23335679.4464
     -1796.541       -1399.902
 -11466261.719 9  -8915766.05747  23405477.066    23405478.0424   23405486.1204
      2940.152        2291.028
  -5592845.277 9  -4348108.87448  20468449.736    20468450.7134   20468457.4374
      -767.696        -598.205
   5178755.704 8   4043081.10946  24850433.525    24850434.2234   24850443.3364
     -2694.429       -2099.555
 97  5 14 17 16 30.0000000  0  7  2  4 27 26  9  7 15                0.000544629
   2452451.411 9   1912844.12448  21629582.575    21629583.2474   21629590.1004
     -1048.674        -817.149
  -8341448.154 9  -6478555.20747  23119775.480    23119776.8474   23119784.3334
      3270.771        2548.653
  14564250.607 9  11311134.82947  23009588.717    23009589.6934   23009597.3494
     -3599.547       -2804.842
    359298.840 9    288153.34047  23345958.569    23345959.8214   23345967.6944
     -1807.871       -1408.731
 -11554358.410 9  -8984412.74747  23388712.669    23388713.7714   23388721.8294
      2932.840        2285.330
  -5569630.774 9  -4330019.64548  20472867.320    20472868.2424   20472874.9814
      -780.004        -607.795
   5259790.554 8   4106225.09346  24865853.988    24865854.7984   24865863.9334
     -2707.889       -2110.043
 97  5 14 17 17  0.0000000  0  7  2  4 27 26  9  7 15                0.000546076
   2484021.028 9   1937443.81548  21635590.075    21635590.7554   21635597.6024
     -1055.554        -822.510
  -8439469.645 9  -6554935.57047  23101122.761    23101123.9964   23101131.3934
      3264.339        2543.641
  14672377.972 9  11395389.84147  23030164.653    23030165.6464   23030173.4334
     -3608.555       -2811.861
    413709.110 9    330550.90747  23356312.497    23356313.7664   23356321.6594
     -1819.244       -1417.593
 -11642217.808 9  -9052874.53147  23371993.618    23371994.6544   23372002.6504
      2924.757        2279.031
  -5546044.934 9  -4311641.06548  20477355.561    20477356.4884   20477363.2144
      -792.055        -617.186
   5341230.808 8   4169684.97346  24881351.425    24881352.5014   24881361.5614
     -2721.168       -2120.391
 97  5 14 17 17 30.0000000  0  7  2  4 27 26  9  7 15                0.000547552
   2515795.746 9   1962203.32948  21641636.615    21641637.3134   21641644.1544
     -1062.355        -827.809
  -8537297.762 9  -6631165.26647  23082506.581    23082507.9024   23082515.2244
      3257.846        2538.581
  14780780.172 9  11479859.03047  23050792.930    23050793.9014   23050801.7634
     -3617.976       -2819.202
    468471.221 9    373222.63947  23366733.350    23366734.6724   23366742.5644
     -1831.396       -1427.062
 -11729825.338 9  -9121140.05747  23355322.522    23355323.4704   23355331.4104
      2916.175        2272.344
  -5522093.861 9  -4292977.89248  20481913.387    20481914.2484   20481920.9714
      -804.361        -626.775
   5423069.372 8   4233455.22446  24896925.014    24896925.9044   24896934.9234
     -2734.504       -2130.782
 97  5 14 17 18  0.0000000  0  7  2  4 27 26  9  7 15                0.000549050
   2547762.654 9   1987112.59948  21647719.702    21647720.4024   21647727.2484
     -1068.825        -832.851
  -8634942.223 9  -6707251.81947  23063925.317    23063926.7084   23063934.1184
      3251.755        2533.835
  14889461.128 9  11564545.40447  23071474.242    23071475.2914   23071483.1454
     -3627.421       -2826.562
    523611.029 9    416188.69547  23377226.129    23377227.3664   23377235.3404
     -1844.526       -1437.293
 -11817187.451 9  -9189214.35247  23338698.065    23338698.9844   23338706.8424
      2908.141        2266.084
  -5497781.035 9  -4274032.83248  20486539.981    20486540.8574   20486547.5504
      -816.507        -636.239
   5505302.661 8   4297533.06245  24912573.612    24912574.3044   24912583.4754
     -2747.760       -2141.112
 97  5 14 17 18 30.0000000  0  7  2  4 27 26  9  7 15                0.000550554
   2579911.592 9   2012163.71848  21653837.443    21653838.1704   21653844.9684
     -1074.527        -837.294
  -8732411.950 9  -6783202.24647  23045377.299    23045378.7934   23045386.1984
      3246.138        2529.458
  14998409.225 9  11649439.96746  23092206.367    23092207.4134   23092215.2204
     -3635.728       -2833.035
    579125.216 9    459446.45147  23387790.123    23387791.3534   23387799.3864
     -1856.373       -1446.524
 -11904324.204 9  -9257113.04747  23322116.531    23322117.3754   23322125.2084
      2900.941        2260.474
  -5473114.744 9  -4254812.34648  20491233.836    20491234.7114   20491241.3904
      -827.942        -645.150
   5587917.707 8   4361908.36745  24928294.832    24928295.3964   24928304.6994
     -2759.962       -2150.620
 97  5 14 17 19  0.0000000  0  7  2  4 27 26  9  7 15                0.000552059
   2612246.257 9   2037359.55648  21659990.562    21659991.2704   21659998.0694
     -1080.953        -842.301
  -8829701.516 9  -6859012.29447  23026863.656    23026865.1954   23026872.5694
      3239.965        2524.648
  15107613.512 9  11734534.13447  23112987.366    23112988.3664   23112996.2224
     -3644.362       -2839.763
    635001.476 9    502986.36547  23398423.184    23398424.3244   23398432.3704
     -1868.593       -1456.046
 -11991237.489 9  -9324837.60747  23305577.408    23305578.2644   23305586.0184
      2893.561        2254.723
  -5448096.020 9  -4235317.24048  20495994.865    20495995.6574   20496002.2764
      -839.761        -654.359
   5670917.347 8   4426583.34846  24944088.942    24944089.7214   24944098.9254
     -2773.079       -2160.841
 97  5 14 17 19 30.0000000  0  7  2  4 27 26  9  7 15                0.000553554
   2644771.755 9   2062704.10048  21666180.007    21666180.6804   21666187.4744
     -1087.870        -847.691
  -8926811.841 9  -6934682.67547  23008384.199    23008385.8134   23008393.1214
      3233.635        2519.716
  15217057.273 9  11819814.93047  23133813.902    23133814.9464   23133822.7294
     -3652.232       -2845.895
    691238.245 9    546807.18447  23409124.588    23409125.8544   23409133.9374
     -1880.794       -1465.554
 -12077947.895 9  -9392404.09047  23289076.660    23289077.7564   23289085.4794
      2886.745        2249.412
  -5422730.163 9  -4215551.63348  20500821.780    20500822.6074   20500829.2394
      -851.674        -663.642
   5754298.492 8   4491555.62946  24959955.835    24959956.6824   24959965.8674
     -2786.107       -2170.992
 97  5 14 17 20  0.0000000  0  8 24  2  4 27 26  9  7 15             0.000555032
   -372295.00018   -268974.15455  25154420.785    25154423.9215   25154435.4645
      3516.599        2740.207
   2677496.266 9   2088203.71848  21672407.200    21672407.9484   21672414.6994
     -1093.937        -852.418
  -9023738.330 9  -7010209.78547  22989939.803    22989941.3544   22989948.6044
      3227.775        2515.149
  15326716.069 9  11905263.29146  23154681.484    23154682.4334   23154690.2214
     -3658.536       -2850.807
    747815.096 9    590893.02047  23419890.752    23419892.0784   23419900.1834
     -1890.829       -1473.373
 -12164461.372 9  -9459817.12747  23272613.869    23272614.7444   23272622.4084
      2880.633        2244.649
  -5397019.579 9  -4195517.41748  20505714.301    20505715.1214   20505721.7724
      -862.461        -672.048
   5838055.611 8   4556820.85646  24975894.353    24975895.1734   24975904.3384
     -2797.912       -2180.191
 97  5 14 17 20 30.0000000  0  8 24  2  4 27 26  9  7 15             0.000556500
   -477822.584 8   -351203.34745  25134339.654    25134344.0275   25134355.7584
      3518.771        2741.899
   2710424.010 9   2113861.70048  21678673.132    21678673.9054   21678680.6254
     -1100.856        -857.810
  -9120461.680 9  -7085578.61847  22971533.808    22971535.4584   22971542.7134
      3220.909        2509.799
  15436581.456 9  11990872.62646  23175588.087    23175589.0764   23175596.9454
     -3665.360       -2856.125
    804696.605 9    635216.23047  23430714.900    23430716.3114   23430724.4204
     -1901.014       -1481.310
 -12250765.552 9  -9527067.06247  23256190.614    23256191.5874   23256199.2234
      2873.336        2238.963
  -5370969.249 9  -4175218.46348  20510671.498    20510672.3174   20510678.9904
      -873.913        -680.971
   5922188.728 8   4622379.07146  24991904.506    24991905.1744   24991914.4414
     -2810.664       -2190.128
 97  5 14 17 21  0.0000000  0  8 24  2  4 27 26  9  7 15             0.000557963
   -583422.387 8   -433488.87645  25114245.627    25114249.0864   25114260.6694
      3521.268        2743.845
   2743567.872 9   2139688.08548  21684980.196    21684980.9794   21684987.6924
     -1108.710        -863.930
  -9216973.898 9  -7160782.93347  22953168.190    22953169.8734   22953177.0824
      3213.323        2503.888
  15546659.453 9  12076647.61546  23196535.136    23196536.2194   23196544.1924
     -3673.201       -2862.235
    861895.872 9    679787.05447  23441599.711    23441601.0314   23441609.1604
     -1912.292       -1490.098
 -12336840.300 9  -9594138.23047  23239811.174    23239812.0644   23239819.6364
      2865.004        2232.471
  -5344561.264 9  -4154640.81748  20515696.798    20515697.6004   20515704.2774
      -886.679        -690.919
   6006710.684 8   4688240.28646  25007988.566    25007989.1904   25007998.3284
     -2824.049       -2200.558
 97  5 14 17 21 30.0000000  0  8 24  2  4 27 26  9  7 15             0.000559411
   -689127.405 8   -515856.36745  25094131.454    25094134.1614   25094145.5814
      3525.124        2746.850
   2776924.700 9   2165680.41948  21691327.865    21691328.6074   21691335.3044
     -1115.606        -869.303
  -9313289.604 9  -7235834.10647  22934839.964    22934841.5954   22934848.8314
      3207.263        2499.166
  15656951.636 9  12162589.51546  23217523.167    23217524.2324   23217532.1114
     -3680.188       -2867.679
    919410.134 9    724603.32147  23452544.376    23452545.6374   23452553.7924
     -1922.376       -1497.955
 -12422678.198 9  -9661024.83447  23223476.694    23223477.6314   23223485.1614
      2857.032        2226.259
  -5317784.231 9  -4133775.60648  20520792.376    20520793.1264   20520799.7714
      -899.013        -700.530
   6091606.273 8   4754392.64146  25024143.733    25024144.3204   25024153.5784
     -2836.201       -2210.027
 97  5 14 17 22  0.0000000  0  8 24  2  4 27 26  9  7 15             0.000560861
   -794922.243 8   -598293.78745  25073999.951    25074002.1044   25074013.3894
      3528.028        2749.113
   2810517.066 9   2191856.28448  21697720.287    21697721.0334   21697727.7134
     -1123.594        -875.528
  -9409392.260 9  -7310719.27347  22916552.183    22916553.8374   22916561.0914
      3199.803        2493.353
  15767487.059 9  12248720.92046  23238557.417    23238558.4114   23238566.3924
     -3688.551       -2874.196
    977242.216 9    769667.25347  23463549.345    23463550.7604   23463558.9024
     -1932.877       -1506.138
 -12508247.614 9  -9727702.24347  23207193.409    23207194.2744   23207201.7804
      2847.897        2219.140
  -5290612.860 9  -4112603.11848  20525962.942    20525963.6934   20525970.3184
      -912.132        -710.752
   6176891.250 8   4820848.42946  25040372.915    25040373.5214   25040382.8254
     -2849.253       -2220.197
 97  5 14 17 22 30.0000000  0  8 24  2  4 27 26  9  7 15             0.000562311
   -900808.619 8   -680802.54845  25053850.601    25053852.3624   25053863.8194
      3531.051        2751.468
   2844342.873 9   2218214.04948  21704157.139    21704157.9094   21704164.5684
     -1131.239        -881.485
  -9505284.186 9  -7385440.26547  22898304.736    22898306.2664   22898313.4344
      3193.279        2488.269
  15878267.223 9  12335043.04946  23259638.279    23259639.2734   23259647.2004
     -3696.505       -2880.394
   1035389.591 9    814976.87847  23474614.547    23474615.8744   23474624.0244
     -1943.545       -1514.451
 -12593553.857 9  -9794174.57647  23190959.953    23190960.9574   23190968.4744
      2839.416        2212.532
  -5263052.764 9  -4091127.72648  20531207.428    20531208.2314   20531214.8524
      -925.124        -720.876
   6262560.428 8   4887603.57646  25056675.123    25056675.8614   25056685.0604
     -2861.813       -2229.984
 97  5 14 17 23  0.0000000  0  8 24  2  4 27 26  9  7 15             0.000563742
  -1006787.683 8   -763383.60545  25033683.767    25033685.3394   25033696.6264
      3533.852        2753.651
   2878392.083 9   2244745.89848  21710636.516    21710637.2444   21710643.9204
     -1138.789        -887.368
  -9600986.411 9  -7460013.41247  22880093.213    22880094.6874   22880101.8974
      3186.641        2483.097
  15989282.367 9  12421548.28646  23280763.873    23280764.8364   23280772.8304
     -3704.549       -2886.662
   1093851.731 9    860531.76547  23485739.515    23485740.8134   23485748.9814
     -1954.042       -1522.630
 -12678615.014 9  -9860455.92947  23174773.421    23174774.2504   23174781.7844
      2831.259        2206.176
  -5235107.957 9  -4069352.56148  20536525.214    20536525.9784   20536532.5784
      -937.778        -730.736
   6348600.032 8   4954647.37846  25073047.893    25073048.6754   25073057.9834
     -2874.157       -2239.603
 97  5 14 17 23 30.0000000  0  7 24  2  4 27 26  9  7                0.000565172
  -1112834.390 8   -846017.27545  25013503.836    25013505.2374   25013516.4954
      3535.529        2754.958
   2912670.592 9   2271456.41448  21717159.454    21717160.2254   21717166.9044
     -1146.582        -893.441
  -9696483.196 9  -7534426.48547  22861920.815    22861922.1854   22861929.3724
      3179.481        2477.518
  16100539.458 9  12508242.02946  23301935.281    23301936.2714   23301944.5334
     -3712.697       -2893.011
   1152631.500 9    906334.16747  23496924.979    23496926.2284   23496934.4254
     -1964.751       -1530.975
 -12763429.985 9  -9926545.45747  23158633.388    23158634.4144   23158641.9784
      2823.011        2199.749
  -5206794.799 9  -4047290.36848  20541912.989    20541913.7914   20541920.3764
      -949.772        -740.082
 97  5 14 17 24  0.0000000  0  7 24  2  4 27 26  9  7                0.000566610
  -1218934.791 8   -928692.81045  24993313.641    24993314.8174   24993326.0174
      3537.278        2756.321
   2947170.209 9   2298339.22348  21723724.529    21723725.3034   21723731.9984
     -1153.507        -898.837
  -9791766.211 9  -7608672.97147  22843788.995    22843790.4094   22843797.6654
      3172.455        2472.043
  16212028.168 9  12595116.26446  23323150.755    23323151.9134   23323160.0844
     -3719.925       -2898.643
   1211716.478 9    952374.37347  23508168.425    23508169.7264   23508177.9424
     -1974.649       -1538.688
 -12848012.825 9  -9992454.09947  23142537.803    23142538.8154   23142546.3374
      2815.425        2193.838
  -5178145.156 9  -4024965.97548  20547364.913    20547365.6494   20547372.2654
      -960.411        -748.372
 97  5 14 17 24 30.0000000  0  7 24  2  4 27 26  9  7                0.000568053
  -1325085.647 8  -1011407.77845  24973113.801    24973114.7624   24973126.0344
      3539.010        2757.670
   2981875.405 9   2325382.21848  21730328.688    21730329.4484   21730336.1684
     -1160.409        -904.215
  -9886837.536 9  -7682754.49947  22825697.542    22825698.9064   22825706.1974
      3165.348        2466.505
  16323732.333 9  12682158.39146  23344407.428    23344408.6124   23344416.7274
     -3727.167       -2904.286
   1271117.401 9    998660.76747  23519472.033    23519473.3634   23519481.5714
     -1985.511       -1547.151
 -12932359.465 9 -10058178.69347  23126487.117    23126488.1274   23126495.6364
      2807.412        2187.594
  -5149170.350 9  -4002388.21248  20552878.619    20552879.3764   20552885.9864
      -971.424        -756.954
 97  5 14 17 25  0.0000000  0  7 24  2  4 27 26  9  7                0.000569506
  -1431298.404 8  -1094170.78745  24952901.578    24952903.1474   24952914.3674
      3541.467        2759.585
   3016785.223 9   2352584.66148  21736971.796    21736972.5494   21736979.2824
     -1167.169        -909.482
  -9981691.935 9  -7756666.99747  22807647.197    22807648.5964   22807655.9514
      3157.901        2460.702
  16435640.957 9  12769359.83846  23365703.140    23365704.2454   23365712.4084
     -3733.750       -2909.416
   1330840.024 9   1045197.83347  23530836.786    23530838.2214   23530846.4354
     -1996.205       -1555.484
 -13016470.698 9 -10123719.85547  23110481.154    23110482.2184   23110489.7074
      2799.597        2181.504
  -5119883.593 9  -3979567.37248  20558451.625    20558452.4674   20558459.0764
      -981.370        -764.704
 97  5 14 17 25 30.0000000  0  7 24  2  4 27 26  9  7                0.000570976
  -1537577.692 8  -1176985.76245  24932677.975    24932679.0994   24932690.0624
      3543.349        2761.051
   3051906.504 9   2379951.87348  21743655.128    21743655.8974   21743662.6764
     -1174.577        -915.255
 -10076310.310 9  -7830395.61147  22789641.943    22789643.3944   22789650.6524
      3149.683        2454.298
  16547757.614 9  12856723.37546  23387038.317    23387039.3144   23387047.5034
     -3741.028       -2915.087
   1390892.214 9   1091991.71147  23542264.509    23542265.7974   23542274.0334
     -2007.523       -1564.304
 -13100330.458 9 -10189065.06747  23094523.220    23094524.1934   23094531.6514
      2790.671        2174.549
  -5090280.564 9  -3956500.08148  20564084.973    20564085.7294   20564092.3324
      -992.530        -773.400
 97  5 14 17 26  0.0000000  0  7 24  2  4 27 26  9  7                0.000572464
  -1643915.095 8  -1259846.05245  24912442.498    24912443.6014   24912454.6034
      3545.717        2762.896
   3087247.444 9   2407490.24848  21750380.332    21750381.0874   21750387.8264
     -1181.507        -920.655
 -10170680.834 9  -7903931.04347  22771683.722    22771685.1494   22771692.6144
      3141.687        2448.068
  16660088.015 9  12944253.48446  23408414.284    23408415.2104   23408423.3424
     -3747.611       -2920.216
   1451282.874 9   1139049.32847  23553756.571    23553757.8424   23553766.0454
     -2018.625       -1572.955
 -13183917.617 9 -10254197.86847  23078616.987    23078618.0714   23078625.4684
      2781.638        2167.510
  -5060339.588 9  -3933169.45648  20569782.522    20569783.2964   20569789.9124
     -1003.582        -782.012
 97  5 14 17 26 30.0000000  0  7 24  2  4 27 26  9  7                0.000573954
  -1750317.656 8  -1342756.99845  24892195.176    24892195.6594   24892206.7274
      3548.110        2764.761
   3122797.672 9   2435191.70848  21757145.323    21757146.1034   21757152.8504
     -1188.280        -925.932
 -10264806.439 9  -7977275.64047  22753772.232    22753773.6134   22753781.0744
      3133.663        2441.815
  16772615.383 9  13031937.09046  23429827.548    23429828.5314   23429836.5974
     -3753.880       -2925.101
   1512015.260 9   1186373.23947  23565313.499    23565314.9074   23565323.1204
     -2029.629       -1581.529
 -13267233.951 9 -10319119.62847  23062762.451    23062763.4964   23062770.8194
      2773.357        2161.057
  -5030061.361 9  -3909576.03948  20575544.284    20575545.0314   20575551.6374
     -1014.589        -790.589
 97  5 14 17 27  0.0000000  0  7 24  2  4 27 26  9  7                0.000575426
  -1856800.825 8  -1425730.89445  24871931.850    24871932.6644   24871943.7384
      3550.586        2766.690
   3158550.561 9   2463051.07848  21763948.948    21763949.6904   21763956.4354
     -1195.017        -931.182
 -10358694.267 9  -8050434.98647  22735905.971    22735907.3354   22735914.8124
      3125.618        2435.546
  16885325.562 9  13119763.13546  23451275.366    23451276.4404   23451284.6594
     -3760.105       -2929.952
   1573064.528 9   1233944.07547  23576930.936    23576932.2324   23576940.4424
     -2039.985       -1589.599
 -13350313.020 9 -10383856.51247  23046952.835    23046954.0244   23046961.3424
      2765.236        2154.729
  -4999460.464 9  -3885731.19248  20581367.417    20581368.1874   20581374.8294
     -1025.497        -799.089
 97  5 14 17 27 30.0000000  0  7 24  2  4 27 26  9  7                0.000576882
  -1963335.726 8  -1508745.00845  24851659.079    24851659.7904   24851670.6654
      3551.442        2767.357
   3194510.100 9   2491071.47648  21770791.839    21770792.5884   21770799.3354
     -1202.476        -936.994
 -10452334.562 9  -8123401.39847  22718086.508    22718088.0764   22718095.6074
      3117.003        2428.834
  16998237.662 9  13207746.51146  23472761.976    23472762.9624   23472771.2994
     -3767.401       -2935.637
   1634422.529 9   1281755.48447  23588606.931    23588608.2394   23588616.5194
     -2050.626       -1597.890
 -13433134.946 9 -10448393.02447  23031192.305    23031193.4914   23031200.7784
      2756.169        2147.664
  -4968515.776 9  -3861618.45348  20587256.019    20587256.7674   20587263.4084
     -1037.496        -808.438
 97  5 14 17 28  0.0000000  0  7 24  2  4 27 26  9  7                0.000578318
  -2069904.629 8  -1591785.57645  24831379.185    24831380.3394   24831391.2624
      3552.863        2768.465
   3230676.359 9   2519252.95448  21777674.065    21777674.8054   21777681.5974
     -1208.959        -942.046
 -10545736.457 9  -8196182.08047  22700312.627    22700314.2514   22700321.8324
      3109.529        2423.010
  17111341.120 9  13295879.02146  23494285.006    23494286.0184   23494294.1954
     -3773.153       -2940.119
   1696083.178 9   1329802.71947  23600340.492    23600341.8394   23600350.0924
     -2060.249       -1605.389
 -13515708.593 9 -10512736.07147  23015479.064    23015480.1874   23015487.4784
      2748.428        2141.632
  -4937236.398 9  -3837244.91548  20593208.179    20593209.0144   20593215.6664
     -1048.101        -816.702
 97  5 14 17 28 30.0000000  0  7 24  2  4 27 26  9  7                0.000579732
  -2176503.573 8  -1674849.64445  24811094.386    24811095.4264   24811106.0954
      3553.474        2768.941
   3267059.388 9   2547603.33948  21784597.525    21784598.2914   21784605.0894
     -1216.893        -948.228
 -10638898.185 9  -8268775.58247  22682584.614    22682586.1404   22682593.7194
      3101.081        2416.427
  17224636.887 9  13384161.34946  23515844.539    23515845.5224   23515853.7994
     -3780.197       -2945.608
   1758037.292 9   1378078.61547  23612129.982    23612131.3604   23612139.5864
     -2070.210       -1613.151
 -13598039.470 9 -10576889.94747  22999812.003    22999813.1174   22999820.3814
      2739.956        2135.031
  -4905622.553 9  -3812610.75248  20599224.174    20599224.9324   20599231.5934
     -1059.817        -825.831
 97  5 14 17 29  0.0000000  0  7 24  2  4 27 26  9  7                0.000581138
  -2283131.553 8  -1757936.28645  24790803.594    24790804.5144   24790815.5524
      3554.893        2770.046
   3303677.602 9   2576136.98548  21791565.784    21791566.4974   21791573.3464
     -1224.429        -954.101
 -10731822.565 9  -8341184.16347  22664901.727    22664903.2404   22664910.8034
      3093.712        2410.685
  17338140.629 9  13472605.76046  23537443.493    23537444.5764   23537452.8704
     -3786.943       -2950.865
   1820281.224 9   1426580.35647  23623974.496    23623976.0114   23623984.2394
     -2079.518       -1620.404
 -13680109.421 9 -10640840.50847  22984194.587    22984195.6884   22984202.9314
      2730.942        2128.007
  -4873661.440 9  -3787705.99348  20605306.270    20605306.9604   20605313.6104
     -1071.071        -834.601
 97  5 14 17 29 30.0000000  0  7 24  2  4 27 26  9  7                0.000582559
  -2389792.959 8  -1841048.97845  24770506.452    24770507.4064   24770518.4674
      3555.782        2770.739
   3340534.979 9   2604856.99348  21798579.476    21798580.2244   21798587.1054
     -1232.902        -960.703
 -10824518.814 9  -8413414.95147  22647262.242    22647263.7154   22647271.2644
      3085.787        2404.509
  17451856.135 9  13561215.14146  23559082.837    23559083.9294   23559092.3954
     -3794.183       -2956.506
   1882814.047 9   1475307.16747  23635874.090    23635875.6054   23635883.8454
     -2089.662       -1628.308
 -13761892.752 9 -10704567.72447  22968631.788    22968632.7964   22968640.0154
      2721.192        2120.409
  -4841355.059 9  -3762532.19248  20611454.072    20611454.6764   20611461.3234
     -1082.697        -843.660
 97  5 14 17 30  0.0000000  0  7 24  2  4 27 26  9  7                0.000583999
  -2496500.138 8  -1924197.37745  24750200.385    24750201.4924   24750212.7534
      3558.126        2772.566
   3377634.563 9   2633765.73248  21805639.268    21805640.0504   21805646.9404
     -1240.213        -966.400
 -10916975.928 9  -8485459.42347  22629668.045    22629669.6474   22629677.1974
      3078.148        2398.557
  17565773.812 9  13649982.09546  23580760.643    23580761.8564   23580770.2254
     -3800.214       -2961.206
   1945644.867 9   1524266.21147  23647830.479    23647831.9304   23647840.2174
     -2098.691       -1635.344
 -13843391.331 9 -10768073.05947  22953123.108    22953124.0554   22953131.2564
      2712.246        2113.438
  -4808713.287 9  -3737097.05348  20617665.563    20617666.2214   20617672.8704
     -1093.202        -851.846
 97  5 14 17 30 30.0000000  0  7 24  2  4 27 26  9  7                0.000585457
  -2603268.355 8  -2007393.29245  24729882.744    24729884.3234   24729895.1844
      3559.873        2773.927
   3414971.589 9   2662859.49548  21812744.262    21812745.0414   21812751.9684
     -1248.396        -972.776
 -11009179.328 9  -8557306.19347  22612122.355    22612123.9504   22612131.4714
      3069.160        2391.553
  17679899.040 9  13738910.79046  23602478.164    23602479.1954   23602487.6754
     -3807.748       -2967.076
   2008768.259 9   1573453.24747  23659842.424    23659843.9174   23659852.2084
     -2109.194       -1643.528
 -13924596.897 9 -10831350.06347  22937670.113    22937671.1264   22937678.2964
      2701.784        2105.286
  -4775732.808 9  -3711397.98048  20623941.510    20623942.1914   20623948.8154
     -1105.206        -861.199
 97  5 14 17 31  0.0000000  0  7 24  2  4 27 26  9  7                0.000586920
  -2710094.754 8  -2090634.59645  24709554.157    24709555.8334   24709566.7314
      3561.348        2775.076
   3452529.115 9   2692125.07748  21819891.246    21819892.0144   21819898.9854
     -1255.678        -978.450
 -11101124.546 9  -8628951.77447  22594625.656    22594627.2884   22594634.8204
      3060.073        2384.472
  17794234.098 9  13828002.97546  23624235.398    23624236.4984   23624244.9714
     -3814.855       -2972.614
   2072196.086 9   1622877.48747  23671912.320    23671913.8544   23671922.1354
     -2119.518       -1651.572
 -14005495.141 9 -10894387.60047  22922275.597    22922276.6624   22922283.7954
      2691.239        2097.069
  -4742402.232 9  -3685426.10648  20630284.106    20630284.7874   20630291.4174
     -1117.088        -870.458
 97  5 14 17 31 30.0000000  0  7 24  2  4 27 26  9  7                0.000588362
  -2816975.862 8  -2173918.49745  24689215.405    24689217.0524   24689227.8674
      3563.712        2776.918
   3490273.465 9   2721536.23548  21827073.760    21827074.5514   21827081.5044
     -1260.608        -982.292
 -11192796.492 9  -8700384.41447  22577181.054    22577182.6624   22577190.1434
      3051.291        2377.629
  17908756.464 9  13917241.12546  23646028.335    23646029.5014   23646037.9034
     -3819.987       -2976.613
   2135905.326 9   1672521.01547  23684035.838    23684037.3704   23684045.6624
     -2127.879       -1658.088
 -14086108.255 9 -10957202.96547  22906935.393    22906936.4794   22906943.5674
      2682.943        2090.605
  -4708740.366 9  -3659196.08148  20636689.674    20636690.4254   20636697.0424
     -1127.045        -878.217
 97  5 14 17 32  0.0000000  0  7 24  2  4 27 26  9  7                0.000589773
  -2923909.763 8  -2257243.52545  24668866.125    24668868.1544   24668879.1184
      3565.098        2777.998
   3528172.343 9   2751067.80448  21834285.683    21834286.4954   21834293.4444
     -1266.153        -986.613
 -11284191.000 9  -8771600.88447  22559789.123    22559790.8354   22559798.3034
      3041.868        2370.287
  18023447.081 9  14006610.38846  23667853.154    23667854.3574   23667862.8914
     -3826.026       -2981.319
   2199878.024 9   1722369.81147  23696209.350    23696210.9884   23696219.2674
     -2136.706       -1664.966
 -14166460.213 9 -11019814.82047  22891644.918    22891645.9864   22891653.0854
      2673.874        2083.538
  -4674766.047 9  -3632722.59248  20643154.756    20643155.5554   20643162.1254
     -1137.783        -886.584
 97  5 14 17 32 30.0000000  0  7 24  2  4 27 26  9  7                0.000591129
  -3030875.980 8  -2340593.78245  24648511.542    24648513.0514   24648524.0554
      3566.150        2778.818
   3566254.186 9   2780741.94548  21841532.468    21841533.2554   21841540.2004
     -1272.476        -991.540
 -11375305.012 9  -8842598.77447  22542450.790    22542452.4394   22542459.9134
      3032.662        2363.113
  18138324.127 9  14096124.88946  23689713.475    23689714.7354   23689723.2894
     -3832.251       -2986.170
   2264118.776 9   1772427.47947  23708433.865    23708435.6694   23708443.9254
     -2145.679       -1671.958
 -14246526.266 9 -11082203.90547  22876408.857    22876409.8864   22876416.9944
      2664.129        2075.945
  -4640461.607 9  -3605991.86748  20649682.685    20649683.4934   20649690.0554
     -1148.859        -895.215
 97  5 14 17 33  0.0000000  0  7 24  2  4 27 26  9  7                0.000592471
  -3137872.831 8  -2423967.80045  24628150.664    24628152.2814   24628163.0834
      3566.892        2779.396
   3604534.323 9   2810570.60448  21848816.972    21848817.7474   21848824.6844
     -1279.559        -997.059
 -11466137.585 9  -8913377.35047  22525165.892    22525167.5704   22525175.0304
      3022.835        2355.456
  18253385.771 9  14185783.21946  23711609.175    23711610.3744   23711618.8524
     -3838.405       -2990.965
   2328612.037 9   1822681.93347  23720706.663    23720708.3614   23720716.6484
     -2153.719       -1678.223
 -14326300.841 9 -11144365.86347  22861228.191    22861229.2464   22861236.3674
      2654.386        2068.353
  -4605836.265 9  -3579011.08648  20656271.740    20656272.5194   20656279.0544
     -1159.262        -903.321
 97  5 14 17 33 30.0000000  0  7 24  2  4 27 26  9  7                0.000593814
  -3244898.717 8  -2507364.64145  24607784.594    24607785.8644   24607796.6874
      3567.685        2780.014
   3643032.133 9   2840568.87448  21856142.891    21856143.6634   21856150.5784
     -1287.367       -1003.143
 -11556682.157 9  -8983931.52547  22507935.853    22507937.5024   22507944.9344
      3013.405        2348.108
  18368623.457 9  14275578.76146  23733538.382    23733539.4554   23733547.9404
     -3844.446       -2995.672
   2393339.018 9   1873118.50347  23733023.964    23733025.5374   23733033.8154
     -2161.793       -1684.514
 -14405796.478 9 -11206310.46747  22846100.739    22846101.7004   22846108.8314
      2644.949        2060.999
  -4570914.079 9  -3551799.00048  20662917.309    20662918.0024   20662924.5414
     -1169.253        -911.106
 97  5 14 17 34  0.0000000  0  7 24  2  4 27 26  9  7                0.000595186
  -3351943.285 8  -2590775.87145  24587414.600    24587416.0564   24587426.7634
      3568.826        2780.903
   3681790.947 9   2870770.52748  21863518.500    21863519.2474   21863526.1524
     -1296.373       -1010.161
 -11646950.710 9  -9054270.63747  22490758.380    22490760.0234   22490767.4114
      3004.620        2341.262
  18484051.124 9  14365522.30946  23755503.698    23755504.6664   23755513.2704
     -3850.370       -3000.288
   2458317.690 9   1923751.18847  23745389.067    23745390.5314   23745398.8324
     -2169.790       -1690.745
 -14484992.973 9 -11268021.97647  22831030.000    22831031.0684   22831038.1644
      2635.113        2053.335
  -4535676.111 9  -3524340.85148  20669622.950    20669623.5924   20669630.1124
     -1179.737        -919.276
 97  5 14 17 34 30.0000000  0  7 24  2  4 27 26  9  7                0.000596586
  -3459013.794 8  -2674207.44245  24567039.665    24567041.0574   24567052.1574
      3568.905        2780.965
   3720826.053 9   2901187.47048  21870946.684    21870947.4174   21870954.3284
     -1305.684       -1017.416
 -11736936.618 9  -9124389.46847  22473634.661    22473636.2414   22473643.6504
      2994.397        2333.296
  18599655.784 9  14455603.78346  23777502.675    23777503.6084   23777512.2984
     -3856.527       -3005.086
   2523540.112 9   1974573.80447  23757800.611    23757802.0244   23757810.3124
     -2178.514       -1697.543
 -14563887.091 9 -11329497.87447  22816017.002    22816017.9614   22816025.0464
      2624.584        2045.130
  -4500116.401 9  -3496631.99648  20676389.659    20676390.3764   20676396.9004
     -1190.898        -927.972
 97  5 14 17 35  0.0000000  0  7 24  2  4 27 26  9  7                0.000597995
  -3566084.067 8  -2757638.76245  24546665.099    24546666.4254   24546677.3424
      3568.368        2780.546
   3760119.184 9   2931805.47548  21878423.976    21878424.6654   21878431.5944
     -1314.337       -1024.159
 -11826623.235 9  -9194275.10047  22456567.845    22456569.4174   22456576.8574
      2984.269        2325.404
  18715430.479 9  14545817.70646  23799533.842    23799534.8964   23799543.4994
     -3862.150       -3009.468
   2589021.246 9   2025598.01947  23770261.372    23770262.7454   23770270.9874
     -2187.555       -1704.588
 -14642487.143 9 -11390744.62647  22801059.764    22801060.8304   22801067.8684
      2614.815        2037.518
  -4464236.817 9  -3468673.88548  20683217.251    20683218.0514   20683224.5844
     -1201.706        -936.394
 97  5 14 17 35 30.0000000  0  7 24  2  4 27 26  9  7                0.000599403
  -3673134.755 9  -2841054.90246  24526293.807    24526295.3194   24526305.9774
      3568.105        2780.341
   3799666.479 9   2962621.52848  21885949.595    21885950.2684   21885957.1984
     -1322.244       -1030.320
 -11916014.149 9  -9263930.32247  22439557.174    22439558.8474   22439566.2934
      2974.956        2318.148
  18831361.542 8  14636153.53346  23821594.819    23821595.8834   23821604.4344
     -3866.881       -3013.154
   2654778.161 9   2076837.12947  23782774.489    23782775.8794   23782784.1664
     -2196.410       -1711.488
 -14720789.384 9 -11451759.31947  22786159.360    22786160.3544   22786167.4124
      2605.064        2029.920
  -4428027.607 9  -3440458.92748  20690107.603    20690108.4304   20690114.9694
     -1212.479        -944.789
 97  5 14 17 36  0.0000000  0  7 24  2  4 27 26  9  7                0.000600802
  -3780174.438 9  -2924462.38745  24505924.932    24505926.2194   24505936.7534
      3568.163        2780.387
   3839456.419 9   2993626.65348  21893521.405    21893522.0764   21893529.0144
     -1329.918       -1036.300
 -12005104.915 9  -9333351.65047  22422603.741    22422605.3604   22422612.8324
      2964.677        2310.138
  18947447.407 8  14726609.92246  23843685.225    23843686.4264   23843694.9374
     -3871.822       -3017.004
   2720811.973 9   2128291.99047  23795340.312    23795341.7534   23795350.0224
     -2205.386       -1718.483
 -14798779.306 9 -11512530.64447  22771318.226    22771319.3404   22771326.3684
      2594.714        2021.855
  -4391482.675 9  -3411982.36548  20697061.908    20697062.6774   20697069.2064
     -1223.259        -953.189
 97  5 14 17 36 30.0000000  0  7 24  2  4 27 26  9  7                0.000602184
  -3887221.339 9  -3007875.53345  24485554.330    24485555.8084   24485566.4164
      3567.846        2780.140
   3879453.175 9   3024792.93848  21901132.561    21901133.2494   21901140.1604
     -1336.794       -1041.658
 -12093901.852 9  -9402544.04047  22405706.230    22405707.8634   22405715.3714
      2955.087        2302.665
  19063671.105 9  14817173.78446  23865802.025    23865803.2584   23865811.6524
     -3876.776       -3020.864
   2787106.567 9   2179950.06747  23807955.845    23807957.2614   23807965.5674
     -2214.441       -1725.538
 -14876472.586 9 -11573070.81847  22756533.681    22756534.7424   22756541.7854
      2584.494        2013.891
  -4354643.439 9  -3383276.47948  20704072.114    20704072.9594   20704079.4844
     -1232.945        -960.736
 97  5 14 17 37  0.0000000  0  7 24  2  4 27 26  9  7                0.000603572
  -3994267.549 8  -3091288.21345  24465184.405    24465185.6714   24465196.0984
      3568.581        2780.712
   3919662.380 9   3056124.76948  21908784.117    21908784.8084   21908791.7354
     -1343.675       -1047.019
 -12182420.453 9  -9471519.54647  22388861.596    22388863.2634   22388870.8204
      2946.215        2295.752
  19180049.258 8  14907857.93846  23887948.033    23887949.2084   23887957.7544
     -3881.683       -3024.688
   2853668.972 9   2231816.82147  23820622.352    23820623.7234   23820632.0674
     -2222.694       -1731.969
 -14953855.249 9 -11633368.95847  22741808.223    22741809.2664   22741816.3204
      2574.435        2006.053
  -4317509.731 9  -3354341.13248  20711138.568    20711139.2614   20711145.7894
     -1242.584        -968.247
 97  5 14 17 37 30.0000000  0  7 24  2  4 27 26  9  7                0.000604959
  -4101339.683 9  -3174720.97645  24444809.421    24444810.4784   24444820.8934
      3569.573        2781.485
   3960077.830 9   3087617.30948  21916474.912    21916475.6384   21916482.5564
     -1350.525       -1052.357
 -12270667.816 9  -9540283.68947  22372068.667    22372070.2904   22372077.8544
      2936.882        2288.479
  19296580.027 9  14998661.06846  23910123.323    23910124.4504   23910132.8794
     -3887.024       -3028.850
   2920472.357 9   2283871.35647  23833334.831    23833336.0204   23833344.4014
     -2230.716       -1738.220
 -15030927.349 9 -11693425.10048  22727141.956    22727142.8844   22727149.9684
      2563.948        1997.882
  -4280082.183 9  -3325176.82248  20718260.766    20718261.4764   20718267.9734
     -1252.403        -975.898
 97  5 14 17 38  0.0000000  0  7 24  2  4 27 26  9  7                0.000606336
  -4208440.757 9  -3258176.33346  24424428.794    24424429.9374   24424440.2524
      3570.145        2781.931
   4000695.746 9   3119267.61748  21924204.216    21924204.9834   21924211.9024
     -1357.472       -1057.770
 -12358624.128 9  -9608821.03847  22355331.161    22355332.7274   22355340.2894
      2926.837        2280.652
  19413277.205 9  15089593.84846  23932330.276    23932331.3694   23932339.7164
     -3892.752       -3033.313
   2987516.750 9   2336113.68347  23846093.015    23846094.1974   23846102.5604
     -2238.882       -1744.583
 -15107692.815 9 -11753242.31048  22712533.951    22712534.8884   22712541.9944
      2553.668        1989.871
  -4242360.762 9  -3295783.51848  20725438.878    20725439.6174   20725446.1264
     -1262.354        -983.652
 97  5 14 17 38 30.0000000  0  7 24  2  4 27 26  9  7                0.000607697
  -4315557.976 9  -3341644.28245  24404045.127    24404046.3024   24404056.6224
      3571.051        2782.637
   4041514.454 9   3151074.38148  21931971.797    21931972.5504   21931979.4744
     -1363.651       -1062.585
 -12446293.787 9  -9677135.04647  22338648.211    22338649.7024   22338657.2284
      2917.890        2273.680
  19530130.079 8  15180647.92546  23954566.737    23954567.8234   23954576.1794
     -3897.261       -3036.827
   3054792.510 9   2388536.28047  23858895.236    23858896.4224   23858904.7184
     -2245.917       -1750.065
 -15184161.315 9 -11812828.11848  22697982.395    22697983.4204   22697990.5404
      2544.127        1982.437
  -4204345.768 9  -3266161.45948  20732672.866    20732673.6114   20732680.1444
     -1272.097        -991.244
 97  5 14 17 39  0.0000000  0  7 24  2  4 27 26  9  7                0.000609021
  -4422677.264 8  -3425113.79845  24383661.088    24383662.2314   24383672.6314
      3571.020        2782.613
   4082542.607 9   3183044.35048  21939779.246    21939779.9674   21939786.8744
     -1370.635       -1068.027
 -12533649.969 9  -9745204.75047  22322024.727    22322026.3074   22322033.8754
      2906.715        2264.973
  19647136.983 8  15271822.07746  23976832.619    23976833.6694   23976841.8594
     -3902.300       -3040.753
   3122302.553 9   2441141.44647  23871741.958    23871743.2694   23871751.5304
     -2253.680       -1756.114
 -15260312.872 9 -11872166.95748  22683491.261    22683492.2594   22683499.3674
      2533.618        1974.248
  -4166000.558 9  -3236282.08748  20739969.732    20739970.4824   20739977.0024
     -1283.122        -999.835
 97  5 14 17 39 30.0000000  0  7 24  2  4 27 26  9  7                0.000610308
  -4529790.475 9  -3508578.60646  24363277.940    24363279.2654   24363289.4714
      3570.163        2781.945
   4123777.905 9   3215175.72948  21947626.041    21947626.7864   21947633.6814
     -1378.145       -1073.879
 -12620671.417 9  -9813013.64547  22305465.146    22305466.7234   22305474.1784
      2895.106        2255.927
  19764288.961 9  15363109.21946  23999125.893    23999127.0134   23999135.2164
     -3907.479       -3044.789
   3190038.614 9   2493922.73447  23884631.891    23884633.0524   23884641.3584
     -2261.695       -1762.360
 -15336148.619 9 -11931259.70748  22669060.230    22669061.1654   22669068.2694
      2522.437        1965.535
  -4127345.236 9  -3206161.07248  20747325.703    20747326.3544   20747332.8844
     -1293.518       -1007.936
 97  5 14 17 40  0.0000000  0  8 24  2  4 27 26  9  7  5             0.000611592
  -4636873.543 9  -3592019.81045  24342900.304    24342901.8344   24342912.0084
      3568.533        2780.675
   4165245.243 9   3247487.92648  21955517.021    21955517.7724   21955524.6904
     -1386.348       -1080.271
 -12707348.005 9  -9880553.78947  22288971.130    22288972.6834   22288980.1604
      2883.520        2246.899
  19881593.712 9  15454515.46346  24021448.493    24021449.5454   24021457.6054
     -3912.731       -3048.881
   3258010.001 9   2546887.38047  23897566.513    23897567.6004   23897575.9054
     -2269.684       -1768.585
 -15411647.599 9 -11990090.04348  22654693.209    22654694.1814   22654701.2724
      2510.650        1956.351
  -4088384.149 9  -3175801.79448  20754739.674    20754740.3744   20754746.9064
     -1303.785       -1015.936
  -1511745.36319  -1166131.25256  25378154.086    25378155.4455   25378166.8125
      2687.280        2093.984
 97  5 14 17 40 30.0000000  0  8 24  2  4 27 26  9  7  5             0.000612904
  -4743909.921 9  -3675424.72346  24322532.106    24322533.4664   24322543.6624
      3567.411        2779.801
   4206955.997 9   3279989.79648  21963454.323    21963455.0674   21963461.9884
     -1394.029       -1086.256
 -12793692.674 9  -9947835.32047  22272540.253    22272541.8044   22272549.2514
      2873.011        2238.710
  19999050.997 9  15546040.54546  24043799.968    24043801.0194   24043809.2164
     -3917.443       -3052.553
   3326217.527 9   2600036.05347  23910546.018    23910547.0784   23910555.3694
     -2277.235       -1774.469
 -15486787.596 9 -12048640.65648  22640394.565    22640395.4954   22640402.5854
      2498.916        1947.207
  -4049125.791 9  -3145210.87348  20762210.250    20762211.0004   20762217.5454
     -1313.118       -1023.209
  -1592368.522 9  -1228954.41046  25362812.059    25362813.3424   25362824.7084
      2687.739        2094.342
 97  5 14 17 41  0.0000000  0  8 24  2  4 27 26  9  7  5             0.000614254
  -4850911.042 9  -3758802.20945  24302170.542    24302171.7904   24302181.6254
      3565.919        2778.638
   4248899.270 9   3312672.84448  21971435.846    21971436.5944   21971443.5294
     -1402.213       -1092.634
 -12879712.845 9 -10014863.98947  22256171.034    22256172.6424   22256180.1174
      2861.721        2229.912
  20116658.749 8  15637682.76646  24066179.928    24066180.8814   24066189.3294
     -3922.950       -3056.844
   3394659.239 9   2653367.19247  23923569.985    23923571.0884   23923579.3894
     -2285.512       -1780.918
 -15561577.277 9 -12106918.29248  22626162.534    22626163.4694   22626170.5614
      2487.319        1938.171
  -4009603.251 9  -3114414.09848  20769731.010    20769731.9034   20769738.4404
     -1321.565       -1029.791
  -1672992.518 9  -1291778.20146  25347470.189    25347471.0924   25347482.4354
      2687.317        2094.013
 97  5 14 17 41 30.0000000  0  8 24  2  4 27 26  9  7  5             0.000615653
  -4957879.232 9  -3842153.88746  24281814.662    24281816.4074   24281826.4804
      3565.462        2778.282
   4291082.658 9   3345542.99848  21979463.091    21979463.8234   21979470.7724
     -1409.913       -1098.634
 -12965413.571 9 -10081643.72047  22239862.632    22239864.2524   22239871.7654
      2851.755        2222.147
  20234418.459 8  15729443.55446  24088588.885    24088589.9444   24088598.1774
     -3927.486       -3060.379
   3463340.211 9   2706884.72447  23936639.622    23936640.6674   23936648.9524
     -2293.021       -1786.770
 -15636034.003 9 -12164936.49248  22611993.815    22611994.8064   22612001.8694
      2476.589        1929.810
  -3969840.266 9  -3083429.96748  20777297.791    20777298.5704   20777305.1054
     -1329.448       -1035.934
  -1753615.001 9  -1354600.82046  25332128.314    25332129.0104   25332140.4534
      2687.569        2094.210
 97  5 14 17 42  0.0000000  0  8 24  2  4 27 26  9  7  5             0.000617086
  -5064817.061 9  -3925482.01046  24261465.182    24261466.6834   24261476.7894
      3564.618        2777.624
   4333515.696 9   3378607.68648  21987537.833    21987538.5524   21987545.5494
     -1417.868       -1104.832
 -13050797.241 9 -10148176.41347  22223614.814    22223616.2784   22223623.7424
      2841.451        2214.118
  20352326.959 9  15821320.16546  24111026.095    24111027.1134   24111035.5194
     -3932.034       -3063.923
   3532266.182 9   2760593.20947  23949755.732    23949756.8674   23949765.2144
     -2301.086       -1793.054
 -15710156.664 9 -12222694.37748  22597888.652    22597889.6784   22597896.7264
      2465.790        1921.395
  -3929806.125 9  -3052234.54148  20784916.001    20784916.8364   20784923.3394
     -1338.502       -1042.989
  -1834225.350 9  -1417413.93046  25316788.719    25316789.3544   25316800.8604
      2687.536        2094.184
 97  5 14 17 42 30.0000000  0  8 24  2  4 27 26  9  7  5             0.000618534
  -5171738.402 9  -4008797.23545  24241118.768    24241120.0604   24241130.1594
      3564.042        2777.176
   4376183.914 9   3411855.63248  21995657.362    21995658.0784   21995665.0654
     -1425.926       -1111.111
 -13135869.353 9 -10214466.33347  22207425.908    22207427.5334   22207435.0134
      2830.460        2205.553
  20470372.136 8  15913303.36145  24133489.303    24133490.2254   24133498.8904
     -3936.902       -3067.716
   3601432.388 9   2814488.87347  23962917.520    23962918.8234   23962927.2114
     -2309.268       -1799.430
 -15783954.617 9 -12280199.24048  22583845.310    22583846.3724   22583853.4124
      2454.781        1912.816
  -3889499.851 9  -3020827.06948  20792586.181    20792586.8954   20792593.4024
     -1348.140       -1050.499
  -1914852.272 9  -1480239.95245  25301445.503    25301446.5884   25301457.9634
      2688.313        2094.789
 97  5 14 17 43  0.0000000  0  8 24  2  4 27 26  9  7  5             0.000619954
  -5278659.330 9  -4092112.12246  24220772.048    24220773.6174   24220783.6964
      3563.748        2776.946
   4419077.422 9   3445279.12648  22003819.686    22003820.4404   22003827.4594
     -1433.731       -1117.193
 -13220614.859 9 -10280501.75048  22191299.285    22191300.9484   22191308.4404
      2819.231        2196.803
  20588541.845 9  16005383.48946  24155976.467    24155977.3634   24155985.9914
     -3941.016       -3070.921
   3670816.077 9   2868553.99847  23976120.761    23976122.1884   23976130.6034
     -2316.299       -1804.908
 -15857441.888 9 -12337462.03148  22569861.156    22569862.1924   22569869.2234
      2444.357        1904.694
  -3848903.408 9  -2989193.48748  20800311.387    20800312.1114   20800318.6524
     -1358.537       -1058.600
  -1995524.700 9  -1543101.42846  25286093.820    25286095.0424   25286106.4924
      2689.882        2096.012
 97  5 14 17 43 30.0000000  0  8 24  2  4 27 26  9  7  5             0.000621330
  -5385567.336 9  -4175417.00846  24200428.135    24200429.4994   24200439.5564
      3563.385        2776.664
   4462203.881 9   3478884.13848  22012026.355    22012027.1144   22012034.1674
     -1441.219       -1123.028
 -13305034.651 9 -10346283.36248  22175234.589    22175236.3714   22175243.8484
      2808.872        2188.731
  20706828.367 9  16097554.77946  24178485.780    24178486.8004   24178494.8964
     -3944.576       -3073.696
   3740391.389 9   2922768.44947  23989360.663    23989361.9534   23989370.3944
     -2321.798       -1809.193
 -15930615.758 9 -12394480.60348  22555936.709    22555937.6814   22555944.6624
      2433.820        1896.483
  -3807983.407 9  -2957307.78348  20808098.090    20808098.9234   20808105.5134
     -1369.320       -1067.003
  -2076252.904 9  -1606006.38346  25270731.522    25270732.8564   25270744.2344
      2692.175        2097.799
 97  5 14 17 44  0.0000000  0  8 24  2  4 27 26  9  7  5             0.000622665
  -5492453.409 9  -4258704.68946  24180088.262    24180089.7194   24180099.7814
      3562.289        2775.810
   4505554.407 9   3512663.74348  22020275.680    22020276.4284   22020283.4914
     -1448.663       -1128.828
 -13389137.409 9 -10411817.94448  22159230.436    22159232.1264   22159239.6434
      2797.948        2180.219
  20825224.957 8  16189811.76246  24201016.102    24201017.0534   24201025.4034
     -3948.305       -3076.601
   3810129.408 9   2977109.69147  24002631.343    24002632.6874   24002641.1774
     -2327.407       -1813.564
 -16003464.257 9 -12451245.64748  22542074.083    22542075.0894   22542082.0204
      2422.797        1887.894
  -3766741.010 9  -2925170.86248  20815946.271    20815947.0804   20815953.7134
     -1379.805       -1075.173
  -2157049.502 9  -1668964.63446  25255356.497    25255357.7114   25255369.0804
      2694.479        2099.594
 97  5 14 17 44 30.0000000  0  8 24  2  4 27 26  9  7  5             0.000623968
  -5599306.486 9  -4341966.75046  24159754.751    24159756.1434   24159766.0304
      3560.882        2774.713
   4549133.413 9   3546621.38548  22028568.504    22028569.2744   22028576.3424
     -1456.762       -1135.139
 -13472900.110 9 -10477087.53548  22143291.008    22143292.5844   22143300.1194
      2786.048        2170.946
  20943728.500 9  16282151.99146  24223566.534    24223567.3694   24223576.0534
     -3952.129       -3079.581
   3880039.380 9   3031584.87647  24015934.856    24015936.1624   24015944.7384
     -2333.384       -1818.221
 -16075977.432 9 -12507749.39748  22528275.249    22528276.2654   22528283.2104
      2411.277        1878.917
  -3725191.925 9  -2892794.96048  20823852.725    20823853.6084   20823860.2434
     -1390.326       -1083.371
  -2237914.732 9  -1731976.35446  25239968.378    25239969.4054   25239980.8744
      2696.273        2100.992
 97  5 14 17 45  0.0000000  0  8 24  2  4 27 26  9  7  5             0.000625251
  -5706109.658 9  -4425189.89546  24139430.681    24139432.0954   24139442.0364
      3558.957        2773.213
   4592960.720 9   3580772.50948  22036908.594    22036909.3384   22036916.4384
     -1465.300       -1141.792
 -13556302.458 9 -10542076.33648  22127420.024    22127421.6194   22127429.1274
      2774.026        2161.579
  21062345.088 9  16374580.45546  24246138.802    24246139.5304   24246147.9904
     -3955.937       -3082.548
   3950133.699 9   3086203.72047  24029273.439    24029274.7714   24029283.3474
     -2339.869       -1823.274
 -16148143.292 9 -12563982.51348  22514542.468    22514543.5174   22514550.4514
      2399.584        1869.806
  -3683331.629 9  -2860176.55548  20831818.480    20831819.3614   20831826.0174
     -1400.323       -1091.161
  -2318830.552 9  -1795027.53146  25224570.534    25224571.5524   25224582.9504
      2697.912        2102.269
 97  5 14 17 45 30.0000000  0  8 24  2  4 27 26  9  7  5             0.000626542
  -5812861.719 9  -4508373.24846  24119116.512    24119117.9184   24119127.6754
      3557.335        2771.949
   4637039.191 9   3615119.33348  22045296.451    22045297.2194   22045304.3254
     -1473.738       -1148.367
 -13639356.774 9 -10606793.94948  22111615.316    22111616.8944   22111624.4144
      2762.294        2152.437
  21181065.674 8  16467089.87045  24268730.325    24268730.9584   24268740.0264
     -3959.447       -3085.283
   4020426.613 9   3140977.29547  24042649.699    24042651.1494   24042659.7414
     -2346.967       -1828.805
 -16219962.130 9 -12619945.22148  22500875.762    22500876.8394   22500883.7434
      2387.584        1860.455
  -3641202.096 9  -2827348.35748  20839835.558    20839836.3724   20839843.0564
     -1408.817       -1097.779
  -2399800.755 9  -1858121.07746  25209162.238    25209163.3604   25209174.6764
      2699.470        2103.483
 97  5 14 17 46  0.0000000  0  8 24  2  4 27 26  9  7  5             0.000627855
  -5919576.196 9  -4591527.34046  24098809.620    24098810.7434   24098820.4044
      3556.569        2771.352
   4681367.452 9   3649660.80848  22053731.872    22053732.6324   22053739.7444
     -1481.721       -1154.588
 -13722048.107 9 -10671228.71348  22095879.589    22095881.2404   22095888.7434
      2750.190        2143.005
  21299891.681 8  16559681.51745  24291341.959    24291342.9564   24291351.7024
     -3962.521       -3087.679
   4090954.388 9   3195933.92547  24056070.825    24056072.2544   24056080.8264
     -2355.114       -1835.154
 -16291415.107 9 -12675622.84248  22487278.683    22487279.7904   22487286.6554
      2375.842        1851.305
  -3598819.015 9  -2794322.58948  20847900.800    20847901.6014   20847908.2784
     -1417.089       -1104.225
  -2480813.942 9  -1921248.12146  25193745.509    25193746.9364   25193758.2614
      2701.028        2104.697
 97  5 14 17 46 30.0000000  0  8 24  2  4 27 26  9  7  5             0.000629172
  -6026257.595 9  -4674655.54146  24078508.679    24078509.7794   24078519.6874
      3555.640        2770.629
   4725946.016 9   3684397.32148  22062214.925    22062215.6944   22062222.7794
     -1489.702       -1160.807
 -13804363.523 9 -10735370.56448  22080215.458    22080217.0934   22080224.5864
      2738.028        2133.528
  21418831.085 9  16652361.37546  24313975.394    24313976.3584   24313985.6234
     -3966.441       -3090.733
   4161736.001 9   3251088.34247  24069540.020    24069541.5824   24069550.1704
     -2363.017       -1841.312
 -16362508.628 9 -12731020.37048  22473750.059    22473751.1314   22473757.9804
      2364.157        1842.200
  -3556168.899 9  -2761088.74348  20856016.794    20856017.6544   20856024.3374
     -1425.965       -1111.141
  -2561862.271 9  -1984402.54646  25178322.443    25178323.8314   25178335.1344
      2702.736        2106.028
 97  5 14 17 47  0.0000000  0  8 24  2  4 27 26  9  7  5             0.000630487
  -6132903.840 9  -4757756.44646  24058214.158    24058215.6194   24058225.4704
      3554.475        2769.721
   4770752.605 9   3719311.51248  22070741.347    22070742.1274   22070749.1994
     -1496.853       -1166.379
 -13886322.402 9 -10799234.58048  22064619.273    22064620.8714   22064628.3144
      2726.359        2124.436
  21537888.848 8  16745133.57346  24336631.631    24336632.5984   24336641.5184
     -3970.201       -3093.663
   4232744.467 9   3306419.56947  24083052.790    24083054.0984   24083062.7254
     -2370.290       -1846.979
 -16433258.774 9 -12786150.32848  22460286.668    22460287.8314   22460294.6354
      2353.072        1833.562
  -3513261.195 9  -2727654.17848  20864181.907    20864182.7194   20864189.4024
     -1434.072       -1117.459
  -2642968.610 9  -2047602.16846  25162888.750    25162889.7784   25162900.8234
      2704.906        2107.719
 97  5 14 17 47 30.0000000  0  8 24  2  4 27 26  9  7  5             0.000631795
  -6239508.062 9  -4840824.63546  24037928.015    24037929.4614   24037939.1454
      3552.481        2768.167
   4815777.031 9   3754395.45348  22079309.289    22079310.0544   22079317.1034
     -1504.595       -1172.412
 -13967922.330 9 -10862818.90248  22049091.271    22049092.8934   22049100.3154
      2713.789        2114.641
  21657070.075 8  16838001.94045  24359311.084    24359311.9604   24359320.9984
     -3974.884       -3097.312
   4303967.315 9   3361917.82847  24096606.001    24096607.4114   24096616.0654
     -2377.500       -1852.597
 -16503666.081 9 -12841013.14048  22446888.685    22446889.7404   22446896.4774
      2340.907        1824.083
  -3470092.561 9  -2694016.29148  20872396.553    20872397.4754   20872404.1304
     -1443.802       -1125.041
  -2724125.808 9  -2110841.43046  25147444.827    25147445.9544   25147456.9154
      2705.770        2108.392
 97  5 14 17 48  0.0000000  0  8 24  2  4 27 26  9  7  5             0.000633084
  -6346057.006 9  -4923849.71446  24017652.656    24017653.8094   24017663.4324
      3550.282        2766.454
   4861023.041 9   3789652.05548  22087919.356    22087920.1574   22087927.1994
     -1511.983       -1178.168
 -14049151.936 9 -10926114.66448  22033633.811    22033635.4134   22033642.7584
      2701.362        2104.957
  21776381.125 8  16930971.49246  24382015.371    24382016.3144   24382025.2224
     -3979.283       -3100.740
   4375385.986 9   3417568.67547  24110196.638    24110197.9954   24110206.6314
     -2383.704       -1857.432
 -16573716.578 9 -12895597.91948  22433558.489    22433559.5724   22433566.2954
      2329.038        1814.835
  -3426631.982 9  -2660150.91148  20880666.891    20880667.7764   20880674.4314
     -1453.650       -1132.714
  -2805315.834 9  -2174106.24146  25131995.091    25131995.9034   25132006.8134
      2706.858        2109.240
 97  5 14 17 48 30.0000000  0  8 24  2  4 27 26  9  7  5             0.000634358
  -6452536.804 9  -5006820.86446  23997390.300    23997391.2094   23997401.1174
      3547.384        2764.195
   4906480.551 9   3825073.45948  22096569.656    22096570.4554   22096577.5084
     -1519.491       -1184.019
 -14130025.714 9 -10989133.15248  22018244.022    22018245.6164   22018252.9394
      2689.333        2095.584
  21895811.240 8  17024033.79945  24404742.389    24404743.2494   24404752.1104
     -3983.450       -3103.987
   4446963.247 9   3473343.11047  24123817.467    24123818.7674   24123827.3844
     -2388.957       -1861.525
 -16643422.571 9 -12949914.26048  22420293.895    22420294.9334   22420301.6594
      2317.120        1805.548
  -3382903.454 9  -2626076.74648  20888988.184    20888989.0704   20888995.6894
     -1462.306       -1139.459
  -2886546.466 9  -2237402.69746  25116537.004    25116538.1454   25116549.0984
      2707.743        2109.930
 97  5 14 17 49  0.0000000  0  8 24  2  4 27 26  9  7  5             0.000635644
  -6558926.427 9  -5089721.83946  23977144.659    23977145.8184   23977155.6764
      3545.224        2762.512
   4952170.799 9   3860676.21748  22105264.209    22105265.0174   22105272.0694
     -1526.617       -1189.572
 -14210536.000 9 -11051868.40148  22002923.311    22002924.9704   22002932.2764
      2677.936        2086.703
  22015352.567 8  17117182.73845  24427490.063    24427491.2214   24427500.0694
     -3985.945       -3105.931
   4518701.450 9   3529242.91347  24137468.864    24137470.2134   24137478.8144
     -2393.655       -1865.186
 -16712758.618 9 -13003942.32548  22407099.691    22407100.7274   22407107.4704
      2305.122        1796.199
  -3338918.646 9  -2591802.88248  20897358.310    20897359.1104   20897365.7244
     -1470.139       -1145.563
  -2967793.689 8  -2300712.08346  25101075.897    25101077.2394   25101088.1394
      2708.644        2110.632
 97  5 14 17 49 30.0000000  0  8 24  2  4 27 26  9  7  5             0.000636944
  -6665250.044 9  -5172571.34946  23956911.664    23956912.9964   23956922.8954
      3543.022        2760.796
   4998094.702 9   3896461.04748  22114003.234    22114004.0524   22114011.1334
     -1534.655       -1195.835
 -14290697.693 9 -11114332.01548  21987669.013    21987670.6734   21987677.9934
      2666.452        2077.755
  22134974.104 8  17210394.16845  24450253.320    24450254.6054   24450263.3164
     -3988.291       -3107.759
   4590592.331 9   3585261.67547  24151149.428    24151150.6374   24151159.2864
     -2398.802       -1869.196
 -16781715.269 9 -13057674.75748  22393977.689    22393978.6914   22393985.4394
      2292.288        1786.198
  -3294684.248 9  -2557334.53148  20905775.922    20905776.6584   20905783.2634
     -1478.528       -1152.100
  -3049044.820 9  -2364024.50946  25085614.034    25085615.6234   25085626.4334
      2708.632        2110.622
 97  5 14 17 50  0.0000000  0  8 24  2  4 27 26  9  7  5             0.000638281
  -6771483.377 9  -5255350.49346  23936695.949    23936697.5324   23936707.3644
      3539.560        2758.099
   5044282.135 9   3932451.22648  22122792.413    22122793.2474   22122800.3444
     -1543.915       -1203.051
 -14370489.524 9 -11176507.43748  21972485.170    21972486.7724   21972494.0304
      2653.419        2067.599
  22254681.701 8  17303672.74545  24473033.145    24473034.3554   24473042.8964
     -3991.751       -3110.455
   4662669.435 9   3641425.58947  24164865.474    24164866.4874   24164875.2374
     -2405.861       -1874.697
 -16850261.470 9 -13111087.35848  22380933.776    22380934.7484   22380941.5134
      2278.035        1775.092
  -3250183.096 9  -2522658.31748  20914244.222    20914244.9594   20914251.5974
     -1487.577       -1159.151
  -3130281.908 9  -2427325.98246  25070155.566    25070156.5994   25070167.3484
      2707.774        2109.954
 97  5 14 17 50 30.0000000  0  8 24  2  4 27 26  9  7  5             0.000639646
  -6877644.050 9  -5338073.02746  23916494.237    23916495.7874   23916505.5384
      3537.227        2756.281
   5090724.038 9   3968639.69248  22131630.058    22131630.8534   22131637.9874
     -1552.778       -1209.957
 -14449911.256 9 -11238394.46548  21957371.689    21957373.3314   21957380.6084
      2640.863        2057.815
  22374463.552 8  17397009.21545  24495826.977    24495828.1154   24495836.7404
     -3994.298       -3112.440
   4734933.509 9   3697735.16047  24178616.832    24178617.9374   24178626.6764
     -2412.195       -1879.632
 -16918408.554 9 -13164188.95848  22367965.769    22367966.7504   22367973.5424
      2264.506        1764.550
  -3205441.116 9  -2487794.44748  20922758.357    20922759.0914   20922765.7374
     -1495.870       -1165.613
  -3211526.359 9  -2490633.20246  25054695.114    25054696.1354   25054706.9644
      2708.096        2110.205
 97  5 14 17 51  0.0000000  0  8 24  2  4 27 26  9  7  5             0.000641032
  -6983745.450 9  -5420749.37746  23896303.824    23896305.2674   23896315.0224
      3535.696        2755.088
   5137427.036 9   4005031.61448  22140517.329    22140518.1114   22140525.2754
     -1560.936       -1216.314
 -14528959.435 9 -11299990.42348  21942329.275    21942330.9524   21942338.1944
      2628.542        2048.215
  22494311.694 8  17490397.10845  24518632.824    24518634.3404   24518643.6674
     -3996.247       -3113.959
   4807383.508 9   3754189.62946  24192403.643    24192404.7734   24192413.4874
     -2418.027       -1884.177
 -16986142.378 9 -13216968.54048  22355076.346    22355077.3924   22355084.1984
      2250.771        1753.848
  -3160439.328 9  -2452728.13248  20931321.973    20931322.6484   20931329.2824
     -1504.602       -1172.417
  -3292789.885 9  -2553955.29646  25039230.948    25039232.0904   25039243.0334
      2709.143        2111.021
 97  5 14 17 51 30.0000000  0  8 24  2  4 27 26  9  7  5             0.000642417
  -7089801.126 9  -5503390.09446  23876121.925    23876123.3744   23876133.2544
      3533.917        2753.702
   5184371.638 9   4041611.79448  22149450.565    22149451.3664   22149458.5814
     -1568.754       -1222.406
 -14607630.516 9 -11361292.52948  21927358.714    21927360.3364   21927367.5654
      2615.856        2038.329
  22614226.129 8  17583836.74745  24541451.845    24541453.4734   24541462.6024
     -3998.444       -3115.671
   4880002.026 9   3810775.39746  24206222.419    24206223.6394   24206232.4044
     -2423.404       -1888.367
 -17053471.988 9 -13269433.15348  22342263.948    22342264.9884   22342271.7804
      2237.767        1743.715
  -3115178.681 9  -2417460.10948  20939934.795    20939935.5054   20939942.1274
     -1512.966       -1178.935
  -3374090.962 8  -2617306.61345  25023760.337    25023760.9494   25023771.7374
      2710.826        2112.332
 97  5 14 17 52  0.0000000  0  8 24  2  4 27 26  9  7  5             0.000643788
  -7195786.975 9  -5585976.38446  23855953.564    23855954.7914   23855964.7854
      3531.621        2751.912
   5231546.167 9   4078371.14448  22158427.604    22158428.4304   22158435.6314
     -1576.238       -1228.237
 -14685904.234 9 -11422285.00448  21912463.787    21912465.3474   21912472.5234
      2602.261        2027.736
  22734229.639 9  17677345.92645  24564288.193    24564289.6034   24564298.5254
     -4001.918       -3118.378
   4952780.649 9   3867485.92746  24220071.683    24220072.9784   24220081.7794
     -2428.384       -1892.247
 -17120405.098 9 -13321588.80148  22329526.974    22329528.0314   22329534.8174
      2224.467        1733.351
  -3069659.534 9  -2381990.65448  20948596.847    20948597.5424   20948604.1514
     -1521.706       -1185.745
  -3455439.582 8  -2680695.01245  25008279.930    25008280.6914   25008291.3904
      2712.520        2113.652
 97  5 14 17 52 30.0000000  0  8 24  2  4 27 26  9  7  5             0.000645121
  -7301716.454 9  -5668518.77346  23835795.695    23835797.0464   23835806.9684
      3529.582        2750.324
   5278928.656 9   4115292.54248  22167444.214    22167445.0434   22167452.2664
     -1583.217       -1233.676
 -14763787.565 9 -11482973.27748  21897643.009    21897644.6434   21897651.7744
      2589.370        2017.691
  22854324.543 8  17770926.33145  24587141.970    24587143.1594   24587151.7574
     -4004.934       -3120.728
   5025682.785 9   3924292.71246  24233944.431    24233945.8914   24233954.7014
     -2432.229       -1895.243
 -17186962.556 9 -13373451.73448  22316861.578    22316862.5394   22316869.3364
      2212.113        1723.724
  -3023887.152 9  -2346323.87648  20957307.033    20957307.7304   20957314.3244
     -1530.493       -1192.592
  -3536855.296 9  -2744135.70645  24992786.677    24992787.6924   24992798.3104
      2714.692        2115.344
 97  5 14 17 53  0.0000000  0  8 24  2  4 27 26  9  7  5             0.000646414
  -7407562.708 9  -5750996.31546  23815653.708    23815655.1094   23815665.0504
      3526.351        2747.806
   5326528.776 9   4152383.51548  22176502.307    22176503.0904   22176510.3184
     -1590.446       -1239.309
 -14841269.699 9 -11543348.93248  21882898.637    21882900.2684   21882907.3594
      2575.702        2007.041
  22974521.013 8  17864585.67545  24610014.548    24610015.7964   24610024.8804
     -4008.583       -3123.571
   5098713.678 9   3981199.82246  24247841.642    24247843.2134   24247852.1114
     -2436.889       -1898.875
 -17253142.468 9 -13425020.47648  22304267.966    22304268.9134   22304275.7174
      2199.702        1714.053
  -2977832.931 9  -2310437.48248  20966070.767    20966071.4864   20966078.1084
     -1540.076       -1200.059
  -3618326.994 9  -2807619.93345  24977283.526    24977283.9654   24977294.6354
      2716.216        2116.532
 97  5 14 17 53 30.0000000  0  8 24  2  4 27 26  9  7  5             0.000647756
  -7513302.592 9  -5833390.94046  23795532.260    23795533.4424   23795543.4864
      3522.712        2744.970
   5374349.364 9   4189646.28248  22185602.395    22185603.0994   22185610.2964
     -1597.855       -1245.082
 -14918345.935 9 -11603408.30648  21868231.486    21868233.1354   21868240.2054
      2562.631        1996.855
  23094831.207 8  17958333.70045  24632909.068    24632910.2564   24632919.2934
     -4012.134       -3126.338
   5171882.277 9   4038214.22946  24261765.268    24261766.7884   24261775.6324
     -2441.277       -1902.294
 -17318968.149 9 -13476313.20148  22291741.658    22291742.6704   22291749.4844
      2188.403        1705.249
  -2931492.045 9  -2274327.71748  20974889.080    20974889.8774   20974896.5104
     -1549.458       -1207.370
  -3699846.557 9  -2871141.54345  24961771.042    24961771.2064   24961781.9094
      2718.032        2117.947
 97  5 14 17 54  0.0000000  0  8 24  2  4 27 26  9  7  5             0.000648938
  -7618934.716 9  -5915701.59046  23775431.182    23775432.2544   23775442.3254
      3519.496        2742.464
   5422406.277 9   4227093.20448  22194747.300    22194748.0424   22194755.2464
     -1606.083       -1251.493
 -14995032.167 9 -11663163.78548  21853638.592    21853640.2254   21853647.2674
      2549.770        1986.834
  23215244.222 8  18052161.93345  24655823.092    24655824.4024   24655832.9984
     -4015.156       -3128.693
   5245193.724 9   4095339.95846  24275716.171    24275717.5654   24275726.4344
     -2446.214       -1906.141
 -17384441.895 9 -13527331.68648  22279282.422    22279283.4244   22279290.2344
      2176.362        1695.866
  -2884865.539 9  -2237995.39148  20983761.834    20983762.6384   20983769.2834
     -1558.927       -1214.748
  -3781424.260 9  -2934708.46745  24946247.202    24946247.3534   24946258.1364
      2720.201        2119.637
 97  5 14 17 54 30.0000000  0  8 24  2  4 27 26  9  7  5             0.000650124
  -7724472.351 9  -5997938.64546  23755348.045    23755349.1694   23755359.0634
      3516.200        2739.896
   5470714.694 9   4264736.09848  22203940.111    22203940.8454   22203948.0694
     -1614.451       -1258.014
 -15071338.323 9 -11722623.09648  21839117.940    21839119.5994   21839126.6794
      2537.419        1977.210
  23335734.720 8  18146050.51945  24678751.806    24678753.0334   24678760.9404
     -4017.272       -3130.342
   5318664.428 9   4152589.78346  24289697.300    24289698.6394   24289707.5274
     -2451.746       -1910.451
 -17449555.267 9 -13578069.35848  22266891.743    22266892.7604   22266899.5744
      2164.586        1686.690
  -2837960.331 9  -2201445.89048  20992687.636    20992688.4314   20992695.0824
     -1567.837       -1221.691
  -3863063.826 8  -2998323.58545  24930711.096    24930711.7704   24930722.4084
      2722.469        2121.404
 97  5 14 17 55  0.0000000  0  8 24  2  4 27 26  9  7  5             0.000651362
  -7829899.534 9  -6080089.61546  23735285.605    23735287.0394   23735296.8004
      3512.336        2736.885
   5519291.870 9   4302588.41648  22213184.040    22213184.8104   22213192.0174
     -1623.637       -1265.172
 -15147263.453 9 -11781785.50948  21824669.908    21824671.5164   21824678.5674
      2524.498        1967.141
  23456291.479 9  18239990.76445  24701693.135    24701694.4444   24701702.3454
     -4019.599       -3132.155
   5392318.754 9   4209982.69246  24303713.316    24303714.6454   24303723.5274
     -2458.215       -1915.492
 -17514301.807 9 -13628521.19248  22254570.853    22254571.8974   22254578.6954
      2151.952        1676.846
  -2790792.999 9  -2164692.14048  21001663.336    21001664.1044   21001670.7514
     -1576.272       -1228.264
  -3944747.857 8  -3061973.39745  24915166.542    24915167.6294   24915178.2774
      2723.330        2122.075
 97  5 14 17 55 30.0000000  0  8 24  2  4 27 26  9  7  5             0.000652663
  -7935228.463 9  -6162164.01246  23715241.946    23715243.5334   23715253.3594
      3508.921        2734.224
   5568124.336 9   4340639.65748  22222476.593    22222477.3504   22222484.5544
     -1632.304       -1271.925
 -15222815.917 9 -11840657.52948  21810292.725    21810294.3394   21810301.3974
      2511.652        1957.131
  23576903.409 8  18333973.94946  24724644.807    24724646.1204   24724654.6604
     -4021.562       -3133.685
   5466142.904 9   4267507.93446  24317761.677    24317762.9774   24317771.8294
     -2463.852       -1919.885
 -17578672.778 9 -13678680.37148  22242321.471    22242322.4954   22242329.2704
      2138.838        1666.627
  -2743397.607 9  -2127760.67748  21010682.453    21010683.1894   21010689.8264
     -1583.840       -1234.161
  -4026473.424 9  -3125655.54245  24899614.438    24899615.7284   24899626.3144
      2724.511        2122.995
 97  5 14 17 56  0.0000000  0  8 24  2  4 27 26  9  7  5             0.000654013
  -8040455.191 9  -6244158.76846  23695217.811    23695219.4614   23695229.3134
      3505.730        2731.738
   5617215.287 9   4378892.31748  22231818.310    22231819.0714   22231826.2554
     -1640.423       -1278.252
 -15297962.651 9 -11899213.39648  21795992.779    21795994.3544   21796001.3834
      2497.892        1946.409
  23697574.737 8  18428003.37745  24747607.767    24747609.1334   24747617.9084
     -4023.411       -3135.125
   5540139.280 9   4325167.37846  24331842.772    24331844.1054   24331852.9054
     -2469.171       -1924.029
 -17642636.976 9 -13728522.58548  22230149.429    22230150.5024   22230157.2844
      2125.357        1656.122
  -2695781.404 9  -2090657.15648  21019743.474    21019744.2754   21019750.9024
     -1590.778       -1239.567
  -4108233.222 9  -3189364.34745  24884056.157    24884057.2794   24884067.8304
      2725.879        2124.062
 97  5 14 17 56 30.0000000  0  8 24  2  4 27 26  9  7  5             0.000655286
  -8145579.454 9  -6326073.69346  23675213.087    23675214.9174   23675224.7974
      3501.935        2728.781
   5666541.213 9   4417328.07148  22241204.777    22241205.5314   22241212.7064
     -1648.339       -1284.420
 -15372689.438 9 -11957442.03648  21781772.762    21781774.3214   21781781.3344
      2483.510        1935.203
  23818299.929 8  18522074.69045  24770581.120    24770582.3294   24770591.5074
     -4025.504       -3136.756
   5614278.054 9   4382937.77646  24345951.004    24345952.3524   24345961.1584
     -2473.634       -1927.507
 -17706210.527 9 -13778060.40248  22218051.784    22218052.8174   22218059.5974
      2112.568        1646.157
  -2647963.279 9  -2053396.29248  21028843.035    21028843.7664   21028850.3964
     -1597.455       -1244.770
  -4190029.013 8  -3253101.20745  24868491.110    24868491.9504   24868502.4904
      2726.739        2124.732
 97  5 14 17 57  0.0000000  0  8 24  2  4 27 26  9  7  5             0.000656594
  -8250591.007 9  -6407900.82046  23655229.984    23655231.9374   23655241.5394
      3498.501        2726.105
   5716106.488 9   4455950.33248  22250636.733    22250637.5054   22250644.6944
     -1656.113       -1290.478
 -15446975.479 9 -12015327.23448  21767636.487    21767638.1064   21767645.1354
      2468.736        1923.690
  23939095.558 8  18616201.04945  24793567.884    24793569.1934   24793578.3424
     -4027.844       -3138.580
   5688535.838 9   4440800.92046  24360081.738    24360083.1984   24360091.9404
     -2477.078       -1930.191
 -17769390.158 9 -13827291.26848  22206029.149    22206030.1454   22206036.9164
      2099.084        1635.650
  -2599943.873 9  -2015978.58948  21037980.732    21037981.5494   21037988.1954
     -1604.258       -1250.071
  -4271848.047 8  -3316856.21145  24852921.856    24852922.0894   24852932.7664
      2728.027        2125.735
 97  5 14 17 57 30.0000000  0  8 24  2  4 27 26  9  7  5             0.000657871
  -8355499.252 9  -6489647.40146  23635266.530    23635268.4884   23635278.1944
      3494.962        2723.347
   5765909.632 9   4494757.94948  22260113.999    22260114.7584   22260121.9304
     -1664.528       -1297.035
 -15520809.703 9 -12072860.36548  21753586.284    21753587.9004   21753594.9324
      2453.326        1911.683
  24059970.106 8  18710388.97045  24816569.733    24816571.0684   24816580.2334
     -4030.759       -3140.851
   5762903.438 9   4498749.62746  24374233.450    24374234.9274   24374243.7044
     -2481.158       -1933.370
 -17832154.504 9 -13876198.53848  22194085.452    22194086.4744   22194093.2414
      2085.098        1624.752
  -2551700.287 9  -1978386.19848  21047161.270    21047161.9944   21047168.6294
     -1612.288       -1256.328
  -4353697.992 8  -3380635.29445  24837345.543    24837346.5024   24837357.0354
      2728.453        2126.067
 97  5 14 17 58  0.0000000  0  8 24  2  4 27 26  9  7  5             0.000659134
  -8460316.418 9  -6571323.05446  23615320.629    23615322.4184   23615332.0644
      3492.649        2721.545
   5815961.144 9   4533759.08848  22269638.487    22269639.2254   22269646.4424
     -1672.294       -1303.086
 -15594197.568 9 -12130045.69348  21739621.040    21739622.6034   21739629.6574
      2439.399        1900.830
  24180915.156 8  18804631.91345  24839585.019    24839585.7844   24839595.2094
     -4032.302       -3142.053
   5837389.255 9   4556790.47846  24388407.648    24388409.1414   24388417.9004
     -2484.543       -1936.008
 -17894512.774 9 -13924789.38348  22182219.076    22182220.0744   22182226.8374
      2072.068        1614.598
  -2503226.586 9  -1940614.49848  21056385.469    21056386.2654   21056392.9004
     -1619.379       -1261.854
  -4435572.712 8  -3444433.64645  24821765.673    24821766.0004   24821776.5794
      2729.742        2127.072
 97  5 14 17 58 30.0000000  0  8 24  2  4 27 26  9  7  5             0.000660403
  -8565047.192 9  -6652931.35546  23595390.953    23595392.7004   23595402.4194
      3489.866        2719.376
   5866271.090 9   4572961.61848  22279212.192    22279212.9284   22279220.1544
     -1681.032       -1309.895
 -15667157.390 9 -12186897.48248  21725737.237    21725738.7994   21725745.8504
      2425.281        1889.829
  24301921.88517  18898922.72355  24862611.527    24862612.6085   24862622.7175
     -4034.023       -3143.395
   5912000.978 9   4614929.38746  24402605.896    24402607.2914   24402616.0974
     -2489.085       -1939.547
 -17956459.372 9 -13973059.44448  22170430.948    22170431.9914   22170438.7284
      2058.186        1603.781
  -2454513.459 9  -1902656.22948  21065655.348    21065656.1044   21065662.7014
     -1627.579       -1268.243
  -4517449.804 8  -3508233.85745  24806185.179    24806185.2044   24806195.7864
      2729.456        2126.849
 97  5 14 17 59  0.0000000  0  8 24  2  4 27 26  9  7  5             0.000661679
  -8669700.330 9  -6734479.20146  23575476.219    23575477.8504   23575487.4624
      3487.178        2717.282
   5916837.583 9   4612364.04648  22288834.716    22288835.4194   22288842.6294
     -1689.554       -1316.535
 -15739706.495 9 -12243429.23048  21711931.499    21711933.1284   21711940.1674
      2411.777        1879.307
  24422978.91517  18993252.54955  24885648.204    24885649.4825   24885659.7215
     -4035.889       -3144.849
   5986755.401 9   4673179.49846  24416831.274    24416832.6364   24416841.5024
     -2494.059       -1943.423
 -18017976.133 9 -14020994.57348  22158724.721    22158725.7334   22158732.4864
      2043.472        1592.316
  -2405549.464 9  -1864502.47848  21074972.953    21074973.6724   21074980.2524
     -1636.299       -1275.038
  -4599325.796 8  -3572033.23845  24790604.194    24790604.7254   24790615.2764
      2729.514        2126.894
 97  5 14 17 59 30.0000000  0  8 24  2  4 27 26  9  7  5             0.000662963
  -8774275.417 9  -6815966.23146  23555576.465    23555577.8564   23555587.4444
      3484.685        2715.339
   5967640.268 9   4651950.51948  22298502.156    22298502.8744   22298510.1184
     -1696.823       -1322.200
 -15811867.055 9 -12299658.21548  21698199.734    21698201.3974   21698208.4384
      2399.377        1869.644
  24544066.111 9  19087606.12846  24908690.613    24908691.9154   24908701.2694
     -4036.261       -3145.138
   6061653.792 9   4731541.79146  24431083.964    24431085.3254   24431094.3094
     -2498.434       -1946.832
 -18079076.475 9 -14068605.21548  22147097.737    22147098.7274   22147105.4844
      2030.424        1582.149
  -2356339.840 9  -1826157.33148  21084337.238    21084337.9654   21084344.5464
     -1643.647       -1280.764
  -4681209.694 8  -3635838.74845  24775021.880    24775022.5324   24775033.2814
      2729.990        2127.265
 97  5 14 18  0  0.0000000  0  8 24  2  4 27 26  9  7  5             0.000664262
  -8878741.955 9  -6897368.66846  23535697.148    23535698.4864   23535708.0324
      3479.932        2711.635
   6018677.861 9   4691720.04248  22308214.300    22308215.0424   22308222.2964
     -1705.128       -1328.671
 -15883635.844 9 -12355581.92748  21684542.598    21684544.2334   21684551.2954
      2385.524        1858.850
  24665185.054 9  19181984.40946  24931738.979    24931740.1484   24931749.6894
     -4038.081       -3146.557
   6136682.671 9   4790005.80646  24445361.620    24445362.9664   24445371.9104
     -2502.868       -1950.287
 -18139764.433 9 -14115894.51948  22135549.265    22135550.2094   22135556.9714
      2015.784        1570.741
  -2306902.850 9  -1787635.01548  21093744.772    21093745.5194   21093752.0934
     -1651.797       -1287.115
  -4763103.888 8  -3699652.30545  24759437.851    24759438.5744   24759449.3314
      2730.010        2127.281
 97  5 14 18  0 30.0000000  0  8 24  2  4 27 26  9  7  5             0.000665557
  -8983070.378 9  -6978663.49746  23515843.895    23515845.4164   23515854.8944
      3475.297        2708.024
   6069941.962 9   4731666.06548  22317969.530    22317970.2674   22317977.5484
     -1712.213       -1334.192
 -15954995.576 9 -12411186.89648  21670963.166    21670964.9074   21670971.9654
      2371.970        1848.288
  24786346.780 8  19276396.10045  24954795.560    24954796.5484   24954806.1974
     -4039.340       -3147.538
   6211820.657 9   4848554.79446  24459659.948    24459661.3434   24459670.1864
     -2506.008       -1952.734
 -18200031.854 9 -14162856.12948  22124080.748    22124081.7194   22124088.4624
      2002.236        1560.184
  -2257235.947 9  -1748933.54148  21103195.978    21103196.7964   21103203.3634
     -1659.172       -1292.861
  -4845026.491 8  -3763487.99845  24743848.506    24743849.1984   24743859.8694
      2731.643        2128.553
 97  5 14 18  1  0.0000000  0  7 24  2  4 26  9  7  5                0.000666827
  -9087250.183 9  -7059842.48146  23496018.775    23496020.5744   23496030.0694
      3469.539        2703.537
   6121413.113 9   4771773.42648  22327764.203    22327764.9304   22327772.2234
     -1719.670       -1340.003
 -16025949.565 9 -12466475.70748  21657461.097    21657462.7744   21657469.8454
      2357.771        1837.224
   6287044.776 9   4907170.93246  24473974.780    24473976.0804   24473985.0324
     -2509.215       -1955.232
 -18259888.696 9 -14209497.80648  22112690.344    22112691.3294   22112698.0744
      1988.009        1549.098
  -2207349.928 9  -1710061.33148  21112689.016    21112689.7744   21112696.3594
     -1666.743       -1298.761
  -4926999.647 9  -3827363.08145  24728249.504    24728250.1514   24728260.7524
      2732.799        2129.454
 97  5 14 18  1 30.0000000  0  7 24  2  4 26  9  7  5                0.000668082
  -9191255.680 9  -7140885.62046  23476227.064    23476228.8734   23476238.4404
      3463.854        2699.107
   6173105.586 9   4812053.25148  22337601.006    22337601.7264   22337609.0004
     -1727.022       -1345.731
 -16096472.242 9 -12521428.42548  21644041.117    21644042.7494   21644049.8234
      2343.255        1825.913
   6362356.341 9   4965855.20346  24488306.118    24488307.4364   24488316.4144
     -2511.850       -1957.286
 -18319328.836 9 -14255814.77848  22101379.210    22101380.2184   22101386.9944
      1974.203        1538.340
  -2157252.588 9  -1671024.45448  21122222.355    21122223.0194   21122229.5974
     -1673.379       -1303.932
  -5009014.941 9  -3891271.00746  24712642.297    24712643.0324   24712653.6584
      2734.374        2130.681
 97  5 14 18  2  0.0000000  0  8 24  2  4 27 26  9  7  5             0.000669315
  -9295096.154 9  -7221800.22546  23456467.231    23456468.7134   23456478.1984
      3459.010        2695.332
   6225033.247 9   4852516.33248  22347482.536    22347483.2524   22347490.5474
     -1734.567       -1351.611
 -16166543.711 9 -12576029.55448  21630706.954    21630708.5774   21630715.6234
      2328.261        1814.229
     67695.67818     26090.44352  25024018.090           0.0005          0.0005
     -4044.341       -3151.435
   6437752.427 9   5024605.33246  24502653.570    24502654.8944   24502663.8904
     -2514.466       -1959.324
 -18378332.483 9 -14301791.63148  22090151.112    22090152.1444   22090158.9524
      1959.566        1526.935
  -2106944.434 9  -1631823.30348  21131795.687    21131796.3854   21131802.9274
     -1680.458       -1309.448
  -5091073.502 9  -3955212.64446  24697026.912    24697027.8274   24697038.3084
      2735.972        2131.926
 97  5 14 18  2 30.0000000  0  8 24  2  4 27 26  9  7  5             0.000670517
  -9398793.505 9  -7302603.27046  23436734.121    23436735.7384   23436745.2484
      3454.208        2691.591
   6277193.032 9   4893160.28748  22357408.278    22357408.9544   22357416.2964
     -1742.722       -1357.965
 -16236152.839 9 -12630270.41248  21617460.796    21617462.4064   21617469.4334
      2312.652        1802.066
    189053.377 9    120654.90555  25047116.077           0.0004          0.0005
     -4045.900       -3152.649
   6513248.320 9   5083433.25246  24517019.984    24517021.4034   24517030.3294
     -2518.389       -1962.381
 -18436890.541 9 -14347421.27148  22079007.762    22079008.8704   22079015.6904
      1944.485        1515.183
  -2056409.644 9  -1592445.55748  21141412.110    21141412.8324   21141419.3794
     -1688.368       -1315.611
  -5173159.133 9  -4019175.36246  24681406.424    24681407.3574   24681417.7934
      2736.505        2132.341
 97  5 14 18  3  0.0000000  0  8 24  2  4 27 26  9  7  5             0.000671702
  -9502360.770 9  -7383304.97047  23417025.971    23417027.4774   23417037.0144
      3450.257        2688.512
   6329599.662 9   4933996.58948  22367380.922    22367381.6394   22367388.9674
     -1751.092       -1364.487
 -16305304.292 9 -12684154.63948  21604301.721    21604303.3294   21604310.3474
      2297.456        1790.225
    310443.801 9    215244.70456  25070218.990           0.0005   25070225.4105
     -4046.662       -3153.243
   6588848.725 9   5142342.59246  24531406.166    24531407.6234   24531416.7134
     -2521.544       -1964.839
 -18494999.519 9 -14392700.98048  22067949.984    22067951.0924   22067957.9074
      1929.609        1503.591
  -2005651.719 9  -1552893.94248  21151071.016    21151071.7954   21151078.3234
     -1695.442       -1321.124
  -5255271.245 9  -4083158.70946  24665781.182    24665781.8864   24665792.2984
      2737.809        2133.358
 97  5 14 18  3 30.0000000  0  8 24  2  4 27 26  9  7  5             0.000672873
  -9605804.184 9  -7463910.15046  23397341.289    23397342.8284   23397352.3024
      3446.202        2685.352
   6382278.391 9   4975044.92148  22377405.395    22377406.1244   22377413.4384
     -1760.470       -1371.795
 -16373980.961 9 -12737668.90548  21591232.977    21591234.5824   21591241.5924
      2281.391        1777.707
    431869.762 8    309862.24255  25093322.853    25093322.0155   25093331.9865
     -4048.081       -3154.349
   6664557.340 9   5201336.26046  24545813.150    24545814.5664   24545823.6864
     -2525.329       -1967.789
 -18552655.863 9 -14437627.99248  22056978.325    22056979.4144   22056986.2234
      1914.499        1491.817
  -1954661.712 9  -1513161.48448  21160774.037    21160774.8824   21160781.4164
     -1703.679       -1327.542
  -5337416.718 8  -4147168.04146  24650149.275    24650150.0224   24650160.5184
      2738.841        2134.162
 97  5 14 18  4  0.0000000  0  8 24  2  4 27 26  9  7  5             0.000674035
  -9709128.236 9  -7544422.31847  23377679.306    23377680.8694   23377690.4344
      3442.125        2682.175
   6435235.303 9   5016310.01448  22387482.720    22387483.4844   22387490.8134
     -1769.556       -1378.875
 -16442179.872 9 -12790810.89948  21578255.074    21578256.7374   21578263.7364
      2265.559        1765.371
    553342.784 7    404516.39845  25116434.515    25116437.1145   25116448.1524
     -4049.645       -3155.568
   6740376.808 9   5260416.34346  24560241.192    24560242.6584   24560251.6704
     -2528.962       -1970.620
 -18609866.997 9 -14482208.08248  22046091.402    22046092.4744   22046099.2974
      1900.008        1480.526
  -1903416.536 9  -1473230.18948  21170525.745    21170526.5174   21170533.0614
     -1712.372       -1334.316
  -5419587.666 9  -4211197.21346  24634512.412    24634513.4164   24634523.6614
      2739.450        2134.636
 97  5 14 18  4 30.0000000  0  8 24  2  4 27 26  9  7  5             0.000675195
  -9812323.525 9  -7624834.16947  23358041.755    23358043.4054   23358052.8764
      3437.807        2678.811
   6488460.651 9   5057784.28148  22397611.137    22397611.9274   22397619.2954
     -1778.482       -1385.830
 -16509914.728 9 -12843591.29348  21565365.511    21565367.2084   21565374.2294
      2250.592        1753.708
    674861.667 7    499206.23745  25139559.393    25139560.8444   25139571.8614
     -4050.919       -3156.560
   6816295.663 9   5319573.82246  24574688.208    24574689.5964   24574698.6274
     -2531.824       -1972.850
 -18666662.006 9 -14526463.91848  22035283.715    22035284.7114   22035291.5644
      1886.645        1470.113
  -1851918.667 9  -1433101.99248  21180325.510    21180326.2624   21180332.8064
     -1720.276       -1340.475
  -5501790.751 9  -4275251.43746  24618869.627    24618870.6054   24618880.8604
      2741.153        2135.963
 97  5 14 18  5  0.0000000  0  8 24  2  4 27 26  9  7  5             0.000676364
  -9915383.745 9  -7705140.76647  23338429.975    23338431.6034   23338441.0434
      3432.674        2674.811
   6541952.792 9   5099466.43448  22407790.381    22407791.1554   22407798.5324
     -1787.636       -1392.963
 -16577208.591 9 -12896028.04748  21552559.916    21552561.5974   21552568.6004
      2235.456        1741.914
    796410.899 8    593919.80745  25162690.203    25162691.5364   25162701.6974
     -4052.351       -3157.676
   6892288.178 9   5378788.71146  24589149.272    24589150.5584   24589159.6034
     -2534.402       -1974.859
 -18723056.922 9 -14570407.98848  22024551.973    22024553.0754   22024559.9064
      1872.942        1459.435
  -1800192.859 9  -1392796.18048  21190168.561    21190169.3614   21190175.9204
     -1728.164       -1346.621
  -5584043.372 9  -4339344.25246  24603217.447    24603218.3094   24603228.5544
      2742.029        2136.646
 97  5 14 18  5 30.0000000  0  8 24  2  4 27 26  9  7  5             0.000677542
 -10018291.724 9  -7785328.72647  23318847.182    23318848.8284   23318858.3174
      3427.557        2670.824
   6595705.980 9   5141351.99848  22418019.305    22418020.1034   22418027.4764
     -1795.832       -1399.350
 -16644048.588 9 -12948111.14448  21539840.697    21539842.3634   21539849.3374
      2220.556        1730.303
    917991.673 8    688658.13745  25185826.455    25185828.0004   25185837.5134
     -4053.051       -3158.222
   6968360.884 9   5438066.09946  24603625.519    24603626.8204   24603635.7644
     -2537.192       -1977.033
 -18779047.440 9 -14614036.94548  22013897.342    22013898.4084   22013905.2584
      1859.574        1449.019
  -1748235.627 9  -1352310.03748  21200055.640    21200056.5174   21200063.0614
     -1735.503       -1352.340
  -5666325.588 9  -4403460.14046  24587559.501    24587560.3594   24587570.6534
      2743.153        2137.522
 97  5 14 18  6  0.0000000  0  7 24  2  4 26  9  7  5                0.000678735
 -10121033.321 9  -7865387.05447  23299296.228    23299297.7554   23299307.1144
      3421.808        2666.344
   6649708.524 9   5183431.87248  22428295.689    22428296.4854   22428303.8714
     -1804.114       -1405.803
 -16710438.320 9 -12999843.37648  21527207.204    21527208.8254   21527215.7704
      2205.580        1718.634
   7044524.582 9   5497414.38046  24618119.073    24618120.2834   24618129.3104
     -2540.021       -1979.237
 -18834619.176 9 -14657339.57548  22003322.379    22003323.4184   22003330.2774
      1845.237        1437.847
  -1696069.562 9  -1311661.17148  21209982.583    21209983.4084   21209989.9464
     -1742.051       -1357.442
  -5748622.999 9  -4467587.85646  24571898.508    24571899.5674   24571909.8674
      2743.654        2137.912
 97  5 14 18  6 30.0000000  0  7 24  2  4 26  9  7  5                0.000679938
 -10223602.072 9  -7945310.69547  23279777.915    23279779.5624   23279788.8314
      3415.919        2661.755
   6703963.732 9   5225708.61648  22438620.183    22438620.9404   22438628.3424
     -1812.949       -1412.688
 -16776381.145 9 -13051227.36248  21514658.654    21514660.2964   21514667.2464
      2190.549        1706.921
   7120767.292 9   5556824.24646  24632627.627    24632628.8954   24632637.8814
     -2542.947       -1981.517
 -18889745.731 9 -14700295.31348  21992832.046    21992833.2084   21992840.0634
      1829.726        1425.761
  -1643715.015 9  -1270865.43348  21219945.387    21219946.1384   21219952.6844
     -1748.266       -1362.285
  -5830945.588 9  -4531735.18146  24556233.090    24556234.0304   24556244.3064
      2744.238        2138.367
 97  5 14 18  7  0.0000000  0  7 24  2  4 26  9  7  5                0.000681158
 -10326008.245 9  -8025107.61847  23260290.716    23260292.2144   23260301.5254
      3411.012        2657.931
   6758476.627 9   5268186.16848  22448993.558    22448994.4164   22449001.8474
     -1821.207       -1419.122
 -16841884.172 9 -13102268.65848  21502193.811    21502195.4084   21502202.3654
      2176.199        1695.739
   7197088.765 9   5616295.45746  24647151.023    24647152.3574   24647161.3744
     -2545.293       -1983.345
 -18944412.879 9 -14742893.07148  21982429.346    21982430.4114   21982437.2344
      1814.737        1414.081
  -1591188.245 9  -1229935.49148  21229940.878    21229941.6624   21229948.2114
     -1753.669       -1366.495
  -5913280.861 9  -4595892.39446  24540565.162    24540566.0894   24540576.2274
      2744.812        2138.814
 97  5 14 18  7 30.0000000  0  7 24  2  4 26  9  7  5                0.000682397
 -10428258.252 9  -8104782.90347  23240833.310    23240834.7104   23240843.9094
      3405.916        2653.961
   6813245.009 9   5310862.79648  22459415.587    22459416.5204   22459423.9404
     -1829.701       -1425.741
 -16906944.032 9 -13152964.62948  21489813.280    21489814.8904   21489821.8354
      2161.644        1684.398
   7273507.678 9   5675842.62746  24661693.002    24661694.4544   24661703.4104
     -2548.821       -1986.094
 -18998616.870 9 -14785129.93148  21972114.671    21972115.7504   21972122.5634
      1799.197        1401.972
  -1538484.442 9  -1188867.60448  21239970.053    21239970.8204   21239977.3744
     -1759.592       -1371.111
  -5995621.615 9  -4660053.89946  24524896.686    24524897.1084   24524907.1804
      2745.053        2139.002
 97  5 14 18  8  0.0000000  0  7 24  2  4 26  9  7  5                0.000683667
 -10530342.044 9  -8184328.67347  23221407.557    23221408.8244   23221417.9364
      3400.090        2649.421
   6868285.232 9   5353751.24948  22469889.489    22469890.3614   22469897.7784
     -1839.088       -1433.056
 -16971559.952 9 -13203314.67648  21477517.281    21477518.8754   21477525.8274
      2146.549        1672.636
   7350029.342 9   5735469.84346  24676254.560    24676256.0214   24676265.0044
     -2551.874       -1988.473
 -19052341.695 9 -14826993.41848  21961891.194    21961892.2514   21961899.0634
      1783.029        1389.373
  -1485584.850 9  -1147647.15248  21250036.526    21250037.3064   21250043.8574
     -1766.763       -1376.698
  -6077958.395 9  -4724212.31046  24509228.538    24509228.8044   24509238.8934
      2744.619        2138.664
 97  5 14 18  8 30.0000000  0  7 24  2  4 26  9  7  5                0.000684964
 -10632255.731 9  -8263741.85447  23202014.081    23202015.2274   23202024.3114
      3394.355        2644.952
   6923596.781 9   5396851.11848  22480415.027    22480415.8374   22480423.2724
     -1847.977       -1439.982
 -17035725.591 9 -13253313.85548  21465306.912    21465308.5704   21465315.5194
      2131.373        1660.810
   7426633.715 9   5795161.49146  24690831.874    24690833.3484   24690842.4074
     -2554.932       -1990.856
 -19105592.650 9 -14868487.65148  21951757.843    21951758.9264   21951765.7114
      1767.431        1377.219
  -1432464.071 9  -1106254.35048  21260144.963    21260145.8474   21260152.4094
     -1774.271       -1382.549
  -6160284.694 9  -4788362.54346  24493562.115    24493562.5804   24493572.5564
      2743.961        2138.151
 97  5 14 18  9  0.0000000  0  7 24  2  4 26  9  7  5                0.000686278
 -10734006.191 9  -8343027.85947  23182651.243    23182652.6884   23182661.7894
      3388.787        2640.613
   6979158.169 9   5440145.67348  22490988.052    22490988.8844   22490996.2724
     -1856.003       -1446.236
 -17099438.820 9 -13302960.51048  21453182.710    21453184.3474   21453191.2604
      2116.035        1648.858
   7503321.282 9   5854917.96746  24705425.056    24705426.5434   24705435.6864
     -2557.560       -1992.904
 -19158394.240 9 -14909631.73948  21941709.964    21941711.0804   21941717.8744
      1752.624        1365.681
  -1379126.759 9  -1064692.82648  21270294.811    21270295.6064   21270302.1724
     -1781.683       -1388.324
  -6242603.009 9  -4852506.57846  24477897.640    24477897.8734   24477907.8184
      2744.156        2138.303
 97  5 14 18  9 30.0000000  0  7 24  2  4 26  9  7  5                0.000687588
 -10835569.678 9  -8422168.16847  23163324.245    23163325.7684   23163334.8684
      3381.914        2635.258
   7034961.101 9   5483628.43748  22501607.090    22501607.8764   22501615.2644
     -1864.185       -1452.612
 -17162670.754 9 -13352232.12048  21441149.990    21441151.6744   21441158.6254
      2099.390        1635.888
   7580099.120 9   5914744.81046  24720035.497    24720036.9814   24720046.1664
     -2560.704       -1995.354
 -19210736.635 9 -14950418.00248  21931749.611    21931750.6534   21931757.4524
      1736.931        1353.453
  -1325552.707 9  -1022946.82948  21280489.686    21280490.4154   21280496.9864
     -1789.875       -1394.708
  -6324927.311 9  -4916655.28246  24462231.632    24462231.9614   24462241.9264
      2744.278        2138.398
 97  5 14 18 10  0.0000000  0  7 24  2  4 26  9  7  5                0.000688869
 -10936940.303 9  -8501158.23547  23144034.238    23144035.6224   23144044.5824
      3375.685        2630.404
   7090990.416 9   5527287.61148  22512269.123    22512269.9504   22512277.3224
     -1871.392       -1458.227
 -17225410.688 9 -13401120.36448  21429211.014    21429212.6754   21429219.5764
      2082.884        1623.026
   7656936.694 9   5974618.19146  24734657.291    24734658.6884   24734667.8804
     -2562.078       -1996.424
 -19262629.280 9 -14990853.81948  21921874.766    21921875.8154   21921882.6134
      1722.294        1342.047
  -1271752.675 9   -981024.74848  21290727.655    21290728.2314   21290734.8174
     -1796.981       -1400.245
  -6407281.479 9  -4980827.25446  24446559.653    24446560.4004   24446570.3234
      2745.692        2139.500
 97  5 14 18 10 30.0000000  0  7 24  2  4 26  9  7  5                0.000690104
 -11038131.280 9  -8580008.27247  23124778.316    23124779.6164   23124788.5464
      3370.015        2625.986
   7147224.127 9   5571106.04348  22522970.057    22522970.8844   22522978.2744
     -1877.939       -1463.329
 -17287659.172 9 -13449625.65448  21417365.522    21417367.1914   21417374.0754
      2066.684        1610.403
   7733818.678 9   6034526.15146  24749287.499    24749288.8544   24749298.1784
     -2563.709       -1997.695
 -19314097.170 9 -15030958.65348  21912080.760    21912081.7894   21912088.5684
      1708.616        1331.389
  -1217758.793 9   -938951.61148  21301002.309    21301002.9424   21301009.5514
     -1802.793       -1404.774
  -6489689.349 9  -5045041.06946  24430878.124    24430878.5984   24430888.4794
      2747.913        2141.231
 97  5 14 18 11  0.0000000  0  7 24  2  4 26  9  7  5                0.000691299
 -11139129.644 9  -8658708.25847  23105558.697    23105560.2754   23105569.1304
      3363.225        2620.695
   7203679.414 9   5615097.13948  22533713.155    22533713.9784   22533721.4074
     -1885.655       -1469.341
 -17349397.321 9 -13497733.27748  21405617.178    21405618.8314   21405625.6684
      2049.405        1596.939
   7810761.280 9   6094481.37446  24763929.173    24763930.5574   24763939.8724
     -2565.441       -1999.045
 -19365134.082 9 -15070727.66648  21902368.783    21902369.7864   21902376.5474
      1693.894        1319.917
  -1163570.905 9   -896727.30148  21311313.878    21311314.5094   21311321.1554
     -1809.650       -1410.117
  -6572147.560 9  -5109294.12246  24415186.070    24415187.2134   24415197.0764
      2749.441        2142.421
 97  5 14 18 11 30.0000000  0  7 24  2  4 26  9  7  5                0.000692462
 -11239927.640 9  -8737252.11847  23086377.487    23086379.0074   23086387.8974
      3356.402        2615.378
   7260369.572 9   5659271.25448  22544500.953    22544501.7944   22544509.2524
     -1893.981       -1475.829
 -17410625.357 9 -13545443.41148  21393965.930    21393967.5174   21393974.3314
      2032.369        1583.664
   7887743.032 9   6154467.07046  24778578.261    24778579.6734   24778589.0964
     -2566.789       -2000.095
 -19415727.697 9 -15110151.24848  21892741.105    21892742.1334   21892748.9024
      1678.852        1308.196
  -1109182.988 9   -854347.12448  21321663.454    21321664.1714   21321670.8584
     -1816.341       -1415.331
  -6654654.006 9  -5173584.76846  24399485.524    24399486.6214   24399496.5104
      2750.648        2143.362
 97  5 14 18 12  0.0000000  0  7 24  2  4 26  9  7  5                0.000693607
 -11340540.468 9  -8815651.66047  23067231.858    23067233.0314   23067241.9574
      3350.493        2610.774
   7317308.195 9   5703638.98148  22555336.018    22555336.8744   22555344.3504
     -1902.356       -1482.355
 -17471358.484 9 -13592767.90748  21382408.777    21382410.3534   21382417.1974
      2016.025        1570.928
   7964745.589 9   6214468.99646  24793231.381    24793232.8084   24793242.3424
     -2567.301       -2000.494
 -19465884.730 9 -15149234.64448  21883196.511    21883197.5644   21883204.3034
      1664.330        1296.880
  -1054609.731 9   -811822.52948  21332048.396    21332049.1394   21332055.8284
     -1822.267       -1419.948
  -6737199.780 9  -5237906.06146  24383777.340    24383778.6304   24383788.5194
      2751.769        2144.236
 97  5 14 18 12 30.0000000  0  7 24  2  4 26  9  7  5                0.000694744
 -11440979.917 9  -8893916.14447  23048118.999    23048120.0064   23048128.9284
      3345.369        2606.781
   7374496.909 9   5748201.57948  22566218.704    22566219.5604   22566227.0294
     -1910.232       -1488.492
 -17531608.420 9 -13639715.89548  21370943.561    21370945.1374   21370951.9614
      2000.561        1558.879
   8041761.801 9   6274481.57046  24807887.278    24807888.5514   24807898.1944
     -2567.034       -2000.286
 -19515604.674 9 -15187977.45048  21873735.112    21873736.1654   21873742.8864
      1650.140        1285.823
   -999865.142 9   -769164.43248  21342465.933    21342466.7144   21342473.4304
     -1827.430       -1423.971
  -6819772.478 9  -5302248.33646  24368064.435    24368065.5044   24368075.3374
      2753.089        2145.264
 97  5 14 18 13  0.0000000  0  7 24  2  4 26  9  7  5                0.000695871
 -11541246.035 9  -8972045.52347  23029038.691    23029039.9564   23029048.9194
      3339.042        2601.851
   7431943.711 9   5792965.28348  22577150.502    22577151.3484   22577158.8484
     -1919.257       -1495.525
 -17591373.571 9 -13686286.11948  21359570.624    21359572.1784   21359579.0264
      1984.041        1546.006
   8118785.805 9   6334500.18846  24822544.395    24822545.7734   24822555.4494
     -2567.671       -2000.783
 -19564858.705 9 -15226357.21148  21864362.387    21864363.4444   21864370.1364
      1633.616        1272.947
   -944940.838 9   -726366.29448  21352917.734    21352918.4794   21352925.2024
     -1833.926       -1429.033
  -6902362.565 9  -5366604.15446  24352347.913    24352349.0674   24352358.8364
      2753.196        2145.348
 97  5 14 18 13 30.0000000  0  7 24  2  4 26  9  7  5                0.000696997
 -11641330.212 9  -9050033.17347  23009993.115    23009994.5774   23010003.4844
      3332.903        2597.067
   7489660.049 9   5837939.01748  22588133.627    22588134.4654   22588141.9614
     -1928.381       -1502.635
 -17650651.594 9 -13732476.76748  21348290.344    21348291.9504   21348298.7854
      1967.708        1533.279
   8195837.027 9   6394539.99346  24837206.713    24837208.1814   24837217.8094
     -2569.193       -2001.969
 -19613618.102 9 -15264351.53948  21855083.843    21855084.8054   21855091.4834
      1617.069        1260.054
   -889838.811 9   -683429.67248  21363403.243    21363404.0744   21363410.7944
     -1839.548       -1433.414
  -6984960.447 9  -5430966.04946  24336630.067    24336631.2284   24336640.8574
      2753.285        2145.417
 97  5 14 18 14  0.0000000  0  7 24  2  4 26  9  7  5                0.000698122
 -11741229.100 9  -9127876.42547  22990983.164    22990984.4194   22990993.2704
      3326.830        2592.335
   7547635.745 9   5883114.84648  22599166.100    22599166.9224   22599174.4234
     -1936.584       -1509.026
 -17709439.185 9 -13778285.26448  21337103.502    21337105.0444   21337111.8874
      1951.410        1520.579
   8272931.345 9   6454613.39446  24851877.342    24851878.7714   24851888.4494
     -2570.451       -2002.949
 -19661879.869 9 -15301958.10648  21845899.856    21845900.9234   21845907.5874
      1600.320        1247.003
   -834575.704 9   -640367.53648  21373919.463    21373920.3174   21373927.0404
     -1844.708       -1437.435
  -7067557.530 9  -5495327.31446  24320912.683    24320913.4644   24320923.0454
      2753.193        2145.345
 97  5 14 18 14 30.0000000  0  7 24  2  4 26  9  7  5                0.000699253
 -11840919.832 9  -9205557.46347  22972012.711    22972013.8044   22972022.7164
      3319.795        2586.853
   7605881.164 9   5928500.85048  22610249.903    22610250.7064   22610258.1884
     -1945.794       -1516.203
 -17767718.372 9 -13823697.59848  21326013.262    21326014.8584   21326021.7294
      1934.501        1507.403
   8350090.371 9   6514737.22946  24866560.362    24866561.7244   24866571.4264
     -2572.712       -2004.711
 -19709613.446 9 -15339153.09848  21836816.490    21836817.5494   21836824.2044
      1582.664        1233.245
   -779132.248 9   -597164.86148  21384469.983    21384470.8714   21384477.5934
     -1850.980       -1442.322
  -7150131.122 9  -5559670.28646  24305199.358    24305200.1874   24305209.7244
      2752.323        2144.667
 97  5 14 18 15  0.0000000  0  7 24  2  4 26  9  7  5                0.000700383
 -11940415.002 9  -9283086.15247  22953079.166    22953080.5584   22953089.3654
      3312.853        2581.444
   7664383.762 9   5974087.24848  22621382.622    22621383.3904   22621390.9124
     -1954.568       -1523.040
 -17825503.881 9 -13868725.25148  21315017.101    21315018.6174   21315025.5014
      1917.677        1494.294
   8427300.897 9   6574901.18546  24881253.186    24881254.4124   24881264.1984
     -2574.814       -2006.349
 -19756836.715 9 -15375950.44748  21827830.193    21827831.2364   21827837.9014
      1565.601        1219.949
   -723511.927 9   -553824.37548  21395054.261    21395055.0624   21395061.7754
     -1857.359       -1447.293
  -7232699.450 9  -5624009.13446  24289487.062    24289487.8364   24289497.3534
      2751.856        2144.303
 97  5 14 18 15 30.0000000  0  7 24  2  4 26  9  7  5                0.000701524
 -12039710.807 9  -9360459.45447  22934183.536    22934185.1034   22934193.8984
      3306.769        2576.703
   7723140.980 9   6019872.04448  22632563.735    22632564.4914   22632572.0454
     -1962.352       -1529.105
 -17882797.503 9 -13913369.61648  21304114.357    21304115.9714   21304122.8524
      1901.918        1482.014
   8504558.115 9   6635101.52446  24895954.757    24895956.0854   24895965.9344
     -2575.393       -2006.800
 -19803573.204 9 -15412368.48648  21818936.486    21818937.5754   21818944.2354
      1550.376        1208.085
   -667704.285 9   -510337.92748  21405674.189    21405674.9294   21405681.6494
     -1863.061       -1451.736
  -7315252.079 9  -5688335.74046  24273777.789    24273778.4774   24273788.0034
      2751.869        2144.314
 97  5 14 18 16  0.0000000  0  7 24  2  4 26  9  7  5                0.000702665
 -12138807.871 9  -9437677.92247  22915325.902    22915327.5084   22915336.2964
      3299.938        2571.380
   7782140.686 9   6065845.79748  22643791.008    22643791.8204   22643799.3474
     -1970.778       -1535.671
 -17939597.769 9 -13957629.55348  21293305.648    21293307.2284   21293314.1294
      1885.085        1468.897
   8581836.354 9   6695318.21546  24910660.253    24910661.6704   24910671.6254
     -2576.114       -2007.362
 -19849838.435 9 -15448419.31448  21810132.464    21810133.5984   21810140.2644
      1534.322        1195.576
   -611700.677 9   -466698.77748  21416331.406    21416332.0734   21416338.8074
     -1870.177       -1457.281
  -7397796.928 9  -5752656.28346  24258069.677    24258070.5814   24258080.1284
      2751.635        2144.131
 97  5 14 18 16 30.0000000  0  7 24  2  4 26  9  7  5                0.000703811
 -12237701.617 9  -9514737.93947  22896507.167    22896508.6624   22896517.3324
      3292.822        2565.835
   7841396.516 9   6112019.12648  22655066.998    22655067.8594   22655075.4044
     -1979.489       -1542.459
 -17995900.031 9 -14001501.42948  21282591.679    21282593.2504   21282600.1394
      1868.419        1455.911
   8659132.545 9   6755548.92546  24925369.272    24925370.6964   24925380.5754
     -2576.725       -2007.838
 -19895635.644 9 -15484105.44148  21801417.616    21801418.6754   21801425.3504
      1518.956        1183.602
   -555490.620 9   -422898.75348  21427027.663    21427028.4574   21427035.2134
     -1877.003       -1462.600
  -7480351.377 9  -5816984.32546  24242359.994    24242360.9104   24242370.4154
      2752.136        2144.522
 97  5 14 18 17  0.0000000  0  7 24  2  4 26  9  7  5                0.000704960
 -12336371.899 9  -9591623.82247  22877730.670    22877732.2404   22877740.9534
      3285.382        2560.038
   7900909.342 9   6158392.71248  22666391.976    22666392.8414   22666400.3814
     -1987.721       -1548.874
 -18051697.403 9 -14044979.88848  21271973.749    21271975.3354   21271982.2454
      1851.739        1442.914
   8736441.866 9   6815789.85046  24940080.738    24940082.2854   24940092.1394
     -2576.946       -2008.010
 -19940971.400 9 -15519432.00048  21792790.470    21792791.5344   21792798.2054
      1503.564        1171.608
   -499076.752 9   -378939.91748  21437762.808    21437763.6444   21437770.4144
     -1883.577       -1467.722
  -7562921.284 9  -5881324.40246  24226647.447    24226648.2894   24226657.7434
      2752.902        2145.118
 97  5 14 18 17 30.0000000  0  7 24  2  4 26  9  7  5                0.000706117
 -12434798.704 9  -9668320.01347  22859000.705    22859002.2444   22859010.9134
      3277.134        2553.611
   7960689.185 9   6204974.35548  22677767.753    22677768.5774   22677776.1674
     -1996.724       -1555.889
 -18106983.050 9 -14088059.60248  21261453.212    21261454.8054   21261461.6914
      1834.783        1429.701
   8813770.886 9   6876046.12546  24954796.001    24954797.5504   24954807.4574
     -2577.533       -2008.467
 -19985823.739 9 -15554381.86848  21784255.351    21784256.4184   21784263.0654
      1487.375        1158.994
   -442466.277 9   -334827.88148  21448535.470    21448536.2994   21448543.0944
     -1889.410       -1472.268
  -7645505.589 9  -5945675.72146  24210932.428    24210932.9714   24210942.3294
      2753.813        2145.828
 97  5 14 18 18  0.0000000  0  7 24  2  4 26  9  7  5                0.000707273
 -12532976.012 9  -9744821.73247  22840318.123    22840319.6164   22840328.3914
      3268.253        2546.691
   8020740.312 9   6251767.38747  22689195.113    22689195.9404   22689203.5954
     -2006.542       -1563.539
 -18161763.350 9 -14130745.53948  21251028.824    21251030.4234   21251037.3154
      1817.427        1416.177
   8891118.793 9   6936317.12246  24969515.059    24969516.5454   24969526.4104
     -2578.728       -2009.398
 -20030186.795 9 -15588950.47648  21775813.358    21775814.4034   21775821.0664
      1470.469        1145.820
   -385693.133 9   -290589.09048  21459339.169    21459339.9314   21459346.7184
     -1895.310       -1476.865
  -7728130.100 9  -6010058.35746  24195209.540    24195209.9634   24195219.3274
      2754.455        2146.329
 97  5 14 18 18 30.0000000  0  7 24  2  4 26  9  7  5                0.000708452
 -12630887.544 9  -9821116.39647  22821686.012    22821687.6364   22821696.4234
      3259.468        2539.845
   8081084.275 9   6298788.60247  22700678.193    22700679.0314   22700686.7064
     -2015.906       -1570.836
 -18216026.347 9 -14173028.37948  21240702.895    21240704.5384   21240711.4084
      1800.375        1402.890
   8968495.204 9   6996610.32146  24984239.378    24984240.7854   24984250.6364
     -2579.343       -2009.878
 -20074052.894 9 -15623131.84848  21767465.909    21767466.9854   21767473.6604
      1454.163        1133.114
   -328748.938 9   -246217.01648  21470175.418    21470176.0694   21470182.8834
     -1900.796       -1481.140
  -7810760.361 9  -6074445.48146  24179485.348    24179485.9294   24179495.1654
      2754.480        2146.348
 97  5 14 18 19  0.0000000  0  7 24  2  4 26  9  7  5                0.000709646
 -12728547.371 9  -9897214.90147  22803102.115    22803103.5354   22803112.3614
      3251.408        2533.565
   8141700.132 9   6346021.69248  22712213.012    22712213.8974   22712221.5734
     -2024.928       -1577.866
 -18269779.001 9 -14214913.55048  21230474.161    21230475.7444   21230482.6484
      1783.256        1389.550
   9045889.019 9   7056917.10446  24998966.984    24998968.4944   24998978.3284
     -2580.203       -2010.548
 -20117428.693 9 -15656931.17048  21759211.762    21759212.8594   21759219.5134
      1437.703        1120.288
   -271635.308 9   -201712.91148  21481043.837    21481044.4654   21481051.2994
     -1906.485       -1485.573
  -7893388.522 9  -6138830.96246  24163761.909    24163762.2114   24163771.4424
      2754.384        2146.273
 97  5 14 18 19 30.0000000  0  7 24  2  4 26  9  7  5                0.000710851
 -12825974.804 9  -9973132.32847  22784562.241    22784563.7004   22784572.4874
      3244.178        2527.931
   8202577.844 9   6393458.82547  22723797.738    22723798.5944   22723806.2534
     -2033.033       -1584.182
 -18323021.488 9 -14256401.19148  21220342.451    21220344.0514   21220350.9444
      1766.567        1376.546
   9123310.345 9   7117245.30646  25013699.908    25013701.4234   25013711.2924
     -2580.673       -2010.914
 -20160319.310 9 -15690352.43448  21751050.026    21751051.0504   21751057.6984
      1422.126        1108.150
   -214362.041 9   -157084.41648  21491942.469    21491943.1934   21491950.0514
     -1911.372       -1489.381
  -7976015.511 9  -6203215.53246  24148038.091    24148038.7324   24148047.9084
      2754.623        2146.459
 97  5 14 18 20  0.0000000  0  7 24  2  4 26  9  7  5                0.000712054
 -12923181.586 9 -10048877.82647  22766064.547    22766065.8004   22766074.6064
      3236.402        2521.872
   8263695.934 9   6441083.26047  22735428.166    22735429.0214   22735436.6694
     -2041.221       -1590.562
 -18375747.909 9 -14297486.70248  21210308.925    21210310.5554   21210317.4394
      1748.623        1362.563
   9200751.242 8   7177588.75946  25028436.465    25028437.9424   25028447.8884
     -2581.809       -2011.799
 -20202732.359 9 -15723401.56948  21742979.099    21742980.1244   21742986.7734
      1405.576        1095.254
   -156918.852 9   -112323.50248  21502873.415    21502874.2444   21502881.1394
     -1918.095       -1494.619
  -8058639.186 9  -6267597.52646  24132315.202    24132315.8994   24132325.0244
      2753.648        2145.700
 97  5 14 18 20 30.0000000  0  7 24  2  4 26  9  7  5                0.000713248
 -13020166.555 9 -10124450.47347  22747608.816    22747610.1754   22747618.9264
      3229.096        2516.179
   8325037.423 9   6488881.76847  22747101.162    22747101.9984   22747109.6574
     -2048.277       -1596.060
 -18427943.884 9 -14338158.88248  21200376.324    21200377.9994   21200384.8814
      1731.120        1348.925
   9278215.613 9   7237950.49946  25043177.684    25043179.0624   25043188.9694
     -2582.488       -2012.328
 -20244657.054 9 -15756070.16648  21735001.080    21735002.1224   21735008.7854
      1389.183        1082.480
    -99282.055 9    -67411.72848  21513841.262    21513842.1194   21513849.0664
     -1924.336       -1499.483
  -8141244.839 9  -6331965.46446  24116595.958    24116596.5194   24116605.5664
      2753.487        2145.574
 97  5 14 18 21  0.0000000  0  7 24  2  4 26  9  7  5                0.000714417
 -13116935.727 9 -10199854.98247  22729194.176    22729195.5784   22729204.3314
      3222.135        2510.755
   8386592.188 9   6536846.46247  22758814.713    22758815.5424   22758823.2114
     -2055.231       -1601.479
 -18479615.313 9 -14378422.32048  21190543.586    21190545.2544   21190552.1484
      1713.927        1335.528
   9355702.917 9   7298330.12446  25057922.930    25057924.3604   25057934.3874
     -2582.940       -2012.681
 -20286083.696 9 -15788350.66848  21727117.837    21727118.8664   21727125.5464
      1372.729        1069.659
    -41460.019 9    -22355.60848  21524844.539    21524845.3104   21524852.2604
     -1930.033       -1503.922
  -8223858.426 9  -6396339.59446  24100875.188    24100875.6244   24100884.6094
      2754.228        2146.152
 97  5 14 18 21 30.0000000  0  7 24  2  4 26  9  7  5                0.000715563
 -13213479.452 9 -10275083.79547  22710822.594    22710823.8814   22710832.6214
      3213.623        2504.122
   8448367.438 9   6584982.97647  22770570.229    22770571.0254   22770578.7274
     -2063.481       -1607.907
 -18530764.120 9 -14418278.52748  21180810.341    21180811.9644   21180818.8434
      1695.713        1321.335
   9433193.473 9   7358712.27746  25072668.926    25072670.4354   25072680.5104
     -2583.188       -2012.874
 -20327003.922 9 -15820236.55748  21719330.958    21719332.0164   21719338.7054
      1354.966        1055.818
     16538.030 9     22837.66248  21535881.270    21535882.0234   21535888.9654
     -1936.889       -1509.264
  -8306482.604 9  -6460721.99546  24085152.327    24085152.7314   24085161.6674
      2753.815        2145.830
 97  5 14 18 22  0.0000000  0  7 24  2  4 26  9  7  5                0.000716685
 -13309780.670 9 -10350123.65147  22692496.944    22692498.3744   22692507.1034
      3206.102        2498.261
   8510379.025 9   6633303.63847  22782370.648    22782371.4354   22782379.1814
     -2070.910       -1613.696
 -18581381.663 9 -14457720.76148  21171178.132    21171179.7454   21171186.6464
      1678.735        1308.105
   9510662.575 9   7419077.72445  25087410.861    25087412.3834   25087422.4414
     -2581.506       -2011.563
 -20367403.514 9 -15851716.76148  21711643.133    21711644.2274   21711650.9634
      1338.418        1042.923
     74726.518 9     68179.32748  21546954.208    21546954.9654   21546961.9164
     -1942.299       -1513.480
  -8389110.207 9  -6525107.04846  24069428.611    24069429.1634   24069438.0294
      2754.551        2146.403
 97  5 14 18 22 30.0000000  0  7 24  2  4 26  9  7  5                0.000717796
 -13405832.844 9 -10424969.45047  22674218.687    22674220.2214   22674228.9534
      3197.367        2491.455
   8572643.266 9   6681821.17147  22794219.109    22794219.9234   22794227.6684
     -2079.983       -1620.766
 -18631475.067 9 -14496754.57348  21161645.635    21161647.2684   21161654.1914
      1660.884        1294.195
   9588092.393 9   7479412.56145  25102145.339    25102146.7944   25102156.7604
     -2580.433       -2010.727
 -20407297.296 9 -15882802.82848  21704051.598    21704052.6734   21704059.4444
      1321.235        1029.534
    133084.032 9    113652.69548  21558059.303    21558060.0254   21558066.9664
     -1948.058       -1517.967
  -8471743.018 9  -6589496.16846  24053703.966    24053704.5524   24053713.4934
      2754.433        2146.311
